[[{"header":{"parameterUnit":"m.s-1","parameterCategory":1,"la1":31.0,"la2":29.5877,"lo1":-88.7671,"lo2":-86.6584,"dy":0.0162,"dx":0.0185,"nx":115,"ny":88,"refTime":"2023-02-28T06:00:00:Z","depth":0,"parameterNumber":2,"parameterNumberName":"U-component_of_WINDS"},"data":[0.0,0.0,0.0,0.0,0.0,0.0,0.0,0.0,0.0,0.0,0.0,0.0,0.0,0.0,0.0,0.0,0.0,0.0,0.0,0.0,0.0,0.0,0.0,0.0,0.0,0.0,0.0,0.0,0.0,0.0,0.0,0.0,0.0,0.0,0.0,0.0,0.0,0.0,0.0,0.0,0.0,0.0,0.0,0.0,0.0,0.0,0.0,0.0,0.0,0.0,0.0,0.0,0.0,0.0,0.0,0.0,0.0,0.0,0.0,0.0,0.0,0.0,0.0,0.0,0.0,0.0,0.0,0.0,0.0,0.0,0.0,0.0,0.0,0.0,0.0,0.0,0.0,0.0,0.0,0.0,0.0,0.0,0.0,0.0,0.0,0.0,0.0,0.0,0.0,0.0,0.0,0.0,0.0,0.0,0.0,0.0,0.0,0.0,0.0,0.0,0.0,0.0,0.0,0.0,0.0,0.0,0.0,0.0,0.0,0.0,0.0,0.0,0.0,0.0,0.0,0.0,0.0,0.0,0.0,0.0,0.0,0.0,0.0,0.0,0.0,0.0,0.0,0.0,0.0,0.0,0.0,0.0,0.0,0.0,0.0,0.0,0.0,0.0,0.0,0.0,0.0,0.0,0.0,0.0,0.0,0.0,0.0,0.0,0.0,0.0,0.0,0.0,0.0,0.0,0.0,0.0,0.0,0.0,0.0,0.0,0.0,0.0,0.0,0.0,0.0,0.0,0.0,0.0,0.0,0.0,0.0,0.0,0.0,0.0,0.0,0.0,0.0,0.0,0.0,0.0,0.0,0.0,0.0,0.0,0.0,0.0,0.0,0.0,0.0,0.0,0.0,0.0,0.0,0.0,0.0,0.0,0.0,0.0,0.0,0.0,0.0,0.0,0.0,0.0,0.0,0.0,0.0,0.0,0.0,0.0,0.0,0.0,0.0,0.0,0.0,0.0,0.0,0.0,0.0,0.0,0.0,0.0,0.0,0.0,0.0,0.0,0.0,0.0,0.0,0.0,0.0,0.0,0.0,0.0,0.0,0.0,0.0,0.0,0.0,0.0,0.0,0.0,0.0,0.0,0.0,0.0,0.0,0.0,0.0,0.0,0.0,0.0,0.0,0.0,0.0,0.0,0.0,0.0,0.0,0.0,0.0,0.0,0.0,0.0,0.0,0.0,0.0,0.0,0.0,0.0,0.0,0.0,0.0,0.0,0.0,0.0,0.0,0.0,0.0,0.0,0.0,0.0,0.0,0.0,0.0,0.0,0.0,0.0,0.0,0.0,0.0,0.0,0.0,0.0,0.0,0.0,0.0,0.0,0.0,0.0,0.0,0.0,0.0,0.0,0.0,0.0,0.0,0.0,0.0,0.0,0.0,0.0,0.0,0.0,0.0,0.0,0.0,0.0,0.0,0.0,0.0,0.0,0.0,0.0,0.0,0.0,0.0,0.0,0.0,0.0,0.0,0.0,0.0,0.0,0.0,0.0,0.0,0.0,0.0,0.0,0.0,0.0,0.0,0.0,0.0,0.0,0.0,0.0,0.0,0.0,0.0,0.0,0.0,0.0,0.0,0.0,0.0,0.0,0.0,0.0,0.0,0.0,0.0,0.0,0.0,0.0,0.0,0.0,0.0,0.0,0.0,0.0,0.0,0.0,0.0,0.0,0.0,0.0,0.0,0.0,0.0,0.0,0.0,0.0,0.0,0.0,0.0,0.0,0.0,0.0,0.0,0.0,0.0,0.0,0.0,0.0,0.0,0.0,0.0,0.0,0.0,0.0,0.0,0.0,0.0,0.0,0.0,0.0,0.0,0.0,0.0,0.0,0.0,0.0,0.0,0.0,0.0,0.0,0.0,0.0,0.0,0.0,0.0,0.0,0.0,0.0,0.0,0.0,0.0,0.0,0.0,0.0,0.0,0.0,0.0,0.0,0.0,0.0,0.0,0.0,0.0,0.0,0.0,0.0,0.0,0.0,0.0,0.0,0.0,0.0,0.0,0.0,0.0,0.0,0.0,0.0,0.0,0.0,0.0,0.0,0.0,0.0,0.0,0.0,0.0,0.0,0.0,0.0,0.0,0.0,0.0,0.0,0.0,0.0,0.0,0.0,0.0,0.0,0.0,0.0,0.0,0.0,0.0,0.0,0.0,0.0,0.0,0.0,0.0,0.0,0.0,0.0,0.0,0.0,0.0,0.0,0.0,0.0,0.0,0.0,0.0,0.0,0.0,0.0,0.0,0.0,0.0,0.0,0.0,0.0,0.0,0.0,0.0,0.0,0.0,0.0,0.0,0.0,0.0,0.0,0.0,0.0,0.0,0.0,0.0,0.0,0.0,0.0,0.0,0.0,0.0,0.0,0.0,0.0,0.0,0.0,0.0,0.0,0.0,0.0,0.0,0.0,0.0,0.0,0.0,0.0,0.0,0.0,0.0,0.0,0.0,0.0,0.0,0.0,0.0,0.0,0.0,0.0,0.0,0.0,0.0,0.0,0.0,0.0,0.0,0.0,0.0,0.0,0.0,0.0,0.0,0.0,0.0,0.0,0.0,0.0,0.0,0.0,0.0,0.0,0.0,0.0,0.0,0.0,0.0,0.0,0.0,0.0,0.0,0.0,0.0,0.0,0.0,0.0,0.0,0.0,0.0,0.0,0.0,0.0,0.0,0.0,0.0,0.0,0.0,0.0,0.0,0.0,0.0,0.0,0.0,0.0,0.0,0.0,0.0,0.0,0.0,0.0,0.0,0.0,0.0,0.0,0.0,0.0,0.0,0.0,0.0,0.0,0.0,0.0,0.0,0.0,0.0,0.0,0.0,0.0,0.0,0.0,0.0,0.0,0.0,0.0,0.0,0.0,0.0,0.0,0.0,0.0,0.0,0.0,0.0,0.0,0.0,0.0,0.0,0.0,0.0,0.0,0.0,0.0,0.0,0.0,0.0,0.0,0.0,0.0,0.0,0.0,0.0,0.0,0.0,0.0,0.0,0.0,0.0,0.0,0.0,0.0,0.0,0.0,0.0,0.0,0.0,0.0,0.0,0.0,0.0,0.0,0.0,0.0,0.0,0.0,0.0,0.0,0.0,0.0,0.0,0.0,0.0,0.0,0.0,0.0,0.0,0.0,0.0,0.0,0.0,0.0,0.0,0.0,0.0,0.0,0.0,0.0,0.0,0.0,0.0,0.0,0.0,0.0,0.0,0.0,0.0,0.0,0.0,0.0,0.0,0.0,0.0,0.0,0.0,0.0,0.0,0.0,0.0,0.0,0.0,0.0,0.0,0.0,0.0,0.0,0.0,0.0,0.0,0.0,0.0,0.0,0.0,0.0,0.0,0.0,0.0,0.0,0.0,0.0,0.0,0.0,0.0,0.0,0.0,0.0,0.0,0.0,0.0,0.0,0.0,0.0,0.0,0.0,0.0,0.0,0.0,0.0,0.0,0.0,0.0,0.0,0.0,0.0,0.0,0.0,0.0,0.0,0.0,0.0,0.0,0.0,0.0,0.0,0.0,0.0,0.0,0.0,0.0,0.0,0.0,0.0,0.0,0.0,0.0,0.0,0.0,0.0,0.0,0.0,0.0,0.0,0.0,0.0,0.0,0.0,0.0,0.0,0.0,0.0,0.0,0.0,0.0,0.0,0.0,0.0,0.0,0.0,0.0,0.0,0.0,0.0,0.0,0.0,0.0,0.0,0.0,0.0,0.0,0.0,0.0,0.0,0.0,0.0,0.0,0.0,0.0,0.0,0.0,0.0,0.0,0.0,0.0,0.0,0.0,0.0,0.0,0.0,0.0,0.0,0.0,0.0,0.0,0.0,0.0,0.0,0.0,0.0,0.0,0.0,0.0,0.0,0.0,0.0,0.0,0.0,0.0,0.0,0.0,0.0,0.0,0.0,0.0,0.0,0.0,0.0,0.0,0.0,0.0,0.0,0.0,0.0,0.0,0.0,0.0,0.0,0.0,0.0,0.0,0.0,0.0,0.0,0.0,0.0,0.0,0.0,0.0,0.0,0.0,0.0,0.0,0.0,0.0,0.0,0.0,0.0,0.0,0.0,0.0,0.0,0.0,0.0,0.0,0.0,0.0,0.0,0.0,0.0,0.0,0.0,0.0,0.0,0.0,0.0,0.0,0.0,0.0,0.0,0.0,0.0,0.0,0.0,0.0,0.0,0.0,0.0,0.0,0.0,0.0,0.0,0.0,0.0,0.0,0.0,0.0,0.0,0.0,0.0,0.0,0.0,0.0,0.0,0.0,0.0,0.0,0.0,0.0,0.0,0.0,0.0,-2.4623,0.0,0.0,0.0,0.0,0.0,0.0,0.0,0.0,0.0,0.0,0.0,0.0,0.0,0.0,0.0,0.0,0.0,0.0,0.0,0.0,0.0,0.0,0.0,0.0,0.0,0.0,0.0,0.0,0.0,0.0,0.0,0.0,0.0,0.0,0.0,0.0,0.0,0.0,0.0,0.0,0.0,0.0,0.0,0.0,0.0,0.0,0.0,0.0,0.0,0.0,0.0,0.0,0.0,0.0,0.0,0.0,0.0,0.0,0.0,0.0,0.0,0.0,0.0,0.0,0.0,0.0,0.0,0.0,0.0,0.0,0.0,0.0,0.0,0.0,0.0,0.0,0.0,0.0,0.0,0.0,0.0,0.0,0.0,0.0,0.0,0.0,0.0,0.0,0.0,0.0,0.0,0.0,0.0,0.0,0.0,0.0,0.0,0.0,0.0,0.0,0.0,0.0,0.0,0.0,0.0,0.0,0.0,0.0,0.0,0.0,-2.5429,-2.4687,-2.4698,-2.4671,-2.4607,0.0,0.0,0.0,0.0,0.0,0.0,0.0,0.0,0.0,0.0,0.0,0.0,0.0,0.0,0.0,0.0,0.0,0.0,0.0,0.0,0.0,0.0,0.0,0.0,0.0,0.0,0.0,0.0,0.0,0.0,0.0,0.0,0.0,0.0,0.0,0.0,0.0,0.0,0.0,0.0,0.0,0.0,0.0,0.0,0.0,0.0,0.0,0.0,0.0,0.0,0.0,0.0,0.0,0.0,0.0,0.0,0.0,0.0,0.0,0.0,0.0,0.0,0.0,0.0,0.0,0.0,0.0,0.0,0.0,0.0,0.0,0.0,0.0,0.0,0.0,0.0,0.0,0.0,0.0,0.0,0.0,0.0,0.0,0.0,0.0,0.0,0.0,0.0,0.0,0.0,0.0,0.0,0.0,0.0,0.0,0.0,0.0,0.0,0.0,0.0,0.0,0.0,0.0,0.0,0.0,0.0,0.0,0.0,0.0,0.0,0.0,0.0,-2.4926,-2.4995,-2.51,0.0,0.0,0.0,0.0,0.0,0.0,0.0,0.0,0.0,0.0,0.0,0.0,0.0,0.0,0.0,0.0,0.0,0.0,0.0,0.0,0.0,0.0,0.0,0.0,0.0,0.0,0.0,0.0,0.0,0.0,0.0,0.0,0.0,0.0,0.0,0.0,0.0,0.0,0.0,0.0,0.0,0.0,0.0,0.0,0.0,0.0,0.0,0.0,0.0,0.0,0.0,0.0,0.0,0.0,0.0,0.0,0.0,0.0,0.0,0.0,0.0,0.0,0.0,0.0,0.0,0.0,0.0,0.0,0.0,0.0,0.0,0.0,0.0,0.0,0.0,0.0,0.0,0.0,0.0,0.0,0.0,0.0,0.0,0.0,0.0,0.0,0.0,0.0,0.0,0.0,0.0,0.0,0.0,0.0,0.0,0.0,0.0,0.0,0.0,0.0,0.0,0.0,0.0,0.0,0.0,0.0,0.0,0.0,0.0,0.0,-2.5733,-2.5789,-2.5708,0.0,-2.6419,0.0,0.0,0.0,0.0,0.0,0.0,0.0,0.0,0.0,0.0,0.0,0.0,0.0,0.0,0.0,0.0,0.0,0.0,0.0,0.0,0.0,0.0,0.0,0.0,0.0,0.0,0.0,0.0,0.0,0.0,0.0,0.0,0.0,0.0,0.0,0.0,0.0,0.0,0.0,0.0,0.0,0.0,0.0,0.0,0.0,0.0,0.0,0.0,0.0,0.0,0.0,0.0,0.0,0.0,0.0,0.0,0.0,0.0,0.0,0.0,0.0,0.0,0.0,0.0,0.0,0.0,0.0,0.0,0.0,0.0,0.0,0.0,0.0,0.0,0.0,0.0,0.0,0.0,0.0,0.0,0.0,0.0,0.0,0.0,0.0,0.0,0.0,0.0,0.0,0.0,0.0,0.0,0.0,0.0,0.0,0.0,0.0,0.0,0.0,0.0,0.0,0.0,0.0,0.0,0.0,0.0,0.0,0.0,0.0,0.0,-2.5493,-2.5098,-2.5044,-2.5068,0.0,0.0,0.0,0.0,0.0,0.0,0.0,0.0,0.0,0.0,0.0,0.0,0.0,0.0,0.0,0.0,0.0,0.0,0.0,0.0,0.0,0.0,0.0,0.0,0.0,0.0,0.0,0.0,0.0,0.0,0.0,0.0,0.0,0.0,0.0,0.0,0.0,0.0,0.0,0.0,0.0,0.0,0.0,0.0,0.0,0.0,0.0,0.0,0.0,0.0,0.0,0.0,0.0,0.0,0.0,0.0,0.0,0.0,0.0,0.0,0.0,0.0,0.0,0.0,0.0,0.0,0.0,0.0,0.0,0.0,0.0,0.0,0.0,0.0,0.0,0.0,0.0,0.0,0.0,0.0,0.0,0.0,0.0,0.0,0.0,0.0,0.0,0.0,0.0,0.0,0.0,0.0,0.0,0.0,0.0,0.0,0.0,0.0,0.0,0.0,0.0,0.0,0.0,0.0,0.0,0.0,0.0,0.0,0.0,0.0,-2.5912,-2.5606,-2.5495,-2.569,-2.5569,-2.5065,0.0,0.0,0.0,0.0,0.0,0.0,0.0,0.0,0.0,0.0,0.0,0.0,0.0,0.0,0.0,0.0,0.0,0.0,0.0,0.0,0.0,0.0,0.0,0.0,0.0,0.0,0.0,0.0,0.0,0.0,0.0,0.0,0.0,0.0,0.0,0.0,0.0,0.0,0.0,0.0,0.0,0.0,0.0,0.0,0.0,0.0,0.0,0.0,0.0,0.0,0.0,0.0,0.0,0.0,0.0,0.0,0.0,0.0,0.0,0.0,0.0,0.0,0.0,0.0,0.0,0.0,0.0,0.0,0.0,0.0,0.0,0.0,0.0,0.0,0.0,0.0,0.0,0.0,0.0,0.0,0.0,0.0,0.0,0.0,0.0,0.0,0.0,0.0,0.0,0.0,0.0,0.0,0.0,0.0,0.0,0.0,0.0,0.0,0.0,0.0,0.0,0.0,0.0,0.0,0.0,0.0,0.0,0.0,-2.5558,-2.5579,-2.632,-2.7709,-2.8631,-2.8532,0.0,0.0,0.0,0.0,0.0,0.0,0.0,0.0,0.0,0.0,0.0,0.0,0.0,0.0,0.0,0.0,0.0,0.0,0.0,0.0,0.0,0.0,0.0,0.0,0.0,0.0,0.0,0.0,0.0,0.0,0.0,0.0,0.0,0.0,0.0,0.0,0.0,0.0,0.0,0.0,0.0,0.0,0.0,0.0,0.0,0.0,0.0,0.0,0.0,0.0,0.0,0.0,0.0,0.0,0.0,0.0,0.0,0.0,0.0,0.0,0.0,0.0,0.0,0.0,0.0,0.0,0.0,0.0,0.0,0.0,0.0,0.0,0.0,0.0,0.0,0.0,0.0,0.0,0.0,0.0,0.0,0.0,0.0,0.0,0.0,0.0,0.0,0.0,0.0,0.0,0.0,0.0,0.0,0.0,0.0,0.0,0.0,0.0,0.0,0.0,0.0,0.0,0.0,0.0,0.0,0.0,0.0,0.0,0.0,-2.5403,-2.5493,-2.6116,-2.7297,-2.7503,-2.708,0.0,0.0,0.0,0.0,0.0,0.0,0.0,0.0,0.0,0.0,0.0,0.0,0.0,0.0,0.0,0.0,0.0,0.0,0.0,0.0,0.0,0.0,0.0,0.0,0.0,0.0,0.0,0.0,0.0,0.0,0.0,0.0,0.0,0.0,0.0,0.0,0.0,0.0,0.0,0.0,0.0,0.0,0.0,0.0,0.0,0.0,0.0,0.0,0.0,0.0,0.0,0.0,0.0,0.0,0.0,0.0,0.0,0.0,0.0,0.0,0.0,0.0,0.0,0.0,0.0,0.0,0.0,0.0,0.0,0.0,0.0,0.0,0.0,0.0,0.0,0.0,0.0,0.0,0.0,0.0,0.0,0.0,0.0,0.0,0.0,0.0,0.0,0.0,0.0,0.0,0.0,0.0,0.0,0.0,0.0,0.0,0.0,0.0,0.0,0.0,0.0,0.0,0.0,0.0,0.0,0.0,0.0,0.0,0.0,-2.5815,0.0,-2.6745,-2.7551,-2.7474,-2.69,0.0,0.0,0.0,0.0,0.0,0.0,0.0,0.0,0.0,0.0,0.0,0.0,0.0,0.0,0.0,0.0,0.0,0.0,0.0,0.0,0.0,0.0,0.0,0.0,0.0,0.0,0.0,0.0,0.0,0.0,0.0,0.0,0.0,0.0,0.0,0.0,0.0,0.0,0.0,0.0,0.0,0.0,0.0,0.0,0.0,0.0,0.0,0.0,0.0,0.0,0.0,0.0,0.0,0.0,0.0,0.0,0.0,0.0,0.0,0.0,0.0,0.0,0.0,0.0,0.0,0.0,0.0,0.0,0.0,0.0,0.0,0.0,0.0,0.0,0.0,0.0,0.0,0.0,0.0,0.0,0.0,0.0,0.0,0.0,0.0,0.0,0.0,0.0,0.0,0.0,0.0,0.0,0.0,0.0,0.0,0.0,0.0,0.0,0.0,0.0,0.0,0.0,0.0,0.0,0.0,0.0,0.0,0.0,-2.6465,-2.6823,-2.7599,-2.8249,-2.8855,-2.8948,-2.8377,0.0,0.0,0.0,0.0,0.0,0.0,0.0,0.0,0.0,0.0,0.0,0.0,0.0,0.0,0.0,0.0,0.0,0.0,0.0,0.0,0.0,0.0,0.0,0.0,0.0,0.0,0.0,0.0,0.0,0.0,0.0,0.0,0.0,0.0,0.0,0.0,0.0,0.0,0.0,0.0,0.0,0.0,0.0,0.0,0.0,0.0,0.0,0.0,0.0,0.0,0.0,0.0,0.0,0.0,0.0,0.0,0.0,0.0,0.0,0.0,0.0,0.0,0.0,0.0,0.0,0.0,0.0,0.0,0.0,0.0,0.0,0.0,0.0,0.0,0.0,0.0,0.0,0.0,0.0,0.0,0.0,0.0,0.0,0.0,0.0,0.0,0.0,0.0,0.0,0.0,0.0,0.0,0.0,0.0,0.0,0.0,0.0,0.0,0.0,0.0,0.0,0.0,0.0,0.0,0.0,0.0,0.0,0.0,0.0,-2.7564,-2.7724,-2.8239,-2.9045,-2.8881,-2.8263,0.0,0.0,0.0,0.0,0.0,0.0,0.0,0.0,0.0,0.0,0.0,0.0,0.0,0.0,0.0,0.0,0.0,0.0,0.0,0.0,0.0,0.0,0.0,0.0,0.0,0.0,0.0,0.0,0.0,0.0,0.0,0.0,0.0,0.0,0.0,0.0,0.0,0.0,0.0,0.0,0.0,0.0,0.0,0.0,0.0,0.0,0.0,0.0,0.0,0.0,0.0,0.0,0.0,0.0,0.0,0.0,0.0,0.0,0.0,0.0,0.0,0.0,0.0,0.0,0.0,0.0,0.0,0.0,0.0,0.0,0.0,0.0,0.0,0.0,0.0,0.0,0.0,0.0,0.0,0.0,0.0,0.0,0.0,0.0,0.0,0.0,0.0,0.0,0.0,0.0,0.0,0.0,0.0,0.0,0.0,0.0,0.0,0.0,0.0,0.0,0.0,0.0,0.0,0.0,0.0,0.0,0.0,0.0,0.0,-2.8828,-2.8567,-2.881,-2.9612,-2.9419,-2.89,-2.7986,0.0,0.0,0.0,0.0,0.0,0.0,0.0,0.0,0.0,0.0,0.0,0.0,0.0,0.0,0.0,0.0,0.0,0.0,0.0,0.0,0.0,0.0,0.0,0.0,0.0,0.0,0.0,0.0,0.0,0.0,0.0,0.0,0.0,0.0,0.0,0.0,0.0,0.0,0.0,0.0,0.0,0.0,0.0,0.0,0.0,0.0,0.0,0.0,0.0,0.0,0.0,0.0,0.0,0.0,0.0,0.0,0.0,0.0,0.0,0.0,0.0,0.0,0.0,0.0,0.0,0.0,0.0,0.0,0.0,0.0,0.0,0.0,0.0,0.0,0.0,0.0,0.0,0.0,0.0,0.0,0.0,0.0,0.0,0.0,0.0,0.0,0.0,0.0,0.0,0.0,0.0,0.0,0.0,0.0,0.0,0.0,0.0,0.0,0.0,0.0,0.0,0.0,0.0,0.0,0.0,0.0,0.0,0.0,-3.0505,-3.0026,-2.9954,-3.0345,-3.0457,-3.0074,0.0,0.0,0.0,0.0,0.0,0.0,0.0,0.0,0.0,0.0,0.0,0.0,0.0,0.0,0.0,0.0,0.0,0.0,0.0,0.0,0.0,0.0,0.0,0.0,0.0,0.0,0.0,0.0,0.0,0.0,0.0,0.0,0.0,0.0,0.0,0.0,0.0,0.0,0.0,0.0,0.0,0.0,0.0,0.0,0.0,0.0,0.0,0.0,0.0,0.0,0.0,0.0,0.0,0.0,0.0,0.0,0.0,0.0,0.0,0.0,0.0,0.0,0.0,0.0,0.0,0.0,0.0,0.0,0.0,0.0,0.0,0.0,0.0,0.0,0.0,0.0,0.0,0.0,0.0,0.0,0.0,0.0,0.0,0.0,0.0,0.0,0.0,0.0,0.0,0.0,0.0,0.0,0.0,0.0,0.0,0.0,0.0,0.0,0.0,0.0,0.0,0.0,0.0,0.0,0.0,0.0,0.0,0.0,0.0,-3.0644,-3.1498,-3.1358,-3.0178,-3.0749,-3.04,0.0,0.0,0.0,0.0,0.0,0.0,0.0,0.0,0.0,0.0,0.0,0.0,0.0,0.0,0.0,0.0,0.0,0.0,0.0,0.0,0.0,0.0,0.0,0.0,0.0,0.0,0.0,0.0,0.0,0.0,0.0,0.0,0.0,0.0,0.0,0.0,0.0,0.0,0.0,0.0,0.0,0.0,0.0,0.0,0.0,0.0,0.0,0.0,0.0,0.0,0.0,0.0,0.0,0.0,0.0,0.0,0.0,0.0,0.0,0.0,0.0,0.0,0.0,0.0,0.0,0.0,0.0,0.0,0.0,0.0,0.0,0.0,0.0,0.0,0.0,0.0,0.0,0.0,0.0,0.0,0.0,0.0,0.0,0.0,0.0,0.0,0.0,0.0,0.0,0.0,0.0,0.0,0.0,0.0,0.0,0.0,0.0,0.0,0.0,0.0,0.0,0.0,0.0,0.0,0.0,0.0,0.0,0.0,-3.0179,-3.1127,-3.24,-3.252,-3.1458,-3.183,-3.1304,0.0,0.0,0.0,0.0,0.0,0.0,0.0,0.0,0.0,0.0,0.0,0.0,0.0,0.0,0.0,0.0,0.0,0.0,0.0,0.0,0.0,0.0,0.0,0.0,0.0,0.0,0.0,0.0,0.0,0.0,0.0,0.0,0.0,0.0,0.0,0.0,0.0,0.0,0.0,0.0,0.0,0.0,0.0,0.0,0.0,0.0,0.0,0.0,0.0,0.0,0.0,0.0,0.0,0.0,0.0,0.0,0.0,0.0,0.0,0.0,0.0,0.0,0.0,0.0,0.0,0.0,0.0,0.0,0.0,0.0,0.0,0.0,0.0,0.0,0.0,0.0,0.0,0.0,0.0,0.0,0.0,0.0,0.0,0.0,0.0,0.0,0.0,0.0,0.0,0.0,0.0,0.0,0.0,0.0,0.0,0.0,0.0,0.0,0.0,0.0,0.0,0.0,0.0,0.0,0.0,0.0,0.0,0.0,-3.0331,-3.1651,-3.2961,-3.3592,-3.3529,-3.325,-3.2414,0.0,0.0,0.0,0.0,0.0,0.0,0.0,0.0,0.0,0.0,0.0,0.0,0.0,0.0,0.0,0.0,0.0,0.0,0.0,0.0,0.0,0.0,0.0,0.0,0.0,0.0,0.0,0.0,0.0,0.0,0.0,0.0,0.0,0.0,0.0,0.0,0.0,0.0,0.0,0.0,0.0,0.0,0.0,0.0,0.0,0.0,0.0,0.0,0.0,0.0,0.0,0.0,0.0,0.0,0.0,0.0,0.0,0.0,0.0,0.0,0.0,0.0,0.0,0.0,0.0,0.0,0.0,0.0,0.0,0.0,0.0,0.0,0.0,0.0,0.0,0.0,0.0,0.0,0.0,0.0,0.0,0.0,0.0,0.0,0.0,0.0,0.0,0.0,0.0,0.0,0.0,0.0,0.0,0.0,0.0,0.0,0.0,0.0,0.0,0.0,0.0,0.0,0.0,0.0,0.0,0.0,0.0,0.0,-3.1064,-3.1419,-3.3842,-3.4856,-3.4269,-3.3939,-3.3035,0.0,0.0,0.0,0.0,0.0,0.0,0.0,0.0,0.0,0.0,0.0,0.0,0.0,0.0,0.0,0.0,0.0,0.0,0.0,0.0,0.0,0.0,0.0,0.0,0.0,0.0,0.0,0.0,0.0,0.0,0.0,0.0,0.0,0.0,0.0,0.0,0.0,0.0,0.0,0.0,0.0,0.0,0.0,0.0,0.0,0.0,0.0,0.0,-2.1556,0.0,0.0,0.0,0.0,0.0,0.0,0.0,0.0,0.0,0.0,0.0,0.0,0.0,0.0,0.0,0.0,0.0,0.0,0.0,0.0,0.0,0.0,0.0,0.0,0.0,0.0,0.0,0.0,0.0,0.0,0.0,0.0,0.0,0.0,0.0,0.0,0.0,0.0,0.0,0.0,0.0,0.0,0.0,0.0,0.0,0.0,0.0,0.0,0.0,0.0,0.0,0.0,0.0,0.0,0.0,0.0,0.0,0.0,0.0,-3.1099,-3.1851,-3.3956,-3.5064,-3.4996,-3.4256,-3.3399,0.0,0.0,0.0,0.0,0.0,0.0,0.0,0.0,0.0,0.0,0.0,0.0,0.0,0.0,0.0,0.0,0.0,0.0,0.0,0.0,0.0,0.0,0.0,0.0,0.0,0.0,0.0,0.0,0.0,0.0,0.0,0.0,0.0,0.0,0.0,0.0,0.0,0.0,0.0,0.0,0.0,0.0,0.0,0.0,0.0,0.0,0.0,0.0,0.0,0.0,0.0,0.0,0.0,0.0,0.0,0.0,0.0,0.0,0.0,0.0,0.0,0.0,0.0,0.0,0.0,0.0,0.0,0.0,0.0,0.0,0.0,0.0,0.0,0.0,0.0,0.0,0.0,0.0,0.0,0.0,0.0,0.0,0.0,0.0,0.0,0.0,0.0,0.0,0.0,0.0,0.0,0.0,0.0,0.0,0.0,0.0,0.0,0.0,0.0,0.0,0.0,0.0,0.0,0.0,0.0,0.0,0.0,-2.9293,-3.077,-3.2187,-3.3702,-3.4742,-3.5211,-3.427,-3.3718,-3.3701,0.0,0.0,0.0,0.0,0.0,0.0,0.0,0.0,0.0,0.0,0.0,0.0,0.0,0.0,0.0,0.0,0.0,0.0,0.0,0.0,0.0,0.0,0.0,0.0,0.0,0.0,0.0,0.0,0.0,0.0,0.0,0.0,0.0,0.0,0.0,0.0,0.0,0.0,-2.2558,-2.3022,0.0,0.0,0.0,0.0,0.0,0.0,0.0,0.0,-2.3389,0.0,0.0,0.0,0.0,0.0,0.0,0.0,0.0,0.0,0.0,0.0,0.0,0.0,0.0,0.0,0.0,0.0,0.0,0.0,0.0,0.0,0.0,0.0,0.0,0.0,0.0,0.0,0.0,0.0,0.0,0.0,0.0,0.0,0.0,0.0,0.0,0.0,0.0,0.0,0.0,0.0,0.0,0.0,0.0,0.0,0.0,0.0,0.0,0.0,0.0,0.0,0.0,0.0,0.0,0.0,0.0,-2.7701,-2.9166,-3.0403,-3.1416,-3.3427,-3.4252,-3.3812,-3.4138,-3.4298,-3.4144,0.0,0.0,0.0,0.0,0.0,0.0,0.0,0.0,0.0,0.0,0.0,0.0,0.0,0.0,0.0,0.0,0.0,0.0,0.0,0.0,0.0,0.0,0.0,0.0,0.0,0.0,0.0,0.0,0.0,0.0,0.0,0.0,0.0,0.0,0.0,0.0,0.0,0.0,0.0,-2.3702,-2.3833,0.0,0.0,0.0,0.0,0.0,0.0,0.0,0.0,-2.3346,0.0,0.0,0.0,0.0,0.0,0.0,0.0,0.0,0.0,0.0,0.0,0.0,0.0,0.0,0.0,0.0,0.0,0.0,0.0,0.0,0.0,0.0,0.0,0.0,0.0,0.0,0.0,0.0,0.0,0.0,0.0,0.0,0.0,0.0,0.0,0.0,0.0,0.0,0.0,0.0,0.0,0.0,0.0,0.0,0.0,0.0,0.0,0.0,0.0,0.0,0.0,0.0,0.0,0.0,0.0,-2.8182,-2.933,-3.0502,-3.1765,-3.3931,-3.4556,-3.3474,-3.4423,-3.474,0.0,0.0,0.0,0.0,0.0,0.0,0.0,0.0,0.0,0.0,0.0,0.0,0.0,0.0,0.0,0.0,0.0,0.0,0.0,0.0,0.0,0.0,0.0,0.0,0.0,0.0,0.0,0.0,0.0,0.0,0.0,0.0,0.0,0.0,0.0,0.0,0.0,0.0,0.0,0.0,-2.3826,-2.4087,-2.3658,0.0,0.0,0.0,0.0,0.0,0.0,-2.4823,-2.499,0.0,0.0,0.0,0.0,0.0,0.0,0.0,0.0,0.0,0.0,0.0,0.0,0.0,0.0,0.0,0.0,0.0,0.0,0.0,0.0,0.0,0.0,0.0,0.0,0.0,0.0,0.0,0.0,0.0,0.0,0.0,0.0,0.0,0.0,0.0,0.0,0.0,0.0,0.0,0.0,0.0,0.0,0.0,0.0,0.0,0.0,0.0,0.0,0.0,0.0,0.0,0.0,0.0,0.0,0.0,-2.863,-2.9194,-3.0299,-3.2053,-3.41,-3.4472,-3.3068,-3.4695,-3.5121,0.0,0.0,0.0,0.0,0.0,0.0,0.0,0.0,0.0,0.0,0.0,0.0,0.0,0.0,0.0,0.0,0.0,0.0,0.0,0.0,0.0,0.0,0.0,0.0,0.0,0.0,0.0,0.0,0.0,0.0,0.0,0.0,0.0,0.0,0.0,0.0,0.0,0.0,0.0,0.0,0.0,-2.4499,-2.4071,-2.4906,0.0,0.0,0.0,0.0,-2.6313,-2.6549,0.0,0.0,0.0,0.0,0.0,0.0,0.0,0.0,0.0,0.0,0.0,0.0,0.0,0.0,0.0,0.0,0.0,0.0,0.0,0.0,0.0,0.0,0.0,0.0,0.0,0.0,0.0,0.0,0.0,0.0,0.0,0.0,0.0,0.0,0.0,0.0,0.0,0.0,0.0,0.0,0.0,0.0,0.0,0.0,0.0,0.0,0.0,0.0,0.0,0.0,0.0,0.0,0.0,0.0,0.0,0.0,-2.8563,-2.8219,-2.9035,-3.1258,-3.2865,-3.2966,-3.1562,-3.4639,-3.535,0.0,0.0,0.0,0.0,0.0,0.0,0.0,0.0,0.0,0.0,0.0,0.0,0.0,0.0,0.0,0.0,0.0,0.0,0.0,0.0,0.0,0.0,0.0,0.0,0.0,0.0,0.0,0.0,0.0,0.0,0.0,0.0,0.0,0.0,0.0,0.0,0.0,0.0,0.0,0.0,0.0,-2.5599,-2.4803,-2.593,-2.6771,0.0,0.0,-2.6374,-2.6706,-2.738,0.0,0.0,0.0,0.0,0.0,0.0,0.0,0.0,0.0,0.0,0.0,0.0,0.0,0.0,0.0,0.0,0.0,0.0,0.0,0.0,0.0,0.0,0.0,0.0,0.0,0.0,0.0,0.0,0.0,0.0,0.0,0.0,0.0,0.0,0.0,0.0,0.0,0.0,0.0,0.0,0.0,0.0,0.0,0.0,0.0,0.0,0.0,0.0,0.0,0.0,0.0,0.0,0.0,0.0,0.0,-2.6182,-2.9166,-2.8289,-2.8887,-3.1123,-3.2645,-3.2696,-3.1258,-3.4572,-3.5331,0.0,0.0,0.0,0.0,0.0,0.0,0.0,0.0,0.0,0.0,0.0,0.0,0.0,0.0,0.0,0.0,0.0,0.0,0.0,0.0,0.0,0.0,0.0,0.0,0.0,0.0,0.0,0.0,0.0,0.0,0.0,0.0,0.0,0.0,0.0,0.0,0.0,0.0,0.0,0.0,0.0,0.0,-2.5747,-2.6626,0.0,0.0,0.0,-2.8054,-2.8056,0.0,0.0,0.0,0.0,0.0,0.0,0.0,0.0,0.0,0.0,0.0,0.0,0.0,0.0,0.0,0.0,0.0,0.0,0.0,0.0,0.0,0.0,0.0,0.0,0.0,0.0,0.0,0.0,0.0,0.0,0.0,0.0,0.0,0.0,0.0,0.0,0.0,0.0,0.0,0.0,0.0,0.0,0.0,0.0,0.0,0.0,0.0,0.0,0.0,0.0,0.0,0.0,0.0,0.0,0.0,0.0,0.0,-2.9683,-2.8494,-2.8906,-3.1123,-3.2459,-3.251,-3.1309,-3.418,0.0,0.0,0.0,0.0,0.0,0.0,0.0,0.0,0.0,0.0,0.0,0.0,0.0,0.0,0.0,0.0,0.0,0.0,0.0,0.0,0.0,0.0,0.0,0.0,0.0,0.0,0.0,-2.1006,0.0,0.0,0.0,0.0,0.0,0.0,0.0,0.0,0.0,0.0,0.0,0.0,0.0,0.0,-2.5749,-2.6352,-2.703,-2.7442,0.0,0.0,-2.9095,-2.8834,-2.8999,-2.8961,0.0,0.0,0.0,0.0,0.0,0.0,0.0,0.0,0.0,0.0,0.0,0.0,0.0,0.0,0.0,0.0,0.0,0.0,0.0,0.0,0.0,0.0,0.0,0.0,0.0,0.0,0.0,0.0,0.0,0.0,0.0,0.0,0.0,0.0,0.0,0.0,0.0,0.0,0.0,0.0,0.0,0.0,0.0,0.0,0.0,0.0,0.0,0.0,0.0,0.0,0.0,0.0,0.0,0.0,0.0,-2.9649,-2.8477,-2.8907,-3.1106,-3.1972,-3.2005,-3.1258,-3.3292,-3.4304,0.0,0.0,0.0,0.0,0.0,0.0,0.0,0.0,0.0,0.0,0.0,0.0,0.0,0.0,0.0,0.0,0.0,0.0,0.0,0.0,0.0,0.0,0.0,0.0,0.0,0.0,0.0,0.0,0.0,0.0,0.0,0.0,0.0,0.0,0.0,0.0,0.0,0.0,0.0,0.0,0.0,-2.6022,-2.6198,-2.7056,-2.7334,0.0,0.0,-2.8697,-2.8302,-2.902,-2.9192,-2.8067,0.0,0.0,0.0,0.0,0.0,0.0,0.0,0.0,0.0,0.0,0.0,0.0,0.0,0.0,0.0,0.0,0.0,0.0,0.0,0.0,0.0,0.0,0.0,0.0,0.0,0.0,0.0,0.0,0.0,0.0,0.0,0.0,0.0,0.0,0.0,0.0,0.0,0.0,0.0,0.0,0.0,0.0,0.0,0.0,0.0,0.0,0.0,0.0,0.0,0.0,0.0,0.0,0.0,-2.7957,-3.1039,-2.893,-2.8906,-3.1089,-3.1461,-3.1498,-3.1207,-3.2791,-3.3772,0.0,0.0,0.0,0.0,0.0,0.0,0.0,0.0,0.0,0.0,0.0,0.0,0.0,0.0,0.0,0.0,0.0,0.0,0.0,0.0,0.0,0.0,0.0,0.0,0.0,0.0,0.0,0.0,-2.2325,-2.3068,-2.3896,0.0,0.0,0.0,0.0,0.0,0.0,0.0,0.0,0.0,0.0,-2.6494,-2.6435,-2.6867,0.0,0.0,-2.816,-2.8984,-2.9378,-2.9528,-2.9507,-2.9295,-2.9826,0.0,0.0,0.0,0.0,0.0,0.0,0.0,0.0,0.0,0.0,0.0,0.0,0.0,0.0,0.0,0.0,0.0,0.0,0.0,0.0,0.0,0.0,0.0,0.0,0.0,0.0,0.0,0.0,0.0,0.0,0.0,0.0,0.0,0.0,0.0,0.0,0.0,0.0,0.0,0.0,0.0,0.0,0.0,0.0,0.0,0.0,0.0,0.0,0.0,0.0,0.0,0.0,-2.9128,-3.1964,-2.969,-2.9362,-3.1157,-3.119,-3.119,-3.1224,-3.2107,-3.2975,0.0,0.0,0.0,0.0,0.0,0.0,0.0,0.0,0.0,0.0,0.0,0.0,0.0,0.0,0.0,0.0,0.0,0.0,0.0,0.0,0.0,0.0,0.0,0.0,0.0,0.0,0.0,0.0,-2.3259,-2.4209,-2.5241,0.0,0.0,0.0,0.0,0.0,0.0,0.0,0.0,0.0,0.0,-2.6536,-2.7029,-2.7171,-2.757,-2.8518,-2.9438,-3.0182,-3.0392,-3.0174,-2.9919,-2.9803,0.0,0.0,0.0,0.0,0.0,0.0,0.0,0.0,0.0,0.0,0.0,0.0,0.0,0.0,0.0,0.0,0.0,0.0,0.0,0.0,0.0,0.0,0.0,0.0,0.0,0.0,0.0,0.0,0.0,0.0,-2.6256,0.0,0.0,0.0,0.0,0.0,0.0,0.0,0.0,0.0,0.0,0.0,0.0,0.0,0.0,0.0,0.0,0.0,0.0,0.0,0.0,0.0,0.0,-3.1119,-3.1993,-3.0735,-3.0429,-3.1173,-3.119,-3.1207,-3.119,-3.1241,-3.1891,-3.3232,0.0,0.0,0.0,0.0,0.0,0.0,0.0,0.0,0.0,0.0,0.0,0.0,0.0,0.0,0.0,0.0,0.0,0.0,0.0,0.0,0.0,0.0,0.0,0.0,0.0,0.0,-2.3257,-2.424,-2.4982,0.0,0.0,0.0,0.0,0.0,0.0,0.0,0.0,0.0,0.0,-2.6844,-2.6091,-2.7989,-2.8293,-2.8705,-3.0054,-3.1605,-3.2279,-3.1144,-3.0867,-3.0335,0.0,0.0,0.0,0.0,0.0,0.0,0.0,0.0,0.0,0.0,0.0,0.0,0.0,0.0,0.0,0.0,0.0,0.0,0.0,0.0,0.0,0.0,0.0,0.0,0.0,0.0,0.0,-2.8613,-2.8698,0.0,0.0,0.0,0.0,0.0,0.0,0.0,0.0,0.0,0.0,0.0,-3.0289,-3.074,0.0,0.0,0.0,0.0,0.0,0.0,0.0,0.0,0.0,0.0,0.0,0.0,-3.1859,-3.3801,-3.1907,-3.119,-3.1921,-3.1921,-3.1701,-3.1224,-3.1701,-3.2786,-3.4594,0.0,0.0,0.0,0.0,0.0,0.0,0.0,0.0,0.0,0.0,0.0,0.0,0.0,0.0,0.0,0.0,0.0,0.0,0.0,0.0,0.0,0.0,0.0,0.0,0.0,-2.5346,0.0,0.0,0.0,0.0,0.0,0.0,0.0,0.0,0.0,0.0,0.0,-2.8838,-2.889,-2.8977,-2.9115,-2.9329,-2.901,-2.8848,0.0,0.0,0.0,0.0,0.0,0.0,0.0,0.0,0.0,0.0,0.0,0.0,0.0,0.0,-2.8383,-2.7186,-2.6343,-2.5897,-2.619,0.0,0.0,0.0,0.0,0.0,0.0,0.0,0.0,0.0,0.0,0.0,0.0,0.0,0.0,0.0,0.0,-3.0824,0.0,0.0,0.0,0.0,0.0,0.0,0.0,0.0,-3.1424,-3.2056,-3.2148,-3.2934,-3.3367,0.0,-3.3767,-3.3155,0.0,0.0,0.0,0.0,0.0,0.0,0.0,0.0,-3.3223,-3.4841,-3.2992,-3.2205,-3.2628,-3.2429,-3.2192,-3.1985,-3.2425,-3.3334,-3.4661,-3.6021,-3.6666,0.0,0.0,0.0,0.0,0.0,0.0,0.0,0.0,0.0,0.0,0.0,0.0,0.0,0.0,0.0,0.0,0.0,0.0,0.0,0.0,0.0,0.0,0.0,-2.6719,0.0,0.0,0.0,0.0,0.0,0.0,0.0,0.0,0.0,-2.7606,-2.8818,-2.96,-2.8998,-2.9648,-3.0375,-3.0872,0.0,0.0,0.0,0.0,0.0,0.0,0.0,-3.2859,-3.3357,-3.2622,-3.1657,-3.066,-2.9769,-2.9242,-2.9172,0.0,0.0,-2.758,-2.713,-2.7056,-2.7593,-2.7384,-2.7102,-2.7058,-2.6818,-2.6577,0.0,0.0,0.0,0.0,0.0,0.0,0.0,0.0,-3.1528,-3.1664,0.0,-3.169,0.0,0.0,0.0,0.0,0.0,0.0,0.0,0.0,-3.4498,-3.5155,-3.4387,-3.5155,-3.52,-3.4571,-3.5121,-3.5002,-3.4264,-3.356,0.0,0.0,0.0,0.0,0.0,0.0,-3.5182,-3.5024,-3.3989,-3.344,-3.3423,-3.2713,-3.2666,-3.3339,-3.3372,-3.344,-3.352,-3.4762,-3.5435,-3.5446,-3.6861,0.0,0.0,0.0,0.0,0.0,0.0,0.0,0.0,0.0,0.0,0.0,0.0,0.0,0.0,0.0,0.0,0.0,0.0,0.0,0.0,-2.708,0.0,0.0,0.0,0.0,0.0,0.0,0.0,0.0,0.0,0.0,-2.9128,-2.9402,-2.9517,-2.9201,0.0,0.0,0.0,0.0,-3.3153,-3.6835,-3.7858,-3.7604,-3.6399,-3.4942,-3.3483,-3.23,0.0,0.0,-2.9361,-3.0084,-3.0369,-2.9639,-2.8944,-2.8541,-2.879,-2.8756,-2.8878,-2.9215,-2.8398,-2.779,-2.7777,-2.7133,-2.6603,-3.5699,0.0,0.0,0.0,0.0,-3.3444,-3.4155,-3.5302,-3.5285,-3.5083,-3.466,-3.4572,0.0,0.0,0.0,0.0,0.0,0.0,-3.4054,-3.4616,-3.587,-3.6309,-3.6095,-3.6861,-3.7097,-3.6912,-3.7074,-3.6764,-3.6078,-3.5841,-3.5675,-3.5557,0.0,0.0,0.0,0.0,-3.5964,-3.5873,-3.479,-3.4184,-3.4184,-3.3457,-3.3186,-3.3389,-3.3389,-3.3897,-3.4923,-3.5341,-3.57,-3.6035,-3.6461,0.0,0.0,0.0,0.0,0.0,0.0,0.0,0.0,0.0,0.0,0.0,0.0,0.0,0.0,0.0,0.0,0.0,0.0,0.0,-2.9075,-2.921,-2.9602,0.0,0.0,0.0,0.0,0.0,0.0,0.0,0.0,0.0,-3.0781,-3.2148,-3.3086,0.0,0.0,-3.4971,-3.6035,-3.5019,-3.4352,-3.4857,0.0,0.0,0.0,-3.3107,-3.3272,-3.329,-3.156,-3.0145,-3.016,-2.9414,-2.8882,-2.9077,-2.9462,-2.9779,-2.9774,-2.9047,-2.8656,-2.8919,-2.8336,-2.7749,-2.7704,-2.7072,-2.6692,-3.9755,-3.7965,-3.649,-3.6038,-3.6296,-3.6293,-3.6778,-3.7614,-3.7614,-3.7285,-3.6735,-3.6656,-3.6055,-3.5049,-3.455,0.0,0.0,0.0,-3.5712,-3.6529,-3.7313,-3.7675,-3.7726,-3.843,-3.8616,-3.8362,-3.8633,-3.8227,-3.7246,-3.7845,-3.7667,-3.6841,0.0,0.0,-3.7053,-3.6618,-3.6346,-3.6272,-3.5419,-3.4945,-3.4945,-3.4523,-3.4134,-3.3846,-3.4095,-3.4687,-3.5566,-3.5616,-3.5734,-3.6011,-3.6202,-3.6288,0.0,0.0,0.0,0.0,0.0,0.0,0.0,0.0,0.0,0.0,0.0,-2.791,-2.7749,0.0,0.0,0.0,-2.8978,-2.9791,-3.0823,-3.0899,0.0,0.0,0.0,0.0,0.0,0.0,0.0,-3.2821,-3.2479,-3.2249,-3.2456,-3.3864,-3.4441,-3.3354,-3.4239,-3.5292,-3.6093,0.0,-3.4324,-3.4527,-3.462,-3.4257,-3.3081,-3.2883,-3.2836,-3.2509,-3.1634,-3.0793,-3.0485,-2.9623,-2.9167,-2.9541,-3.0029,-3.0456,-3.0719,-2.9869,-2.9284,-2.9838,-2.9034,-2.833,-2.8652,-2.7802,-2.7217,-4.3946,-4.2991,-3.9526,-3.84,-3.8858,-3.8817,-3.8833,-3.8955,-3.8981,-3.8675,-3.8142,-3.8028,-3.7614,-3.691,-3.6067,0.0,-3.6801,-3.6801,-3.7253,-3.8084,-3.8768,-3.9073,-3.9123,-3.9791,-3.9757,-3.9131,-3.9791,-3.936,-3.8108,-3.9351,-3.926,-3.7821,-3.7074,-3.6906,-3.7228,-3.6956,-3.6659,-3.6382,-3.5986,-3.5684,-3.5515,-3.5498,-3.5199,-3.4506,-3.5165,-3.5532,-3.5583,-3.5616,-3.5616,-3.5633,-3.6011,-3.6191,-3.613,0.0,0.0,0.0,0.0,0.0,0.0,0.0,0.0,0.0,0.0,0.0,0.0,0.0,0.0,0.0,-3.041,0.0,-3.1981,-3.227,0.0,0.0,0.0,-3.3363,-3.3512,-3.3467,-3.3375,-3.3199,0.0,0.0,-3.3888,0.0,-3.4047,-3.1389,-3.186,-3.2926,-3.4146,-3.3591,-3.3502,-3.5177,-3.5513,-3.5365,-3.4319,-3.3381,-3.2147,-3.0863,-3.0928,-3.1019,-3.0511,-3.0362,-3.0389,-3.0572,-3.0569,-3.0718,-3.1331,-3.0811,-3.0672,-3.1081,-3.0034,-2.9264,-2.9805,-2.8852,-2.8084,-4.5383,-4.5092,-4.3597,-4.2264,-4.112,-4.11,-4.1085,-4.1085,-4.1277,-4.062,-3.937,-3.8925,-3.8352,-3.7642,-3.7425,-3.7746,-3.8415,-3.8422,-3.8828,-3.9571,-3.9757,-3.9842,-3.9859,-4.0028,-4.0028,-3.9859,-4.0028,-3.9639,-3.8768,-3.9073,-3.9073,-3.8685,-3.85,-3.8286,-3.8077,-3.874,-3.8463,-3.7151,-3.7266,-3.6502,-3.4827,-3.4759,-3.4675,-3.4489,-3.4658,-3.503,-3.5566,-3.5616,-3.5616,-3.5616,-3.5723,-3.5923,-3.6241,-3.6108,0.0,0.0,0.0,0.0,0.0,0.0,0.0,0.0,0.0,-3.0773,-3.125,0.0,-3.1377,0.0,-3.2626,-3.2766,-3.2552,-3.3121,0.0,0.0,-3.4865,-3.5033,-3.5459,-3.3946,-3.3378,-3.4669,-3.3472,-3.2707,-3.3304,-3.3532,-3.3133,-3.1649,-3.3299,-3.4906,-3.5321,-3.4206,-3.3532,-3.403,-3.3352,-3.2541,-3.2435,-3.2076,-3.1387,-3.0041,-2.9968,-2.9968,-2.9819,-2.9831,-3.0103,-3.1002,-3.1256,-3.1137,-3.0821,-3.0597,-3.0372,-3.0108,-2.9609,-2.9281,-2.9489,-2.9075,-2.8939,-4.6434,-4.6342,-4.5186,-4.4309,-4.363,-4.2908,-4.2324,-4.1825,-4.196,-4.125,-3.9928,-3.9617,-3.9259,-3.8886,-3.8886,-3.9106,-3.9462,-3.9503,-3.9723,-4.0096,-4.0113,-4.0113,-4.0113,-4.0113,-4.0113,-4.0113,-4.0113,-3.9893,-3.9503,-3.9486,-3.9334,-3.9005,-3.8988,-3.8967,-3.8929,-3.9605,-3.9548,-3.8614,-3.8138,-3.6935,-3.5098,-3.5334,-3.5611,-3.5795,-3.6217,-3.6676,-3.7273,-3.7289,-3.7314,-3.7386,-3.7314,-3.7425,-3.7753,-3.7673,-3.7236,0.0,0.0,0.0,0.0,0.0,0.0,0.0,0.0,0.0,0.0,0.0,-3.262,-3.3289,-3.3712,-3.3907,-3.3744,-3.4318,-3.491,-3.5491,-3.5552,-3.5642,-3.5879,-3.4201,-3.3446,-3.4409,-3.3136,-3.2348,-3.2823,-3.2884,-3.2661,-3.2034,-3.296,-3.377,-3.3802,-3.3111,-3.2661,-3.2721,-3.2032,-3.1496,-3.1496,-3.1496,-3.1152,-3.0268,-3.0253,-3.0283,-2.9714,-2.9819,-3.0148,-3.0582,-3.0672,-3.0524,-3.0163,-3.0088,-2.9996,-2.9762,-2.9725,-2.9811,-2.9841,-2.9459,-2.9428,-4.7241,-4.7094,-4.5498,-4.5259,-4.5792,-4.4176,-4.294,-4.2021,-4.2065,-4.1351,-4.0204,-4.0121,-4.0113,-4.0096,-4.0179,-4.0171,-4.0113,-4.0154,-4.0171,-4.0113,-4.0113,-4.0113,-4.0113,-4.0113,-4.0113,-4.0113,-4.0113,-4.0113,-4.0113,-4.0113,-3.9825,-3.9292,-3.93,-3.9488,-3.9921,-4.0238,-4.0392,-4.0367,-3.8828,-3.7374,-3.605,-3.676,-3.7333,-3.7711,-3.8564,-3.9167,-3.9408,-3.9498,-3.9578,-3.9635,-3.9504,-3.947,-3.9518,-3.966,-3.9111,0.0,-3.7697,0.0,0.0,0.0,0.0,0.0,0.0,0.0,0.0,-3.4392,-3.4091,-3.3788,-3.4326,-3.4734,-3.491,-3.5374,-3.5735,-3.591,-3.5767,-3.5621,-3.5492,-3.4397,-3.3619,-3.3634,-3.3036,-3.2617,-3.2662,-3.2572,-3.2497,-3.2407,-3.2004,-3.1765,-3.157,-3.1615,-3.16,-3.1496,-3.1496,-3.1496,-3.1496,-3.1496,-3.1227,-3.0614,-3.0717,-3.0823,-2.9636,-2.9834,-3.0088,-2.9756,-2.9711,-2.9636,-2.949,-2.9547,-2.9577,-2.9472,-2.9866,-3.0302,-3.038,-3.0088,-3.0032,-4.8086,-4.7921,-4.6361,-4.5755,-4.5755,-4.4176,-4.3392,-4.3196,-4.3419,-4.2463,-4.075,-4.0286,-4.0113,-4.0121,-4.0552,-4.0504,-4.0121,-4.057,-4.0504,-4.0113,-4.0113,-4.0113,-4.0113,-4.0113,-4.0113,-4.0113,-4.0113,-4.0113,-4.0113,-4.0113,-4.035,-4.0781,-4.0798,-4.111,-4.175,0.0,0.0,0.0,-3.9767,-3.8495,-3.8242,-3.8757,-3.9091,-3.9207,-3.9936,0.0,-3.9633,-4.0141,-4.027,-3.984,-3.9661,0.0,0.0,0.0,0.0,0.0,0.0,0.0,0.0,0.0,0.0,0.0,-3.688,-3.6718,-3.6848,-3.6535,-3.6012,-3.529,-3.5241,-3.5117,-3.4673,-3.5164,-3.5569,-3.5602,-3.5554,-3.5522,-3.5474,-3.4771,-3.4324,-3.4309,-3.3694,-3.3305,-3.329,-3.2856,-3.2497,-3.2527,-3.1929,-3.1525,-3.154,-3.154,-3.1496,-3.1496,-3.1496,-3.1496,-3.1496,-3.1496,-3.1107,-3.0148,-2.9819,-2.9684,-2.9026,-2.8876,-2.919,-2.9415,-2.9621,-2.937,-2.8921,-2.919,-2.9457,-2.8906,-2.934,-2.9909,-3.0402,-3.0827,-3.1173,-4.7718,0.0,-4.5975,-4.5535,0.0,-4.4194,-4.3479,-4.3498,-4.3356,-4.256,-4.1335,-4.1076,-4.0938,-4.0961,-4.1201,-4.1036,-4.0504,-4.078,-4.0607,-4.0096,-4.0113,-4.0113,-4.0113,-4.0113,-4.0113,-4.0113,-4.0113,-4.0113,-4.0113,-4.0113,-4.0299,-4.0646,-4.0646,-4.0832,-4.1187,-4.123,-4.1221,-4.1221,-4.0045,-3.9101,-3.8409,-3.8958,-3.9395,-3.9618,0.0,0.0,0.0,0.0,0.0,0.0,0.0,0.0,0.0,0.0,0.0,-3.9002,-3.8917,-3.8721,-3.8238,-3.8008,-3.8183,-3.874,-3.8774,-3.8477,-3.7794,-3.7482,-3.7004,-3.6165,-3.5714,-3.5355,-3.504,-3.5295,-3.5489,-3.5489,-3.5489,-3.5489,-3.5429,-3.4891,-3.4503,-3.4488,-3.4219,-3.4009,-3.3963,-3.341,-3.317,-3.3365,-3.2632,-3.2108,-3.2362,-3.1899,-3.1496,-3.1496,-3.1496,-3.1496,-3.1496,-3.1496,-3.1197,-3.0298,-3.0043,-2.9639,-2.8757,-2.8592,-2.8637,-2.8663,-2.8618,-2.8573,-2.8697,-2.9131,-2.9606,-2.9609,-3.0088,-3.0597,-3.0956,-3.0987,-3.1122,-4.7314,-4.7186,-4.5736,-4.5498,-4.5975,-4.4378,-4.3626,-4.3462,0.0,0.0,0.0,-4.1853,-4.181,-4.181,-4.1916,-4.1578,-4.0926,-4.1018,-4.0703,-4.0096,-4.0113,-4.0113,-4.0113,-4.0113,-4.0113,-4.0113,-4.0113,-4.0113,-4.0113,-4.0113,-4.0113,-4.0113,-4.0113,-4.0113,-4.0113,-4.0113,-4.0087,-4.0096,-4.0189,-3.9665,-3.8516,-3.9134,-3.9665,-3.9976,-4.0879,-4.1429,-4.1616,-4.1783,-4.1883,-4.1904,-4.1749,-4.1683,-4.1774,-4.1604,-4.1188,-4.0548,-4.0275,-4.002,-3.9763,-3.9635,-3.9696,-4.007,-4.0113,-3.961,-3.8453,-3.8133,-3.7674,-3.6889,-3.6149,-3.5651,-3.5489,-3.5489,-3.5489,-3.5489,-3.5489,-3.5489,-3.5474,-3.5058,-3.4728,-3.4683,-3.4698,-3.4683,-3.4637,-3.4083,-3.3844,-3.4204,-3.3395,-3.2781,-3.308,-3.2377,-3.1675,-3.154,-3.1496,-3.1496,-3.1496,-3.1496,-3.1227,-3.0597,-3.0462,-3.0073,-2.9131,-2.8771,-2.8532,-2.8274,-2.7959,-2.8274,-2.8712,-2.9355,-2.9894,-3.0402,-3.1017,-3.1496,-3.1451,-3.1062,-3.0926,-4.8141,-4.8067,-4.7131,-4.6819,-4.6801,-4.5205,-4.414,-4.3463,-4.2939,-4.2655,-4.2557,-4.2021,-4.181,-4.1832,-4.2342,-4.1958,-4.0949,-4.1446,-4.1105,0.0,-4.0113,-4.0113,-4.0113,-4.0113,-4.0113,-4.0113,-4.0113,-4.0113,-4.0113,-4.0113,-4.0113,-4.0113,-4.0113,-4.0113,-4.0113,-4.0113,-4.0113,-4.013,-4.0601,-4.0776,-4.0574,-4.1157,-4.1513,-4.1619,-4.2272,-4.244,-4.1882,-4.2434,-4.2557,-4.2085,-4.1931,-4.1701,-4.1319,-4.1163,-4.08,-4.0248,-4.0138,-4.007,-4.0054,-4.0037,-4.002,-4.0096,-4.0113,-4.002,-3.9808,-3.9139,-3.8442,-3.769,-3.6919,-3.6165,-3.5604,-3.5522,-3.5522,-3.5489,-3.5489,-3.5489,-3.5489,-3.5415,-3.5325,-3.531,-3.5355,-3.5325,-3.5235,-3.4711,-3.4354,-3.4384,-3.3933,-3.326,-3.2841,-3.2512,-3.2108,-3.166,-3.1496,-3.1496,-3.1496,-3.1496,-3.1241,-3.0612,-3.0522,-3.0283,-2.9594,-2.9385,-2.931,-2.9307,-2.9187,-2.9292,-2.9445,-2.9953,-3.0342,-3.0582,-3.1062,-3.1421,-3.1466,-3.1361,-3.1346,-4.8324,-4.8195,-4.7424,-4.7094,-4.7003,-4.5865,-4.5149,-4.4783,-4.4546,-4.3943,-4.3124,-4.2829,-4.2542,-4.2322,-4.2577,-4.2041,-4.0903,-4.1178,-4.0891,-4.0121,-4.0113,-4.0113,-4.0113,-4.0113,-4.0113,-4.0113,-4.0113,-4.0113,-4.0113,-4.0113,-4.0113,-4.0113,-4.0113,-4.0113,-4.0113,-4.0113,-4.0113,-4.0113,-4.0375,-4.0492,-4.0509,-4.0778,-4.092,-4.092,-4.1264,-4.1264,-4.0954,-4.1274,-4.1317,-4.1041,-4.0946,-4.0837,-4.0612,-4.0544,-4.0392,-4.013,-4.0113,-4.0113,-4.0113,-4.0113,-4.0113,-4.0113,-4.0113,-4.0113,-4.0113,-3.9368,-3.8772,-3.843,-3.7687,-3.6919,-3.6196,-3.6117,-3.5943,-3.5522,-3.5489,-3.5489,-3.5489,-3.5489,-3.5489,-3.5489,-3.5489,-3.5489,-3.5489,-3.4906,-3.4683,-3.4891,-3.4726,-3.4203,-3.3215,-3.3036,-3.2677,-3.1735,-3.1496,-3.1496,-3.1511,-3.1496,-3.1361,-3.1062,-3.0746,-3.0432,-3.0088,-2.9864,-2.9624,-2.9621,-2.9621,-2.9756,-3.0011,-3.0298,-3.0612,-3.0987,-3.0911,-3.1077,-3.1361,-3.1496,-3.1376,-4.8416,-4.8526,-4.77,-4.7278,-4.7058,-4.6434,-4.6085,-4.5902,-4.5883,-4.5132,-4.3943,-4.3775,-4.3378,-4.275,-4.2826,-4.2226,-4.1206,-4.111,-4.0803,-4.0311,-4.0262,-4.0204,-4.0104,-4.0204,-4.0204,-4.0121,-4.0113,-4.0113,-4.0113,-4.0113,-4.0113,-4.0113,-4.0113,-4.0113,-4.0113,-4.0113,-4.0113,-4.0113,-4.0113,-4.0113,-4.0113,-4.0113,-4.0113,-4.0113,-4.0113,-4.0113,-4.0113,-4.0113,-4.0113,-4.0113,-4.0113,-4.0113,-4.0113,-4.0113,-4.0113,-4.0113,-4.0113,-4.0113,-4.0113,-4.0113,-4.0113,-4.0113,-4.0113,-4.0113,-4.0045,-3.9558,-3.9069,-3.8881,-3.8374,-3.7703,-3.704,-3.6889,-3.6631,-3.6085,-3.5846,-3.5767,-3.575,-3.5619,-3.5489,-3.5489,-3.5489,-3.5489,-3.54,-3.504,-3.4951,-3.5355,-3.5489,-3.4966,-3.3829,-3.3589,-3.317,-3.2138,-3.163,-3.1615,-3.1645,-3.157,-3.1511,-3.1496,-3.1092,-3.0823,-3.0672,-3.0328,-3.0088,-3.0133,-3.0088,-3.0283,-3.0642,-3.0746,-3.0896,-3.1092,-3.0823,-3.0672,-3.0868,-3.1122,-3.1197,-4.8765,-4.9298,-4.8526,-4.7755,-4.7149,-4.7021,-4.6617,-4.5993,-4.592,-4.5513,-4.4912,-4.4675,-4.3889,-4.2861,-4.3196,-4.2806,-4.1739,-4.1725,-4.1415,-4.0885,-4.081,-4.0577,-4.0264,-4.0635,-4.0577,-4.0222,-4.0206,-4.0282,-4.0231,-4.0163,-4.013,-4.0113,-4.0113,-4.0113,-4.0113,-4.0113,-4.0113,-4.0113,-4.0113,-4.0113,-4.0113,-4.0113,-4.0113,-4.0113,-4.0113,-4.0113,-4.0113,-4.0113,-4.0113,-4.0113,-4.0113,-4.0113,-4.0113,-4.0113,-4.0113,-4.0113,-4.0113,-4.0113,-4.0113,-4.0113,-4.0113,-4.0113,-4.0113,-4.0113,-4.0113,-4.002,-3.9662,-3.9113,-3.8854,-3.8469,-3.7806,-3.7706,-3.7618,-3.7383,-3.6859,-3.6508,-3.6446,-3.5894,-3.5489,-3.5489,-3.5522,-3.5489,-3.5474,-3.5385,-3.54,-3.5474,-3.5489,-3.512,-3.4073,-3.4118,-3.4105,-3.2841,-3.2003,-3.1854,-3.2153,-3.1854,-3.157,-3.1496,-3.1451,-3.1331,-3.1241,-3.1256,-3.1286,-3.0971,-3.1167,-3.1197,-3.1271,-3.1376,-3.1167,-3.0791,-3.0552,-3.0357,-3.0013,-3.0283,-3.0717,-4.9205,-4.9462,-4.8655,-4.8103,-4.781,-4.781,-4.7627,-4.7333,-4.7315,-4.6907,-4.6279,-4.6158,-4.4963,-4.3098,-4.3987,-4.3553,-4.2083,-4.2829,-4.2637,-4.1771,-4.2427,-4.2343,-4.1563,-4.2397,-4.235,-4.1486,-4.1792,-4.1775,-4.1383,-4.095,-4.0747,-4.0705,-4.0333,-4.0113,-4.0113,-4.0113,-4.0113,-4.0113,-4.0113,-4.0113,-4.0113,-4.0113,-4.0113,-4.0113,-4.0113,-4.0113,-4.0113,-4.0113,-4.0113,-4.0113,-4.0113,-4.0113,-4.0113,-4.0113,-4.0113,-4.0113,-4.0113,-4.0113,-4.0113,-4.0113,-4.0113,-4.0113,-4.0113,-4.0113,-4.0113,-4.0113,-3.9944,-3.9688,-3.961,-3.9289,-3.8596,-3.8442,-3.829,-3.7863,-3.7485,-3.7308,-3.7308,-3.66,-3.6165,-3.6134,-3.5782,-3.5489,-3.5489,-3.5489,-3.5489,-3.5489,-3.5489,-3.5262,-3.4775,-3.4988,-3.5106,-3.4889,-3.3803,-3.2752,-3.2555,-3.1929,-3.1585,-3.1496,-3.1496,-3.1496,-3.1496,-3.1496,-3.1481,-3.1496,-3.1496,-3.1496,-3.1451,-3.1451,-3.1301,-3.0657,-3.0103,-2.9891,-2.9651,-3.0073,-3.0688,-4.9664,-4.9682,-4.8746,-4.8324,-4.8324,-4.8324,-4.8324,-4.8324,-4.8324,-4.7899,-4.7233,-4.7349,-4.6191,-4.4395,-4.4952,-4.4411,-4.3193,-4.3992,-4.3913,-4.3089,-4.3992,-4.3862,-4.3001,-4.3908,-4.3885,-4.3034,-4.3287,-4.3182,-4.2543,-4.1831,-4.1407,-4.1153,-4.0646,-4.0299,-4.013,-4.0113,-4.0113,-4.0113,-4.0113,-4.0113,-4.0113,-4.0113,-4.0113,-4.0113,-4.0113,-4.0113,-4.0113,-4.0113,-4.0113,-4.0113,-4.0113,-4.0154,-4.0311,-4.0336,-4.0336,-4.0336,-4.0336,-4.0254,-4.0121,-4.0113,-4.0113,-4.0113,-4.0113,-4.0113,-4.0113,-4.0113,-4.0113,-4.007,-4.0113,-3.9808,-3.9385,-3.9236,-3.8978,-3.8486,-3.8262,-3.8064,-3.7777,-3.71,-3.6492,-3.6306,-3.5782,-3.5489,-3.5489,-3.5489,-3.5489,-3.5489,-3.5686,-3.5715,-3.575,-3.5895,-3.6313,-3.6422,-3.5096,-3.4052,-3.3226,-3.2411,-3.1888,-3.1582,-3.1611,-3.1796,-3.1582,-3.1496,-3.1496,-3.1496,-3.1496,-3.1466,-3.1436,-3.1406,-3.0898,-3.0208,-2.9639,-2.9262,-2.8918,-2.9535,-3.0163,-5.0051,-5.0435,-4.8985,-4.8343,-4.8324,-4.8324,-4.8324,-4.8398,-4.8324,-4.7961,-4.7526,-4.7964,-4.7485,-4.6223,-4.6043,-4.5567,-4.4985,-4.5111,-4.5073,-4.4883,-4.5093,-4.4752,-4.4179,-4.4755,-4.4767,-4.4188,-4.4228,-4.3916,-4.3264,-4.2577,-4.188,-4.1238,-4.117,-4.0781,-4.0214,-4.0163,-4.0113,-4.0113,-4.0113,-4.0113,-4.0113,-4.0113,-4.0113,-4.0113,-4.0113,-4.0113,-4.0113,-4.0113,-4.0113,-4.0113,-4.0121,-4.0343,-4.0797,-4.0856,-4.0856,-4.0833,-4.085,-4.0625,-4.0179,-4.0113,-4.0113,-4.0113,-4.0113,-4.0113,-4.0113,-4.0113,-4.0113,-4.0113,-4.0113,-4.0045,-3.9995,-3.9901,-3.9927,-3.9782,-3.9236,-3.8553,-3.7892,-3.713,-3.6337,-3.5831,-3.5587,-3.5489,-3.5489,-3.5489,-3.5587,-3.5733,-3.6117,-3.6429,-3.6218,-3.6909,-3.7086,-3.64,-3.5792,-3.5312,-3.4632,-3.3364,-3.2329,-3.2068,-3.2234,-3.2295,-3.184,-3.1496,-3.1525,-3.1496,-3.1496,-3.1466,-3.1376,-3.0898,-3.0133,-2.946,-2.8936,-2.8517,-2.8483,-2.8487,-2.919,-4.9903,-4.915,-4.8563,-4.8618,-4.9058,-4.8545,-4.8618,-4.9058,-4.8526,-4.8191,-4.8035,-4.8229,-4.8037,-4.762,-4.7491,-4.6846,-4.597,-4.6726,-4.6688,-4.6008,-4.6726,-4.66,-4.5782,-4.6641,-4.66,-4.5737,-4.5599,-4.5093,-4.4126,-4.3376,-4.2625,-4.2016,-4.1897,-4.1322,-4.04,-4.0578,-4.0603,-4.0163,-4.0113,-4.0113,-4.0113,-4.0113,-4.0113,-4.0113,-4.0113,-4.0113,-4.0113,-4.0113,-4.0113,-4.0113,-4.0417,-4.0703,-4.0903,-4.1251,-4.1291,-4.0949,-4.0903,-4.0655,-4.0179,-4.0113,-4.0113,-4.0113,-4.0113,-4.0113,-4.0113,-4.0113,-4.0113,-4.0113,-4.0113,-4.0113,-4.0113,-4.0113,-4.0113,-3.9995,-3.9385,-3.8799,-3.8342,-3.7395,-3.6492,-3.6196,-3.5846,-3.5489,-3.5604,-3.5894,-3.6196,-3.629,-3.6874,-3.7327,-3.7729,-3.824,-3.8394,-3.8324,-3.7688,-3.6892,-3.6153,-3.4335,-3.3094,-3.2991,-3.299,-3.2748,-3.2362,-3.2093,-3.2079,-3.1555,-3.1496,-3.1421,-3.1316,-3.0644,-2.9819,-2.943,-2.8861,-2.8502,-2.8244,-2.8697,-2.934,-5.0362,-4.9205,-4.9114,-4.9444,-4.9866,-4.937,-4.9444,-4.9886,-4.9095,-4.8728,-4.8691,-4.8453,-4.8324,-4.8324,-4.8324,-4.782,-4.7009,-4.7876,-4.7782,-4.7028,-4.7857,-4.7838,-4.7281,-4.7899,-4.7858,-4.7026,-4.6571,-4.5865,-4.492,-4.4139,-4.3522,-4.303,-4.2775,-4.2164,-4.1299,-4.1197,-4.0933,-4.0519,-4.0248,-4.0113,-4.0113,-4.0113,-4.0113,-4.0113,-4.0113,-4.0113,-4.0096,-4.0262,-4.0368,-4.0441,-4.0914,-4.1291,-4.1512,-4.2024,-4.1985,-4.1313,-4.1201,-4.085,-4.0229,-4.0113,-4.0113,-4.0113,-4.0113,-4.0113,-4.0113,-4.0113,-4.0113,-4.0113,-4.0113,-4.0113,-4.0113,-4.0113,-4.0113,-4.0003,-3.9368,-3.8799,-3.8497,-3.735,-3.6584,-3.6165,-3.5782,-3.5604,-3.5863,-3.6306,-3.6646,-3.6934,-3.769,-3.8386,-3.8772,-3.9166,-3.9272,-3.9577,-3.8801,-3.7741,-3.687,-3.5395,-3.397,-3.3713,-3.3698,-3.3397,-3.2916,-3.2706,-3.2362,-3.1793,-3.148,-3.1405,-3.1031,-3.0402,-2.9968,-2.9651,-2.9292,-2.8918,-2.8992,-2.9247,-2.9744,-5.1481,-5.0729,-5.0784,-5.0692,-5.0765,-5.0637,-5.0729,-5.0655,-4.9939,-4.9592,-4.9519,-4.8802,-4.86,-4.8453,-4.8526,-4.8323,-4.8285,-4.8305,-4.8249,-4.8137,-4.825,-4.8287,-4.8152,-4.8229,-4.8172,-4.7858,-4.6937,-4.6063,-4.5329,-4.4749,-4.4374,-4.4174,-4.3622,-4.318,-4.3148,-4.1938,-4.1288,-4.1018,-4.0493,-4.0163,-4.0113,-4.0113,-4.0113,-4.0096,-4.0146,-4.0154,-4.0171,-4.0601,-4.0874,-4.0972,-4.149,-4.2062,-4.2598,-4.3087,-4.294,-4.1937,-4.1768,-4.1218,-4.0279,-4.0113,-4.0113,-4.0113,-4.0113,-4.0113,-4.0113,-4.0113,-4.0113,-4.0113,-4.0113,-4.0113,-4.0113,-4.0113,-4.0113,-4.002,-3.9368,-3.8663,-3.7991,-3.7144,-3.6353,-3.5831,-3.5636,-3.5863,-3.6368,-3.6707,-3.7024,-3.7748,-3.8442,-3.8951,-3.9113,-3.9558,-3.9636,-3.9272,-3.9023,-3.8553,-3.7543,-3.6491,-3.5278,-3.4334,-3.4409,-3.4226,-3.3455,-3.3048,-3.2844,-3.2327,-3.191,-3.1747,-3.1137,-3.0582,-3.0223,-2.9906,-2.9592,-2.9352,-2.9427,-2.9606,-2.9924,-5.1518,-5.0839,-5.082,-5.1132,-5.1499,-5.1041,-5.1096,-5.1536,-5.0765,-5.0435,-5.038,-5.0141,-5.0013,-4.9866,-4.9462,-4.9187,-4.917,-4.8618,-4.8324,-4.8361,-4.8343,-4.8324,-4.8324,-4.8324,-4.7838,-4.7048,-4.6618,-4.5865,-4.5025,-4.472,-4.4313,-4.3851,-4.4109,-4.3596,-4.2826,-4.263,-4.232,-4.1271,-4.0984,-4.0629,-4.0163,-4.0113,-4.0113,-4.0146,-4.0466,-4.0655,-4.0672,-4.0827,-4.111,-4.149,-4.2101,-4.2675,-4.316,-4.341,-4.2959,-4.1979,-4.181,-4.1308,-4.0286,-4.0113,-4.0113,-4.0113,-4.0113,-4.0113,-4.0113,-4.0113,-4.0113,-4.0113,-4.0113,-4.0113,-4.0113,-4.0113,-4.0113,-4.0096,-3.9385,-3.8827,-3.8442,-3.7847,-3.713,-3.643,-3.6244,-3.6384,-3.6646,-3.6994,-3.7732,-3.8442,-3.9209,-3.9679,-3.9756,-3.9859,-4.007,-3.9756,-3.961,-3.9289,-3.8314,-3.7584,-3.6823,-3.5674,-3.5309,-3.4801,-3.3995,-3.3539,-3.3282,-3.2881,-3.245,-3.1985,-3.1334,-3.0838,-3.0537,-3.0238,-2.9968,-2.9816,-2.9711,-3.0006,-3.0524,-5.2142,-5.1701,-5.1681,-5.1977,-5.238,-5.1867,-5.1958,-5.2289,-5.1591,-5.1242,-5.1206,-5.0912,-5.082,-5.071,-5.0251,-5.005,-4.9939,-4.9169,-4.8948,-4.904,-4.8471,-4.8324,-4.8324,-4.8324,-4.7635,-4.66,-4.6389,-4.5908,-4.4971,-4.4927,-4.4911,-4.4982,-4.4955,-4.466,-4.3735,-4.3214,-4.2455,-4.1644,-4.1068,-4.0561,-4.0214,-4.0113,-4.0204,-4.04,-4.0709,-4.1093,-4.149,-4.1573,-4.1746,-4.2162,-4.2675,-4.316,-4.348,-4.3462,-4.2977,-4.2083,-4.1725,-4.1308,-4.0262,-4.0113,-4.0113,-4.0113,-4.0113,-4.0113,-4.0113,-4.0113,-4.0113,-4.0113,-4.0113,-4.0113,-4.0113,-4.0113,-4.0113,-4.0113,-3.9368,-3.8827,-3.8525,-3.8092,-3.7661,-3.716,-3.7024,-3.7174,-3.7512,-3.7803,-3.8541,-3.9236,-3.9782,-4.0113,-4.0113,-4.007,-4.0113,-4.0113,-3.9995,-3.9558,-3.9005,-3.858,-3.8286,-3.7284,-3.6337,-3.5412,-3.4507,-3.4229,-3.3988,-3.333,-3.2868,-3.2449,-3.1875,-3.1323,-3.0941,-3.0657,-3.0518,-3.0582,-3.0683,-3.1101,-3.1543,-5.3167,-5.3185,-5.3167,-5.3093,-5.313,-5.3057,-5.3038,-5.302,-5.2399,-5.205,-5.1903,-5.1444,-5.1096,-5.1004,-5.0949,-5.0875,-5.0729,-5.0051,-4.9976,-5.0068,-4.9352,-4.8655,-4.8545,-4.8283,-4.7512,-4.653,-4.6389,-4.6063,-4.5407,-4.5511,-4.6136,-4.6766,-4.5961,-4.5808,-4.5569,-4.376,-4.2781,-4.2372,-4.1223,-4.0618,-4.0379,-4.0279,-4.0473,-4.0926,-4.111,-4.156,-4.2362,-4.2578,-4.2675,-4.2789,-4.3196,-4.3427,-4.3479,-4.3479,-4.2903,-4.1874,-4.1789,-4.115,-4.036,-4.0113,-4.0113,-4.0113,-4.0113,-4.0113,-4.0113,-4.0113,-4.0113,-4.0113,-4.0113,-4.0146,-4.0197,-4.0248,-4.0248,-4.0104,-3.9582,-3.8887,-3.8104,-3.8064,-3.8064,-3.7937,-3.7908,-3.8064,-3.8608,-3.8745,-3.9209,-3.9782,-4.0045,-4.007,-4.0113,-4.0113,-4.0113,-4.0113,-4.0113,-3.9876,-3.9385,-3.9289,-3.8951,-3.8201,-3.7363,-3.6585,-3.555,-3.5244,-3.4626,-3.3952,-3.3351,-3.2926,-3.2296,-3.163,-3.1473,-3.1492,-3.1481,-3.1537,-3.1777,-3.2143,-3.2373,-5.3185,-5.3185,-5.3185,-5.3185,-5.3185,-5.3185,-5.3185,-5.3167,-5.2986,-5.2839,-5.2803,-5.2692,-5.2472,-5.247,-5.1903,-5.1683,-5.1499,-5.0839,-5.0545,-5.071,-5.0417,-4.9793,-4.9089,-4.8129,-4.7277,-4.6524,-4.6436,-4.607,-4.5571,-4.5989,-4.6383,-4.6618,-4.643,-4.6216,-4.6147,-4.5554,-4.4697,-4.3786,-4.329,-4.2323,-4.1431,-4.1308,-4.1402,-4.1556,-4.1976,-4.2322,-4.275,-4.3087,-4.3286,-4.3286,-4.341,-4.3479,-4.3462,-4.316,-4.2617,-4.1937,-4.1358,-4.085,-4.0286,-4.0113,-4.0113,-4.0113,-4.0113,-4.0113,-4.0113,-4.0113,-4.0113,-4.0113,-4.0113,-4.0367,-4.0764,-4.0899,-4.0916,-4.0806,-4.0204,-3.9661,-3.9454,-3.948,-3.9305,-3.8761,-3.8635,-3.8772,-3.8897,-3.9032,-3.9289,-3.9901,-4.0113,-4.0113,-4.0113,-4.0113,-4.0113,-4.0113,-4.007,-4.002,-3.9876,-3.985,-3.9558,-3.8924,-3.8383,-3.8056,-3.7171,-3.6554,-3.5695,-3.4759,-3.4121,-3.363,-3.2487,-3.1537,-3.1811,-3.2341,-3.2157,-3.2118,-3.2621,-3.3024,-3.3156,-5.3185,-5.3185,-5.3185,-5.3185,-5.3185,-5.3185,-5.3185,-5.3185,-5.3185,-5.3185,-5.3185,-5.3185,-5.3185,-5.313,-5.2711,-5.2509,-5.2399,-5.1665,-5.1518,-5.1775,-5.1463,-5.0655,-4.9641,-4.8589,-4.7792,-4.6887,-4.6819,-4.6641,-4.6425,-4.6664,-4.6914,-4.7154,-4.6937,-4.6824,-4.6806,-4.614,-4.5368,-4.4231,-4.3793,-4.2996,-4.1899,-4.181,-4.1979,-4.2142,-4.2557,-4.2769,-4.3032,-4.3339,-4.3479,-4.3479,-4.3479,-4.3479,-4.3444,-4.3013,-4.244,-4.1832,-4.1246,-4.0679,-4.0229,-4.0113,-4.0113,-4.0113,-4.0113,-4.0113,-4.0113,-4.0113,-4.0146,-4.0527,-4.0527,-4.0916,-4.1474,-4.166,-4.1508,-4.1187,-4.0798,-4.0451,-4.0163,-4.0045,-3.9885,-3.9542,-3.9394,-3.9394,-3.9394,-3.9394,-3.9636,-3.9952,-4.0113,-4.0113,-4.0113,-4.0113,-4.0113,-4.0113,-4.0113,-4.0045,-4.002,-3.9995,-3.9969,-3.9411,-3.9186,-3.897,-3.8299,-3.7593,-3.6779,-3.5811,-3.5018,-3.4153,-3.3142,-3.2509,-3.2884,-3.3141,-3.2826,-3.3137,-3.3836,-3.421,-3.4284,-5.3185,-5.3185,-5.3185,-5.3185,-5.3185,-5.3185,-5.3185,-5.3185,-5.3185,-5.3185,-5.3185,-5.3185,-5.3185,-5.3185,-5.3075,-5.3148,-5.3115,-5.2417,-5.2582,-5.2656,-5.2344,-5.1408,-5.0196,-4.9612,-4.881,-4.7886,-4.7619,-4.7501,-4.7453,-4.749,-4.7738,-4.7899,-4.7656,-4.7509,-4.7337,-4.6412,-4.5303,-4.471,-4.4278,-4.3531,-4.2724,-4.2616,-4.2799,-4.2714,-4.2808,-4.305,-4.3358,-4.3625,-4.3699,-4.3626,-4.357,-4.3479,-4.3427,-4.2976,-4.2382,-4.1768,-4.115,-4.0546,-4.0204,-4.0113,-4.0113,-4.0113,-4.0113,-4.0113,-4.0113,-4.0113,-4.0341,-4.1018,-4.1187,-4.1542,-4.2236,-4.2405,-4.2083,-4.1576,-4.1288,-4.0832,-4.0316,-4.0113,-4.0113,-4.0113,-4.007,-4.0096,-4.0113,-4.0113,-4.0096,-4.002,-4.0113,-4.0113,-4.0113,-4.0113,-4.0113,-4.0113,-4.0113,-4.0113,-4.007,-4.007,-4.007,-3.9901,-3.9808,-3.9572,-3.8846,-3.8196,-3.7696,-3.6956,-3.6058,-3.5214,-3.4324,-3.4094,-3.4142,-3.4031,-3.3803,-3.4654,-3.5528,-3.5691,-3.5778,-5.3185,-5.3185,-5.3185,-5.3185,-5.3185,-5.3185,-5.3185,-5.3185,-5.3185,-5.3185,-5.3185,-5.3185,-5.3185,-5.3185,-5.3185,-5.3185,-5.3185,-5.2968,-5.3096,-5.3093,-5.3057,-5.2417,-5.1344,-5.0472,-4.9662,-4.9093,-4.8601,-4.8345,-4.8305,-4.8241,-4.817,-4.8265,-4.828,-4.8113,-4.8017,-4.7696,-4.7261,-4.6549,-4.6183,-4.527,-4.4324,-4.4469,-4.429,-4.3524,-4.3359,-4.3357,-4.3591,-4.4103,-4.4433,-4.4305,-4.3938,-4.3681,-4.3448,-4.2655,-4.2041,-4.1643,-4.0885,-4.0279,-4.0121,-4.013,-4.013,-4.0248,-4.018,-4.0113,-4.0113,-4.0163,-4.0502,-4.1018,-4.1238,-4.1914,-4.2963,-4.3183,-4.2726,-4.21,-4.1491,-4.0916,-4.0299,-4.0113,-4.0113,-4.0113,-4.0113,-4.0113,-4.0113,-4.0113,-4.0113,-4.0113,-4.0113,-4.0113,-4.0113,-4.0113,-4.0113,-4.0113,-4.0113,-4.0113,-4.0113,-4.0113,-4.0113,-4.0113,-4.0113,-4.0054,-3.9354,-3.8942,-3.8452,-3.781,-3.7068,-3.6244,-3.5522,-3.5029,-3.4977,-3.4868,-3.5004,-3.5911,-3.6651,-3.6919,-3.7133,-5.3185,-5.3185,-5.3185,-5.3185,-5.3185,-5.3185,-5.3185,-5.3185,-5.3185,-5.3185,-5.3185,-5.3185,-5.3185,-5.3185,-5.3185,-5.3185,-5.3185,-5.3185,-5.3185,-5.3185,-5.3167,-5.2968,-5.2635,-5.1728,-5.0951,-4.9968,-4.9713,-4.9292,-4.8774,-4.9082,-4.9332,-4.893,-4.8912,-4.8928,-4.8783,-4.8526,-4.7809,-4.7167,-4.7076,-4.647,-4.5571,-4.5626,-4.5406,-4.4323,-4.403,-4.3938,-4.3589,-4.4268,-4.4635,-4.469,-4.4654,-4.4415,-4.3905,-4.293,-4.218,-4.1664,-4.1013,-4.0557,-4.0552,-4.035,-4.0417,-4.106,-4.0553,-4.0637,-4.079,-4.0874,-4.1187,-4.1914,-4.2354,-4.276,-4.3775,-4.3511,-4.3081,-4.2371,-4.1627,-4.0916,-4.0316,-4.0113,-4.0113,-4.0113,-4.0113,-4.0113,-4.0113,-4.0113,-4.0113,-4.0113,-4.0113,-4.0113,-4.0113,-4.0113,-4.0113,-4.0113,-4.0113,-4.0113,-4.0113,-4.0113,-4.0113,-4.0113,-4.0113,-4.0113,-3.9809,-3.9531,-3.9261,-3.8606,-3.7961,-3.7514,-3.6842,-3.6348,-3.624,-3.6797,-3.7209,-3.7469,-3.7811,-3.8363,-3.8393,-5.3185,-5.3185,-5.3185,-5.3185,-5.3185,-5.3185,-5.3185,-5.3185,-5.3185,-5.3185,-5.3185,-5.3185,-5.3185,-5.3185,-5.3185,-5.3185,-5.3185,-5.3185,-5.3185,-5.3185,-5.3185,-5.313,-5.3038,-5.2758,-5.1967,-5.0196,-5.0597,-5.0155,-4.9733,-4.9994,-5.0196,-4.9867,-4.9794,-4.9647,-4.9427,-4.8893,-4.8196,-4.7516,-4.7406,-4.6984,-4.6324,-4.6269,-4.5957,-4.5057,-4.4455,-4.4145,-4.3852,-4.4327,-4.4858,-4.4949,-4.5663,-4.5645,-4.4967,-4.3849,-4.2771,-4.2225,-4.1823,-4.166,-4.1494,-4.1178,-4.1291,-4.2353,-4.1306,-4.1094,-4.1762,-4.1762,-4.2066,-4.2828,-4.3403,-4.3741,-4.4462,-4.3859,-4.3098,-4.2371,-4.1644,-4.095,-4.0451,-4.0197,-4.0113,-4.0113,-4.0113,-4.0113,-4.0113,-4.0113,-4.0113,-4.0113,-4.0113,-4.0113,-4.0113,-4.0113,-4.0113,-4.0113,-4.0113,-4.0113,-4.0113,-4.0113,-4.0113,-4.0113,-4.0113,-4.0113,-4.0113,-3.9918,-3.9656,-3.9437,-3.8916,-3.8454,-3.8119,-3.7736,-3.7952,-3.8797,-3.8785,-3.8446,-3.8941,-3.9792,-3.9391,-5.3185,-5.3185,-5.3185,-5.3185,-5.3185,-5.3185,-5.3185,-5.3185,-5.3185,-5.3185,-5.3185,-5.3185,-5.3185,-5.3185,-5.3185,-5.3185,-5.3185,-5.3185,-5.3185,-5.3185,-5.3185,-5.3185,-5.3185,-5.3167,-5.2546,-5.1922,-5.1756,-5.1499,-5.1041,-5.1041,-5.093,-5.0655,-5.06,-5.0362,-4.9904,-4.9408,-4.8948,-4.8233,-4.8085,-4.77,-4.7186,-4.7315,-4.6965,-4.57,-4.4835,-4.4189,-4.4056,-4.4565,-4.5309,-4.5943,-4.6573,-4.6745,-4.6433,-4.5395,-4.4411,-4.3663,-4.3462,-4.3185,-4.2812,-4.2745,-4.2829,-4.2907,-4.233,-4.1976,-4.2262,-4.2252,-4.2625,-4.3284,-4.3995,-4.4418,-4.4564,-4.3758,-4.3081,-4.2354,-4.1677,-4.1136,-4.0899,-4.0629,-4.0333,-4.0434,-4.0316,-4.0113,-4.0113,-4.0113,-4.0113,-4.0113,-4.0113,-4.0113,-4.0113,-4.0113,-4.0113,-4.0113,-4.0113,-4.0113,-4.0113,-4.0113,-4.0113,-4.0113,-4.0113,-4.0113,-4.0113,-4.0113,-3.9943,-3.974,-3.9656,-3.9362,-3.9093,-3.8863,-3.8763,-3.8916,-3.8983,-3.9114,-3.9244,-3.94,-3.908,-5.3185,-5.3185,-5.3185,-5.3185,-5.3185,-5.3185,-5.3185,-5.3185,-5.3185,-5.3185,-5.3185,-5.3185,-5.3185,-5.3185,-5.3185,-5.3185,-5.3185,-5.3185,-5.3185,-5.3185,-5.3185,-5.3185,-5.3185,-5.3185,-5.3004,-5.2692,-5.2601,-5.2123,-5.1536,-5.194,-5.172,-5.1481,-5.1426,-5.1206,-5.0822,-5.0417,-4.9774,-4.915,-4.8912,-4.8526,-4.7773,-4.814,-4.7458,-4.6251,-4.5415,-4.4751,-4.4192,-4.5117,-4.5797,-4.6298,-4.7154,-4.7587,-4.7496,-4.7032,-4.6068,-4.4921,-4.4674,-4.461,-4.4157,-4.4038,-4.392,-4.4272,-4.3486,-4.3141,-4.3233,-4.3267,-4.3234,-4.3842,-4.4164,-4.4384,-4.3978,-4.3335,-4.254,-4.188,-4.1424,-4.1288,-4.1238,-4.1204,-4.117,-4.1001,-4.0603,-4.035,-4.0113,-4.0113,-4.0113,-4.0113,-4.0146,-4.0163,-4.0197,-4.0113,-4.0113,-4.0113,-4.0113,-4.0113,-4.0113,-4.0113,-4.0113,-4.0113,-4.0113,-4.0113,-4.0113,-4.0113,-4.0113,-4.0011,-3.9977,-3.9893,-3.9817,-3.9521,-3.9276,-3.9073,-3.936,-3.9522,-3.914,-3.8864,-3.8646,-5.3185,-5.3185,-5.3185,-5.3185,-5.3185,-5.3185,-5.3185,-5.3185,-5.3185,-5.3185,-5.3185,-5.3185,-5.3185,-5.3185,-5.3185,-5.3185,-5.3185,-5.3185,-5.3185,-5.3185,-5.3185,-5.3185,-5.3185,-5.3185,-5.313,-5.3075,-5.3078,-5.2546,-5.2013,-5.2491,-5.2692,-5.2417,-5.2234,-5.2105,-5.1793,-5.1261,-5.0563,-5.0051,-4.9629,-4.917,-4.8526,-4.8231,-4.771,-4.6504,-4.6272,-4.5602,-4.4856,-4.5548,-4.6227,-4.6755,-4.7516,-4.8288,-4.8306,-4.8306,-4.7509,-4.6101,-4.5767,-4.5755,-4.5498,-4.5078,-4.5029,-4.5431,-4.4325,-4.4119,-4.4174,-4.3978,-4.3893,-4.4462,-4.4581,-4.4248,-4.3623,-4.2929,-4.2286,-4.1745,-4.1542,-4.1508,-4.183,-4.1999,-4.2168,-4.1796,-4.1094,-4.0874,-4.0908,-4.0908,-4.106,-4.0874,-4.0891,-4.0578,-4.0544,-4.018,-4.0113,-4.0113,-4.0113,-4.0113,-4.0113,-4.0113,-4.0113,-4.0113,-4.0113,-4.0113,-4.0113,-4.0113,-4.0113,-4.0113,-4.0096,-4.0028,-4.0096,-4.0113,-3.9808,-3.9706,-3.9977,-3.9944,-3.958,-3.907,-3.8696,-5.3185,-5.3185,-5.3185,-5.3185,-5.3185,-5.3148,-5.3167,-5.3148,-5.3112,-5.3185,-5.2983,-5.3148,-5.3112,-5.313,-5.3185,-5.3185,-5.3185,-5.3185,-5.3185,-5.3185,-5.3185,-5.3185,-5.3185,-5.3185,-5.3185,-5.3185,-5.3185,-5.3148,-5.2782,-5.3002,-5.3148,-5.2986,-5.2876,-5.2747,-5.216,-5.1977,-5.1444,-5.0692,-4.9958,-4.9187,-4.845,-4.8285,-4.7713,-4.7044,-4.6509,-4.6122,-4.5771,-4.6215,-4.6576,-4.7214,-4.7866,-4.8267,-4.8324,-4.8324,-4.825,-4.7972,-4.7861,-4.7603,-4.685,-4.6295,-4.5847,-4.5912,-4.5053,-4.4627,-4.449,-4.4513,-4.4395,-4.453,-4.4598,-4.4215,-4.3606,-4.3318,-4.2861,-4.2455,-4.2117,-4.2472,-4.2828,-4.2828,-4.3014,-4.2997,-4.2405,-4.2228,-4.2178,-4.21,-4.2049,-4.1813,-4.1542,-4.1238,-4.0984,-4.0663,-4.057,-4.0671,-4.0468,-4.0417,-4.0282,-4.0248,-4.0113,-4.0113,-4.0113,-4.0113,-4.0113,-4.0113,-4.0113,-4.0113,-4.0113,-4.0113,-4.0113,-4.0113,-4.0113,-4.0113,-4.0113,-4.0113,-4.0054,-3.9463,-3.8756,-5.2939,-5.3185,-5.3185,-5.3185,-5.313,-5.2729,-5.2527,-5.2527,-5.2527,-5.2252,-5.2013,-5.2362,-5.2527,-5.2656,-5.2949,-5.3185,-5.3185,-5.3185,-5.3185,-5.3185,-5.3185,-5.3185,-5.3185,-5.3185,-5.3185,-5.3185,-5.3185,-5.3185,-5.3185,-5.3185,-5.3185,-5.3185,-5.3185,-5.3078,-5.2619,-5.2656,-5.2197,-5.1353,-5.0305,-4.9248,-4.8553,-4.8013,-4.7472,-4.6776,-4.6542,-4.6418,-4.644,-4.6773,-4.7006,-4.7491,-4.7977,-4.8305,-4.8324,-4.8324,-4.8287,-4.8287,-4.8268,-4.7912,-4.7336,-4.7093,-4.6605,-4.5989,-4.5372,-4.4991,-4.4703,-4.4654,-4.4654,-4.4598,-4.4598,-4.4225,-4.3633,-4.3436,-4.298,-4.2658,-4.2726,-4.3031,-4.3436,-4.3741,-4.3809,-4.3809,-4.3758,-4.3481,-4.3125,-4.276,-4.2472,-4.2066,-4.1897,-4.1711,-4.1576,-4.1474,-4.1424,-4.1508,-4.117,-4.0798,-4.0612,-4.0476,-4.0197,-4.0146,-4.0163,-4.0146,-4.0113,-4.0113,-4.0113,-4.0113,-4.0113,-4.0113,-4.0113,-4.0113,-4.0113,-4.0113,-4.0113,-4.002,-3.9901,-3.9447,-3.8783,-5.2716,-5.3025,-5.2936,-5.3023,-5.3075,-5.2142,-5.183,-5.1995,-5.1775,-5.1353,-5.1151,-5.1665,-5.2123,-5.238,-5.2931,-5.3185,-5.3185,-5.3185,-5.3185,-5.3185,-5.3185,-5.3185,-5.3185,-5.3185,-5.3185,-5.3185,-5.3185,-5.3185,-5.3185,-5.3185,-5.3185,-5.3185,-5.3185,-5.3167,-5.3185,-5.3057,-5.2692,-5.1848,-5.0637,-4.9649,-4.8889,-4.8097,-4.7518,-4.7074,-4.6869,-4.6869,-4.6955,-4.7306,-4.7617,-4.7738,-4.8017,-4.8306,-4.8324,-4.8324,-4.8508,-4.8618,-4.8765,-4.8437,-4.7811,-4.7285,-4.6578,-4.5908,-4.5485,-4.5258,-4.4998,-4.4923,-4.5079,-4.5205,-4.4944,-4.4497,-4.3885,-4.3702,-4.3386,-4.325,-4.3284,-4.3521,-4.3758,-4.4028,-4.4259,-4.4242,-4.4242,-4.4361,-4.3955,-4.3396,-4.2895,-4.2371,-4.2185,-4.2151,-4.2134,-4.2151,-4.2083,-4.2083,-4.183,-4.1373,-4.1018,-4.0781,-4.0468,-4.0316,-4.035,-4.0265,-4.0265,-4.0163,-4.0113,-4.0113,-4.0146,-4.0113,-4.0113,-4.0113,-4.0113,-4.0113,-4.0045,-3.9808,-3.9584,-3.9246,-3.9129,-5.2572,-5.2531,-5.2198,-5.2511,-5.3096,-5.1536,-5.1316,-5.1793,-5.1169,-5.0857,-5.093,-5.1573,-5.227,-5.2821,-5.2873,-5.302,-5.3075,-5.3167,-5.3075,-5.3093,-5.3185,-5.3185,-5.3185,-5.3185,-5.3185,-5.3185,-5.3185,-5.3185,-5.3185,-5.3185,-5.3185,-5.3185,-5.3185,-5.3185,-5.3185,-5.3148,-5.2876,-5.2142,-5.1169,-5.0358,-4.9557,-4.8806,-4.8216,-4.8126,-4.8111,-4.8172,-4.8134,-4.8114,-4.8114,-4.8114,-4.823,-4.8287,-4.8324,-4.8471,-4.8765,-4.915,-4.9444,-4.9129,-4.8562,-4.7423,-4.628,-4.5767,-4.5563,-4.5597,-4.5485,-4.5965,-4.6167,-4.6014,-4.5545,-4.5036,-4.4603,-4.4348,-4.4101,-4.4028,-4.4113,-4.4333,-4.4434,-4.4316,-4.453,-4.4581,-4.4682,-4.4835,-4.5021,-4.4502,-4.369,-4.3166,-4.2844,-4.2794,-4.276,-4.2753,-4.2618,-4.2533,-4.2414,-4.1999,-4.1491,-4.1271,-4.1238,-4.1068,-4.0967,-4.0722,-4.0485,-4.0367,-4.0367,-4.0248,-4.0273,-4.0197,-4.0113,-4.0113,-4.0113,-4.0113,-4.002,-3.9901,-3.9876,-3.9731,-3.9824,-5.1912,-5.2055,-5.1211,-5.1761,-5.3057,-5.1499,-5.0967,-5.1077,-5.0417,-5.0362,-5.082,-5.1132,-5.1426,-5.183,-5.2252,-5.216,-5.1867,-5.2307,-5.2435,-5.2674,-5.2876,-5.313,-5.3185,-5.3185,-5.3185,-5.3185,-5.3185,-5.3185,-5.3185,-5.3185,-5.3185,-5.3185,-5.3185,-5.3185,-5.3185,-5.3185,-5.2986,-5.2637,-5.1917,-5.1177,-5.0471,-4.9668,-4.8992,-4.8499,-4.8481,-4.8413,-4.8301,-4.8305,-4.8324,-4.8324,-4.8324,-4.8324,-4.8398,-4.871,-4.9132,-4.9629,-4.9939,-4.9896,-4.9223,-4.7984,-4.6748,-4.581,-4.5808,-4.6063,-4.6081,-4.6336,-4.6365,-4.6174,-4.5922,-4.5438,-4.5209,-4.5176,-4.5145,-4.4993,-4.4959,-4.506,-4.5094,-4.4891,-4.4919,-4.5021,-4.5179,-4.5365,-4.5568,-4.5703,-4.4807,-4.3995,-4.3707,-4.3426,-4.3403,-4.3447,-4.3345,-4.3244,-4.3115,-4.2878,-4.2388,-4.2236,-4.2117,-4.1847,-4.1593,-4.1407,-4.1136,-4.0899,-4.0865,-4.0663,-4.0375,-4.0265,-4.0163,-4.013,-4.0113,-4.0113,-4.0113,-4.007,-4.007,-4.0146,-4.0383,-5.1351,-5.1622,-5.0823,-5.1348,-5.249,-5.0987,-5.0375,-5.043,-4.9749,-4.9929,-5.0765,-5.06,-5.093,-5.1408,-5.1444,-5.1646,-5.1499,-5.1811,-5.1977,-5.2325,-5.2784,-5.3112,-5.3185,-5.3185,-5.3185,-5.3185,-5.3185,-5.3185,-5.3185,-5.3185,-5.3185,-5.3185,-5.3185,-5.3185,-5.3185,-5.3185,-5.3185,-5.3023,-5.2412,-5.1833,-5.1213,-5.05,-4.9937,-4.9392,-4.9398,-4.9122,-4.8945,-4.8802,-4.8563,-4.8434,-4.8324,-4.8324,-4.8508,-4.882,-4.9279,-4.9774,-5.0248,-5.0542,-4.9923,-4.881,-4.7519,-4.6628,-4.6849,-4.6943,-4.6799,-4.6824,-4.7154,-4.7044,-4.6501,-4.5982,-4.5825,-4.5656,-4.5331,-4.4975,-4.4902,-4.4993,-4.5314,-4.5297,-4.5382,-4.5512,-4.5737,-4.6041,-4.6126,-4.6278,-4.5771,-4.5026,-4.4739,-4.4401,-4.4096,-4.4158,-4.4225,-4.4124,-4.3978,-4.369,-4.3386,-4.3301,-4.3081,-4.2286,-4.2117,-4.2252,-4.2049,-4.1762,-4.1339,-4.1001,-4.0696,-4.0383,-4.0333,-4.04,-4.0282,-4.013,-4.0299,-4.057,-4.0383,-4.0502,-4.0865,-5.0958,-5.1288,-5.1231,-5.1461,-5.172,-4.9812,-4.9478,-5.0077,-4.9444,-4.9732,-5.072,-5.0257,-5.0956,-5.2112,-5.1469,-5.132,-5.1546,-5.1818,-5.2016,-5.2197,-5.2803,-5.313,-5.3185,-5.3185,-5.3185,-5.3185,-5.3185,-5.3185,-5.3185,-5.3185,-5.3185,-5.3185,-5.3185,-5.3185,-5.3185,-5.3185,-5.3185,-5.3075,-5.2399,-5.2137,-5.1875,-5.1321,-5.0952,-5.0641,-5.0586,-5.0263,-4.9479,-4.9317,-4.8985,-4.8416,-4.8508,-4.8545,-4.86,-4.8857,-4.9297,-4.9904,-5.0582,-5.089,-5.0735,-4.9562,-4.8615,-4.7761,-4.7917,-4.8009,-4.7669,-4.7777,-4.7997,-4.7756,-4.7406,-4.6887,-4.6442,-4.593,-4.5463,-4.5167,-4.51,-4.5314,-4.5669,-4.5838,-4.594,-4.6092,-4.6464,-4.6786,-4.6802,-4.6769,-4.6498,-4.6075,-4.5788,-4.5365,-4.4835,-4.4784,-4.4823,-4.4666,-4.4485,-4.4282,-4.4062,-4.4282,-4.3995,-4.3115,-4.276,-4.2997,-4.2878,-4.2506,-4.2033,-4.1491,-4.1238,-4.1111,-4.0882,-4.073,-4.0781,-4.0925,-4.1018,-4.1153,-4.0916,-4.0959,-4.1407,-5.0787,-5.0875,-5.0615,-5.0732,-5.0937,-5.0128,-4.9867,-5.0034,-4.994,-5.0317,-5.1139,-5.1362,-5.1121,-5.1286,-5.1555,-5.1315,-5.1009,-5.1838,-5.2016,-5.2126,-5.2863,-5.3093,-5.3185,-5.3185,-5.3185,-5.3185,-5.3185,-5.3185,-5.3185,-5.3185,-5.3185,-5.3185,-5.3185,-5.3185,-5.3185,-5.3185,-5.3185,-5.3167,-5.2931,-5.2803,-5.2747,-5.2454,-5.2087,-5.1628,-5.1591,-5.1006,-4.9904,-4.9831,-4.937,-4.8728,-4.8838,-4.915,-4.937,-4.9701,-5.0637,-5.1169,-5.183,-5.238,-5.2194,-5.1406,-5.0104,-4.9278,-4.8749,-4.8792,-4.8201,-4.8152,-4.8267,-4.8246,-4.7925,-4.7262,-4.6454,-4.6417,-4.6094,-4.5779,-4.5771,-4.616,-4.6464,-4.6464,-4.6532,-4.6735,-4.7056,-4.7699,-4.7953,-4.7716,-4.7394,-4.6836,-4.6464,-4.5635,-4.5004,-4.5162,-4.528,-4.5038,-4.4852,-4.4733,-4.4682,-4.4621,-4.4615,-4.391,-4.3775,-4.4056,-4.3758,-4.3267,-4.2929,-4.2479,-4.2168,-4.1847,-4.1745,-4.166,-4.1711,-4.1813,-4.2033,-4.1931,-4.1644,-4.1779,-4.2185,-4.9798,-4.9798,-4.9854,-5.0002,-5.0227,-5.0127,-5.025,-5.0426,-5.0478,-5.0862,-5.1538,-5.1894,-5.1859,-5.1384,-5.1301,-5.1843,-5.1191,-5.1971,-5.2264,-5.2374,-5.3053,-5.3265,-5.3251,-5.3206,-5.3185,-5.3185,-5.3185,-5.3185,-5.3185,-5.3185,-5.3185,-5.3185,-5.3185,-5.3185,-5.3185,-5.3185,-5.3185,-5.3167,-5.3075,-5.3093,-5.3112,-5.302,-5.2894,-5.2546,-5.2252,-5.1811,-5.0859,-5.0308,-5.0031,-4.9572,-4.9591,-4.9994,-5.0418,-5.0839,-5.1463,-5.1499,-5.1536,-5.2123,-5.2249,-5.1864,-5.0678,-5.0165,-4.9836,-4.9167,-4.8526,-4.8305,-4.8544,-4.8557,-4.8295,-4.8042,-4.7622,-4.7583,-4.7248,-4.6948,-4.6726,-4.7147,-4.7166,-4.7166,-4.739,-4.7577,-4.7874,-4.8504,-4.8938,-4.8714,-4.8409,-4.775,-4.709,-4.624,-4.5444,-4.5602,-4.5821,-4.5635,-4.5348,-4.5229,-4.501,-4.4722,-4.4682,-4.4615,-4.4598,-4.4598,-4.4496,-4.3944,-4.3741,-4.346,-4.2997,-4.2658,-4.2675,-4.2658,-4.2709,-4.2912,-4.32,-4.2946,-4.2455,-4.2675,-4.3098,-4.8163,-4.8259,-4.9067,-4.9519,-4.9557,-5.0008,-5.0576,-5.1237,-5.1026,-5.1322,-5.2005,-5.1492,-5.1892,-5.2635,-5.1662,-5.1869,-5.2793,-5.3139,-5.3046,-5.3009,-5.3572,-5.353,-5.34,-5.3274,-5.3272,-5.3227,-5.3185,-5.3185,-5.3185,-5.3185,-5.3185,-5.3185,-5.3185,-5.3185,-5.3185,-5.3185,-5.3185,-5.3185,-5.3185,-5.3185,-5.3185,-5.3167,-5.3112,-5.2986,-5.2894,-5.2472,-5.1848,-5.1575,-5.1206,-5.0894,-5.0747,-5.082,-5.0875,-5.0875,-5.0398,-5.0161,-5.0216,-5.1187,-5.1922,-5.1646,-5.1463,-5.1117,-5.0376,-4.9389,-4.8816,-4.8721,-4.9072,-4.9347,-4.9332,-4.9504,-4.95,-4.9177,-4.8858,-4.842,-4.7942,-4.7982,-4.7941,-4.8069,-4.8331,-4.8582,-4.8795,-4.9209,-4.9428,-4.9334,-4.9125,-4.8652,-4.8026,-4.7594,-4.6835,-4.6244,-4.6413,-4.643,-4.6143,-4.5838,-4.5517,-4.5094,-4.4767,-4.4699,-4.4615,-4.4598,-4.4564,-4.453,-4.4198,-4.3876,-4.3623,-4.3453,-4.347,-4.3572,-4.369,-4.391,-4.3978,-4.3802,-4.3234,-4.3673,-4.4028,-4.9029,-4.9125,-4.9971,-5.0337,-5.0346,-5.0469,-5.0829,-5.1306,-5.1795,-5.2264,-5.246,-5.3468,-5.3207,-5.2794,-5.3202,-5.3427,-5.3688,-5.394,-5.4037,-5.4115,-5.4088,-5.3941,-5.3758,-5.3564,-5.3462,-5.3293,-5.3185,-5.3185,-5.3185,-5.3185,-5.3185,-5.3185,-5.3185,-5.3185,-5.3185,-5.3185,-5.3185,-5.3185,-5.3185,-5.3185,-5.3185,-5.3185,-5.3185,-5.3185,-5.3185,-5.2766,-5.2307,-5.2105,-5.1665,-5.1096,-5.1426,-5.1628,-5.1646,-5.2142,-5.2307,-5.227,-5.2289,-5.2491,-5.2656,-5.2087,-5.1756,-5.1811,-5.1022,-5.0222,-4.9703,-4.9654,-4.9866,-5.0051,-5.0295,-5.042,-5.0446,-5.0213,-4.9893,-4.9443,-4.9132,-4.9178,-4.9128,-4.912,-4.9342,-4.9274,-4.9492,-4.9681,-4.9896,-4.9965,-4.9723,-4.935,-4.8941,-4.8511,-4.8031,-4.7352,-4.7124,-4.7158,-4.6921,-4.6616,-4.5974,-4.55,-4.5077,-4.4784,-4.4682,-4.4598,-4.4581,-4.453,-4.4462,-4.4282,-4.4045,-4.4113,-4.4248,-4.4299,-4.4181,-4.4333,-4.4412,-4.4276,-4.4225,-4.4479,-4.4716,-4.8105,-4.8509,-4.9317,-5.0048,-5.0654,-5.0683,-5.0861,-5.1201,-5.1955,-5.2453,-5.2893,-5.3417,-5.3456,-5.3099,-5.3531,-5.3919,-5.4127,-5.4702,-5.4876,-5.464,-5.4613,-5.4189,-5.3924,-5.3682,-5.3402,-5.3251,-5.3206,-5.3185,-5.3185,-5.3185,-5.3185,-5.3185,-5.3185,-5.3185,-5.3185,-5.3185,-5.3185,-5.3185,-5.3185,-5.3185,-5.3185,-5.3185,-5.3185,-5.3185,-5.3185,-5.2876,-5.2546,-5.2454,-5.216,-5.1811,-5.2362,-5.2454,-5.238,-5.2692,-5.2674,-5.2435,-5.2087,-5.2179,-5.2325,-5.1848,-5.1958,-5.2087,-5.1717,-5.1204,-5.0787,-5.0648,-5.0733,-5.0811,-5.1062,-5.1268,-5.1204,-5.1096,-5.0718,-5.0319,-5.0385,-5.0487,-5.0374,-5.0272,-5.0136,-4.9941,-5.0004,-5.0174,-5.0297,-5.0407,-5.0139,-4.948,-4.9074,-4.8886,-4.848,-4.7966,-4.7902,-4.802,-4.7716,-4.7378,-4.665,-4.5872,-4.5382,-4.4987,-4.4649,-4.4598,-4.4615,-4.4615,-4.4581,-4.4581,-4.453,-4.4547,-4.4513,-4.4547,-4.4513,-4.4632,-4.479,-4.4908,-4.4756,-4.4649,-4.484,-4.622,-4.7058,-4.7855,-4.9298,-5.0567,-5.0683,-5.0702,-5.0779,-5.1499,-5.2308,-5.2913,-5.2528,-5.2883,-5.3418,-5.3854,-5.4123,-5.4532,-5.5128,-5.5363,-5.5147,-5.4924,-5.4544,-5.4101,-5.3585,-5.372,-5.3462,-5.3272,-5.3316,-5.3206,-5.3185,-5.3185,-5.3185,-5.3185,-5.3185,-5.3185,-5.3185,-5.3185,-5.3185,-5.3185,-5.3185,-5.3185,-5.3185,-5.3185,-5.3185,-5.3185,-5.313,-5.313,-5.3148,-5.3185,-5.3167,-5.317,-5.3133,-5.2913,-5.2656,-5.2362,-5.2197,-5.1995,-5.2087,-5.227,-5.194,-5.2234,-5.2454,-5.2506,-5.2184,-5.1843,-5.163,-5.166,-5.1587,-5.1779,-5.2153,-5.2212,-5.2221,-5.1981,-5.1742,-5.1703,-5.1502,-5.118,-5.1023,-5.0797,-5.0689,-5.0779,-5.0885,-5.0832,-5.0911,-5.0527,-4.9634,-4.9252,-4.9201,-4.8826,-4.8409,-4.846,-4.8629,-4.8392,-4.7902,-4.7005,-4.6278,-4.5686,-4.5229,-4.4987,-4.5055,-4.5393,-4.5156,-4.475,-4.4801,-4.4823,-4.4649,-4.4581,-4.4598,-4.4632,-4.4716,-4.4959,-4.5483,-4.5449,-4.5196,-4.5365,-4.6701,-4.7038,-4.849,-4.9721,-5.0654,-5.0683,-5.0683,-5.0712,-5.0875,-5.1837,-5.3068,-5.3587,-5.3799,-5.3857,-5.4357,-5.4587,-5.4568,-5.5107,-5.5555,-5.5543,-5.5319,-5.496,-5.4785,-5.4417,-5.4338,-5.4118,-5.387,-5.3442,-5.3251,-5.3185,-5.3185,-5.3185,-5.3185,-5.3185,-5.3185,-5.3185,-5.3185,-5.3185,-5.3185,-5.3185,-5.3185,-5.3185,-5.3185,-5.3185,-5.3185,-5.324,-5.324,-5.3203,-5.3203,-5.3185,-5.3185,-5.3185,-5.3148,-5.2986,-5.2931,-5.2876,-5.2619,-5.2637,-5.2692,-5.2601,-5.2782,-5.291,-5.302,-5.2975,-5.2843,-5.2687,-5.2532,-5.243,-5.2517,-5.2877,-5.3112,-5.3127,-5.3143,-5.2999,-5.2872,-5.2376,-5.1922,-5.1685,-5.1436,-5.1519,-5.1618,-5.1469,-5.1368,-5.1042,-5.0743,-5.0352,-4.9947,-4.9658,-4.9209,-4.8826,-4.8775,-4.8911,-4.8883,-4.8376,-4.7445,-4.6853,-4.6363,-4.6041,-4.5821,-4.5957,-4.6172,-4.5788,-4.5399,-4.5213,-4.5128,-4.4874,-4.4699,-4.4598,-4.4649,-4.4733,-4.5263,-4.5855,-4.616,-4.6024,-4.6244,-4.6547,-4.7086,-4.8702,-4.9663,-5.0154,-5.0519,-5.0683,-5.0683,-5.0683,-5.1414,-5.2452,-5.2779,-5.301,-5.3299,-5.3837,-5.4299,-5.4049,-5.4799,-5.5288,-5.5558,-5.5524,-5.5269,-5.5134,-5.4998,-5.4452,-5.417,-5.3739,-5.3361,-5.3209,-5.3185,-5.3185,-5.3185,-5.3185,-5.3185,-5.3185,-5.3185,-5.3185,-5.3185,-5.3185,-5.3185,-5.3185,-5.3185,-5.3185,-5.3185,-5.3203,-5.3314,-5.3515,-5.3555,-5.372,-5.3867,-5.4014,-5.3482,-5.3332,-5.313,-5.3148,-5.3148,-5.3148,-5.3353,-5.3482,-5.3424,-5.335,-5.3445,-5.328,-5.3161,-5.3106,-5.2928,-5.2928,-5.2831,-5.2852,-5.3148,-5.3148,-5.3185,-5.3185,-5.3082,-5.306,-5.2828,-5.2422,-5.2131,-5.2196,-5.244,-5.2155,-5.1464,-5.1167,-5.0457,-5.032,-5.083,-5.0477,-4.971,-4.9286,-4.9094,-4.9107,-4.9077,-4.9032,-4.8663,-4.78,-4.7411,-4.7192,-4.6921,-4.6633,-4.6599,-4.6583,-4.6363,-4.6109,-4.5838,-4.5483,-4.5043,-4.4857,-4.4886,-4.4649,-4.4649,-4.5399,-4.6261,-4.6532,-4.6904,-4.7344,-4.6124,-4.7086,-4.8452,-4.9221,-4.949,-5.0183,-5.0596,-5.0683,-5.0702,-5.1068,-5.1625,-5.1106,-5.1221,-5.1673,-5.2096,-5.2538,-5.3222,-5.426,-5.4934,-5.5284,-5.5341,-5.5324,-5.5199,-5.4924,-5.456,-5.4202,-5.3851,-5.3484,-5.3206,-5.3274,-5.3318,-5.323,-5.3185,-5.3185,-5.3185,-5.3185,-5.3185,-5.3185,-5.3185,-5.3185,-5.3185,-5.3185,-5.3185,-5.3185,-5.3259,-5.3647,-5.3885,-5.4087,-5.4326,-5.4344,-5.4381,-5.3794,-5.3408,-5.3185,-5.3185,-5.3185,-5.3185,-5.3518,-5.3757,-5.346,-5.3665,-5.3775,-5.3482,-5.3369,-5.335,-5.3497,-5.3497,-5.3497,-5.3497,-5.3332,-5.3332,-5.3259,-5.3259,-5.357,-5.357,-5.357,-5.3218,-5.2854,-5.3026,-5.3303,-5.2654,-5.1873,-5.143,-5.065,-5.0414,-5.0945,-5.0604,-4.9829,-4.9243,-4.9199,-4.9168,-4.9107,-4.9032,-4.8545,-4.797,-4.797,-4.7885,-4.7564,-4.7293,-4.7158,-4.7056,-4.7022,-4.6819,-4.638,-4.5991,-4.5635,-4.5399,-4.5393,-4.5106,-4.497,-4.5957,-4.6972,-4.7192,-4.7648,-4.8426,-4.6105,-4.6923,-4.7259,-4.8144,-4.9298,-4.9606,-5.0048,-5.0635,-5.0683,-5.0798,-5.0894,-5.0933,-5.1144,-5.1942,-5.2692,-5.2953,-5.2692,-5.378,-5.4357,-5.469,-5.5335,-5.5508,-5.5458,-5.5212,-5.4947,-5.4621,-5.4303,-5.4083,-5.3584,-5.3565,-5.3525,-5.3316,-5.3248,-5.3227,-5.3227,-5.323,-5.3314,-5.3251,-5.323,-5.3251,-5.3185,-5.3185,-5.3185,-5.3185,-5.3203,-5.372,-5.4087,-5.4234,-5.4344,-5.4289,-5.4032,-5.3573,-5.3295,-5.3185,-5.3185,-5.3185,-5.3185,-5.3518,-5.3665,-5.3445,-5.3628,-5.3904,-5.3775,-5.4032,-5.4234,-5.4675,-5.4675,-5.4638,-5.4491,-5.3995,-5.3867,-5.3589,-5.357,-5.4509,-5.4895,-5.4876,-5.473,-5.4249,-5.4019,-5.3923,-5.3537,-5.3355,-5.3483,-5.2448,-5.1217,-5.1321,-5.0661,-4.9949,-4.9708,-4.9494,-4.9311,-4.9175,-4.9103,-4.8578,-4.8071,-4.8511,-4.8494,-4.8189,-4.8003,-4.8003,-4.797,-4.7902,-4.7614,-4.709,-4.6786,-4.6498,-4.6278,-4.5935,-4.6075,-4.6126,-4.6989,-4.772,-4.7919,-4.8189,-4.8781]},{"header":{"parameterUnit":"m.s-1","parameterCategory":1,"la1":31.0,"la2":29.5877,"lo1":-88.7671,"lo2":-86.6584,"dy":0.0162,"dx":0.0185,"nx":115,"ny":88,"refTime":"2023-02-28T06:00:00:Z","depth":0,"parameterNumber":3,"parameterNumberName":"V-component_of_WINDS"},"data":[0.0,0.0,0.0,0.0,0.0,0.0,0.0,0.0,0.0,0.0,0.0,0.0,0.0,0.0,0.0,0.0,0.0,0.0,0.0,0.0,0.0,0.0,0.0,0.0,0.0,0.0,0.0,0.0,0.0,0.0,0.0,0.0,0.0,0.0,0.0,0.0,0.0,0.0,0.0,0.0,0.0,0.0,0.0,0.0,0.0,0.0,0.0,0.0,0.0,0.0,0.0,0.0,0.0,0.0,0.0,0.0,0.0,0.0,0.0,0.0,0.0,0.0,0.0,0.0,0.0,0.0,0.0,0.0,0.0,0.0,0.0,0.0,0.0,0.0,0.0,0.0,0.0,0.0,0.0,0.0,0.0,0.0,0.0,0.0,0.0,0.0,0.0,0.0,0.0,0.0,0.0,0.0,0.0,0.0,0.0,0.0,0.0,0.0,0.0,0.0,0.0,0.0,0.0,0.0,0.0,0.0,0.0,0.0,0.0,0.0,0.0,0.0,0.0,0.0,0.0,0.0,0.0,0.0,0.0,0.0,0.0,0.0,0.0,0.0,0.0,0.0,0.0,0.0,0.0,0.0,0.0,0.0,0.0,0.0,0.0,0.0,0.0,0.0,0.0,0.0,0.0,0.0,0.0,0.0,0.0,0.0,0.0,0.0,0.0,0.0,0.0,0.0,0.0,0.0,0.0,0.0,0.0,0.0,0.0,0.0,0.0,0.0,0.0,0.0,0.0,0.0,0.0,0.0,0.0,0.0,0.0,0.0,0.0,0.0,0.0,0.0,0.0,0.0,0.0,0.0,0.0,0.0,0.0,0.0,0.0,0.0,0.0,0.0,0.0,0.0,0.0,0.0,0.0,0.0,0.0,0.0,0.0,0.0,0.0,0.0,0.0,0.0,0.0,0.0,0.0,0.0,0.0,0.0,0.0,0.0,0.0,0.0,0.0,0.0,0.0,0.0,0.0,0.0,0.0,0.0,0.0,0.0,0.0,0.0,0.0,0.0,0.0,0.0,0.0,0.0,0.0,0.0,0.0,0.0,0.0,0.0,0.0,0.0,0.0,0.0,0.0,0.0,0.0,0.0,0.0,0.0,0.0,0.0,0.0,0.0,0.0,0.0,0.0,0.0,0.0,0.0,0.0,0.0,0.0,0.0,0.0,0.0,0.0,0.0,0.0,0.0,0.0,0.0,0.0,0.0,0.0,0.0,0.0,0.0,0.0,0.0,0.0,0.0,0.0,0.0,0.0,0.0,0.0,0.0,0.0,0.0,0.0,0.0,0.0,0.0,0.0,0.0,0.0,0.0,0.0,0.0,0.0,0.0,0.0,0.0,0.0,0.0,0.0,0.0,0.0,0.0,0.0,0.0,0.0,0.0,0.0,0.0,0.0,0.0,0.0,0.0,0.0,0.0,0.0,0.0,0.0,0.0,0.0,0.0,0.0,0.0,0.0,0.0,0.0,0.0,0.0,0.0,0.0,0.0,0.0,0.0,0.0,0.0,0.0,0.0,0.0,0.0,0.0,0.0,0.0,0.0,0.0,0.0,0.0,0.0,0.0,0.0,0.0,0.0,0.0,0.0,0.0,0.0,0.0,0.0,0.0,0.0,0.0,0.0,0.0,0.0,0.0,0.0,0.0,0.0,0.0,0.0,0.0,0.0,0.0,0.0,0.0,0.0,0.0,0.0,0.0,0.0,0.0,0.0,0.0,0.0,0.0,0.0,0.0,0.0,0.0,0.0,0.0,0.0,0.0,0.0,0.0,0.0,0.0,0.0,0.0,0.0,0.0,0.0,0.0,0.0,0.0,0.0,0.0,0.0,0.0,0.0,0.0,0.0,0.0,0.0,0.0,0.0,0.0,0.0,0.0,0.0,0.0,0.0,0.0,0.0,0.0,0.0,0.0,0.0,0.0,0.0,0.0,0.0,0.0,0.0,0.0,0.0,0.0,0.0,0.0,0.0,0.0,0.0,0.0,0.0,0.0,0.0,0.0,0.0,0.0,0.0,0.0,0.0,0.0,0.0,0.0,0.0,0.0,0.0,0.0,0.0,0.0,0.0,0.0,0.0,0.0,0.0,0.0,0.0,0.0,0.0,0.0,0.0,0.0,0.0,0.0,0.0,0.0,0.0,0.0,0.0,0.0,0.0,0.0,0.0,0.0,0.0,0.0,0.0,0.0,0.0,0.0,0.0,0.0,0.0,0.0,0.0,0.0,0.0,0.0,0.0,0.0,0.0,0.0,0.0,0.0,0.0,0.0,0.0,0.0,0.0,0.0,0.0,0.0,0.0,0.0,0.0,0.0,0.0,0.0,0.0,0.0,0.0,0.0,0.0,0.0,0.0,0.0,0.0,0.0,0.0,0.0,0.0,0.0,0.0,0.0,0.0,0.0,0.0,0.0,0.0,0.0,0.0,0.0,0.0,0.0,0.0,0.0,0.0,0.0,0.0,0.0,0.0,0.0,0.0,0.0,0.0,0.0,0.0,0.0,0.0,0.0,0.0,0.0,0.0,0.0,0.0,0.0,0.0,0.0,0.0,0.0,0.0,0.0,0.0,0.0,0.0,0.0,0.0,0.0,0.0,0.0,0.0,0.0,0.0,0.0,0.0,0.0,0.0,0.0,0.0,0.0,0.0,0.0,0.0,0.0,0.0,0.0,0.0,0.0,0.0,0.0,0.0,0.0,0.0,0.0,0.0,0.0,0.0,0.0,0.0,0.0,0.0,0.0,0.0,0.0,0.0,0.0,0.0,0.0,0.0,0.0,0.0,0.0,0.0,0.0,0.0,0.0,0.0,0.0,0.0,0.0,0.0,0.0,0.0,0.0,0.0,0.0,0.0,0.0,0.0,0.0,0.0,0.0,0.0,0.0,0.0,0.0,0.0,0.0,0.0,0.0,0.0,0.0,0.0,0.0,0.0,0.0,0.0,0.0,0.0,0.0,0.0,0.0,0.0,0.0,0.0,0.0,0.0,0.0,0.0,0.0,0.0,0.0,0.0,0.0,0.0,0.0,0.0,0.0,0.0,0.0,0.0,0.0,0.0,0.0,0.0,0.0,0.0,0.0,0.0,0.0,0.0,0.0,0.0,0.0,0.0,0.0,0.0,0.0,0.0,0.0,0.0,0.0,0.0,0.0,0.0,0.0,0.0,0.0,0.0,0.0,0.0,0.0,0.0,0.0,0.0,0.0,0.0,0.0,0.0,0.0,0.0,0.0,0.0,0.0,0.0,0.0,0.0,0.0,0.0,0.0,0.0,0.0,0.0,0.0,0.0,0.0,0.0,0.0,0.0,0.0,0.0,0.0,0.0,0.0,0.0,0.0,0.0,0.0,0.0,0.0,0.0,0.0,0.0,0.0,0.0,0.0,0.0,0.0,0.0,0.0,0.0,0.0,0.0,0.0,0.0,0.0,0.0,0.0,0.0,0.0,0.0,0.0,0.0,0.0,0.0,0.0,0.0,0.0,0.0,0.0,0.0,0.0,0.0,0.0,0.0,0.0,0.0,0.0,0.0,0.0,0.0,0.0,0.0,0.0,0.0,0.0,0.0,0.0,0.0,0.0,0.0,0.0,0.0,0.0,0.0,0.0,0.0,0.0,0.0,0.0,0.0,0.0,0.0,0.0,0.0,0.0,0.0,0.0,0.0,0.0,0.0,0.0,0.0,0.0,0.0,0.0,0.0,0.0,0.0,0.0,0.0,0.0,0.0,0.0,0.0,0.0,0.0,0.0,0.0,0.0,0.0,0.0,0.0,0.0,0.0,0.0,0.0,0.0,0.0,0.0,0.0,0.0,0.0,0.0,0.0,0.0,0.0,0.0,0.0,0.0,0.0,0.0,0.0,0.0,0.0,0.0,0.0,0.0,0.0,0.0,0.0,0.0,0.0,0.0,0.0,0.0,0.0,0.0,0.0,0.0,0.0,0.0,0.0,0.0,0.0,0.0,0.0,0.0,0.0,0.0,0.0,0.0,0.0,0.0,0.0,0.0,0.0,0.0,0.0,0.0,0.0,0.0,0.0,0.0,0.0,0.0,0.0,0.0,0.0,0.0,0.0,0.0,0.0,0.0,0.0,0.0,0.0,0.0,0.0,0.0,0.0,0.0,0.0,0.0,0.0,0.0,0.0,0.0,0.0,0.0,0.0,0.0,0.0,0.0,0.0,0.0,0.0,0.0,0.0,0.0,0.0,0.0,0.0,0.0,0.0,0.0,0.0,0.0,0.0,0.0,0.0,0.0,0.0,0.0,0.0,0.0,0.0,0.0,0.0,0.0,0.0,0.0,0.0,-0.744,0.0,0.0,0.0,0.0,0.0,0.0,0.0,0.0,0.0,0.0,0.0,0.0,0.0,0.0,0.0,0.0,0.0,0.0,0.0,0.0,0.0,0.0,0.0,0.0,0.0,0.0,0.0,0.0,0.0,0.0,0.0,0.0,0.0,0.0,0.0,0.0,0.0,0.0,0.0,0.0,0.0,0.0,0.0,0.0,0.0,0.0,0.0,0.0,0.0,0.0,0.0,0.0,0.0,0.0,0.0,0.0,0.0,0.0,0.0,0.0,0.0,0.0,0.0,0.0,0.0,0.0,0.0,0.0,0.0,0.0,0.0,0.0,0.0,0.0,0.0,0.0,0.0,0.0,0.0,0.0,0.0,0.0,0.0,0.0,0.0,0.0,0.0,0.0,0.0,0.0,0.0,0.0,0.0,0.0,0.0,0.0,0.0,0.0,0.0,0.0,0.0,0.0,0.0,0.0,0.0,0.0,0.0,0.0,0.0,0.0,-0.7744,-0.743,-0.7257,-0.7279,-0.7494,0.0,0.0,0.0,0.0,0.0,0.0,0.0,0.0,0.0,0.0,0.0,0.0,0.0,0.0,0.0,0.0,0.0,0.0,0.0,0.0,0.0,0.0,0.0,0.0,0.0,0.0,0.0,0.0,0.0,0.0,0.0,0.0,0.0,0.0,0.0,0.0,0.0,0.0,0.0,0.0,0.0,0.0,0.0,0.0,0.0,0.0,0.0,0.0,0.0,0.0,0.0,0.0,0.0,0.0,0.0,0.0,0.0,0.0,0.0,0.0,0.0,0.0,0.0,0.0,0.0,0.0,0.0,0.0,0.0,0.0,0.0,0.0,0.0,0.0,0.0,0.0,0.0,0.0,0.0,0.0,0.0,0.0,0.0,0.0,0.0,0.0,0.0,0.0,0.0,0.0,0.0,0.0,0.0,0.0,0.0,0.0,0.0,0.0,0.0,0.0,0.0,0.0,0.0,0.0,0.0,0.0,0.0,0.0,0.0,0.0,0.0,0.0,-0.7383,-0.7493,-0.7884,0.0,0.0,0.0,0.0,0.0,0.0,0.0,0.0,0.0,0.0,0.0,0.0,0.0,0.0,0.0,0.0,0.0,0.0,0.0,0.0,0.0,0.0,0.0,0.0,0.0,0.0,0.0,0.0,0.0,0.0,0.0,0.0,0.0,0.0,0.0,0.0,0.0,0.0,0.0,0.0,0.0,0.0,0.0,0.0,0.0,0.0,0.0,0.0,0.0,0.0,0.0,0.0,0.0,0.0,0.0,0.0,0.0,0.0,0.0,0.0,0.0,0.0,0.0,0.0,0.0,0.0,0.0,0.0,0.0,0.0,0.0,0.0,0.0,0.0,0.0,0.0,0.0,0.0,0.0,0.0,0.0,0.0,0.0,0.0,0.0,0.0,0.0,0.0,0.0,0.0,0.0,0.0,0.0,0.0,0.0,0.0,0.0,0.0,0.0,0.0,0.0,0.0,0.0,0.0,0.0,0.0,0.0,0.0,0.0,0.0,-0.8083,-0.77,-0.7768,0.0,-0.9,0.0,0.0,0.0,0.0,0.0,0.0,0.0,0.0,0.0,0.0,0.0,0.0,0.0,0.0,0.0,0.0,0.0,0.0,0.0,0.0,0.0,0.0,0.0,0.0,0.0,0.0,0.0,0.0,0.0,0.0,0.0,0.0,0.0,0.0,0.0,0.0,0.0,0.0,0.0,0.0,0.0,0.0,0.0,0.0,0.0,0.0,0.0,0.0,0.0,0.0,0.0,0.0,0.0,0.0,0.0,0.0,0.0,0.0,0.0,0.0,0.0,0.0,0.0,0.0,0.0,0.0,0.0,0.0,0.0,0.0,0.0,0.0,0.0,0.0,0.0,0.0,0.0,0.0,0.0,0.0,0.0,0.0,0.0,0.0,0.0,0.0,0.0,0.0,0.0,0.0,0.0,0.0,0.0,0.0,0.0,0.0,0.0,0.0,0.0,0.0,0.0,0.0,0.0,0.0,0.0,0.0,0.0,0.0,0.0,0.0,-0.813,-0.7823,-0.7866,-0.8236,0.0,0.0,0.0,0.0,0.0,0.0,0.0,0.0,0.0,0.0,0.0,0.0,0.0,0.0,0.0,0.0,0.0,0.0,0.0,0.0,0.0,0.0,0.0,0.0,0.0,0.0,0.0,0.0,0.0,0.0,0.0,0.0,0.0,0.0,0.0,0.0,0.0,0.0,0.0,0.0,0.0,0.0,0.0,0.0,0.0,0.0,0.0,0.0,0.0,0.0,0.0,0.0,0.0,0.0,0.0,0.0,0.0,0.0,0.0,0.0,0.0,0.0,0.0,0.0,0.0,0.0,0.0,0.0,0.0,0.0,0.0,0.0,0.0,0.0,0.0,0.0,0.0,0.0,0.0,0.0,0.0,0.0,0.0,0.0,0.0,0.0,0.0,0.0,0.0,0.0,0.0,0.0,0.0,0.0,0.0,0.0,0.0,0.0,0.0,0.0,0.0,0.0,0.0,0.0,0.0,0.0,0.0,0.0,0.0,0.0,-0.867,-0.8351,-0.8315,-0.8347,-0.8648,-0.9309,0.0,0.0,0.0,0.0,0.0,0.0,0.0,0.0,0.0,0.0,0.0,0.0,0.0,0.0,0.0,0.0,0.0,0.0,0.0,0.0,0.0,0.0,0.0,0.0,0.0,0.0,0.0,0.0,0.0,0.0,0.0,0.0,0.0,0.0,0.0,0.0,0.0,0.0,0.0,0.0,0.0,0.0,0.0,0.0,0.0,0.0,0.0,0.0,0.0,0.0,0.0,0.0,0.0,0.0,0.0,0.0,0.0,0.0,0.0,0.0,0.0,0.0,0.0,0.0,0.0,0.0,0.0,0.0,0.0,0.0,0.0,0.0,0.0,0.0,0.0,0.0,0.0,0.0,0.0,0.0,0.0,0.0,0.0,0.0,0.0,0.0,0.0,0.0,0.0,0.0,0.0,0.0,0.0,0.0,0.0,0.0,0.0,0.0,0.0,0.0,0.0,0.0,0.0,0.0,0.0,0.0,0.0,0.0,-0.8863,-0.8621,-0.8743,-0.9271,-0.9406,-0.9824,0.0,0.0,0.0,0.0,0.0,0.0,0.0,0.0,0.0,0.0,0.0,0.0,0.0,0.0,0.0,0.0,0.0,0.0,0.0,0.0,0.0,0.0,0.0,0.0,0.0,0.0,0.0,0.0,0.0,0.0,0.0,0.0,0.0,0.0,0.0,0.0,0.0,0.0,0.0,0.0,0.0,0.0,0.0,0.0,0.0,0.0,0.0,0.0,0.0,0.0,0.0,0.0,0.0,0.0,0.0,0.0,0.0,0.0,0.0,0.0,0.0,0.0,0.0,0.0,0.0,0.0,0.0,0.0,0.0,0.0,0.0,0.0,0.0,0.0,0.0,0.0,0.0,0.0,0.0,0.0,0.0,0.0,0.0,0.0,0.0,0.0,0.0,0.0,0.0,0.0,0.0,0.0,0.0,0.0,0.0,0.0,0.0,0.0,0.0,0.0,0.0,0.0,0.0,0.0,0.0,0.0,0.0,0.0,0.0,-0.9183,-0.8871,-0.8738,-0.8836,-0.9269,-0.9656,0.0,0.0,0.0,0.0,0.0,0.0,0.0,0.0,0.0,0.0,0.0,0.0,0.0,0.0,0.0,0.0,0.0,0.0,0.0,0.0,0.0,0.0,0.0,0.0,0.0,0.0,0.0,0.0,0.0,0.0,0.0,0.0,0.0,0.0,0.0,0.0,0.0,0.0,0.0,0.0,0.0,0.0,0.0,0.0,0.0,0.0,0.0,0.0,0.0,0.0,0.0,0.0,0.0,0.0,0.0,0.0,0.0,0.0,0.0,0.0,0.0,0.0,0.0,0.0,0.0,0.0,0.0,0.0,0.0,0.0,0.0,0.0,0.0,0.0,0.0,0.0,0.0,0.0,0.0,0.0,0.0,0.0,0.0,0.0,0.0,0.0,0.0,0.0,0.0,0.0,0.0,0.0,0.0,0.0,0.0,0.0,0.0,0.0,0.0,0.0,0.0,0.0,0.0,0.0,0.0,0.0,0.0,0.0,0.0,-0.9364,0.0,-0.9014,-0.9252,-0.9594,-0.9924,0.0,0.0,0.0,0.0,0.0,0.0,0.0,0.0,0.0,0.0,0.0,0.0,0.0,0.0,0.0,0.0,0.0,0.0,0.0,0.0,0.0,0.0,0.0,0.0,0.0,0.0,0.0,0.0,0.0,0.0,0.0,0.0,0.0,0.0,0.0,0.0,0.0,0.0,0.0,0.0,0.0,0.0,0.0,0.0,0.0,0.0,0.0,0.0,0.0,0.0,0.0,0.0,0.0,0.0,0.0,0.0,0.0,0.0,0.0,0.0,0.0,0.0,0.0,0.0,0.0,0.0,0.0,0.0,0.0,0.0,0.0,0.0,0.0,0.0,0.0,0.0,0.0,0.0,0.0,0.0,0.0,0.0,0.0,0.0,0.0,0.0,0.0,0.0,0.0,0.0,0.0,0.0,0.0,0.0,0.0,0.0,0.0,0.0,0.0,0.0,0.0,0.0,0.0,0.0,0.0,0.0,0.0,0.0,-1.0027,-0.9269,-0.9168,-0.9624,-1.0717,-1.0465,-1.0822,0.0,0.0,0.0,0.0,0.0,0.0,0.0,0.0,0.0,0.0,0.0,0.0,0.0,0.0,0.0,0.0,0.0,0.0,0.0,0.0,0.0,0.0,0.0,0.0,0.0,0.0,0.0,0.0,0.0,0.0,0.0,0.0,0.0,0.0,0.0,0.0,0.0,0.0,0.0,0.0,0.0,0.0,0.0,0.0,0.0,0.0,0.0,0.0,0.0,0.0,0.0,0.0,0.0,0.0,0.0,0.0,0.0,0.0,0.0,0.0,0.0,0.0,0.0,0.0,0.0,0.0,0.0,0.0,0.0,0.0,0.0,0.0,0.0,0.0,0.0,0.0,0.0,0.0,0.0,0.0,0.0,0.0,0.0,0.0,0.0,0.0,0.0,0.0,0.0,0.0,0.0,0.0,0.0,0.0,0.0,0.0,0.0,0.0,0.0,0.0,0.0,0.0,0.0,0.0,0.0,0.0,0.0,0.0,0.0,-0.9693,-0.9886,-1.0069,-1.025,-1.087,-1.1276,0.0,0.0,0.0,0.0,0.0,0.0,0.0,0.0,0.0,0.0,0.0,0.0,0.0,0.0,0.0,0.0,0.0,0.0,0.0,0.0,0.0,0.0,0.0,0.0,0.0,0.0,0.0,0.0,0.0,0.0,0.0,0.0,0.0,0.0,0.0,0.0,0.0,0.0,0.0,0.0,0.0,0.0,0.0,0.0,0.0,0.0,0.0,0.0,0.0,0.0,0.0,0.0,0.0,0.0,0.0,0.0,0.0,0.0,0.0,0.0,0.0,0.0,0.0,0.0,0.0,0.0,0.0,0.0,0.0,0.0,0.0,0.0,0.0,0.0,0.0,0.0,0.0,0.0,0.0,0.0,0.0,0.0,0.0,0.0,0.0,0.0,0.0,0.0,0.0,0.0,0.0,0.0,0.0,0.0,0.0,0.0,0.0,0.0,0.0,0.0,0.0,0.0,0.0,0.0,0.0,0.0,0.0,0.0,0.0,-1.1283,-1.1145,-1.1167,-1.1367,-1.1961,-1.2193,-1.2096,0.0,0.0,0.0,0.0,0.0,0.0,0.0,0.0,0.0,0.0,0.0,0.0,0.0,0.0,0.0,0.0,0.0,0.0,0.0,0.0,0.0,0.0,0.0,0.0,0.0,0.0,0.0,0.0,0.0,0.0,0.0,0.0,0.0,0.0,0.0,0.0,0.0,0.0,0.0,0.0,0.0,0.0,0.0,0.0,0.0,0.0,0.0,0.0,0.0,0.0,0.0,0.0,0.0,0.0,0.0,0.0,0.0,0.0,0.0,0.0,0.0,0.0,0.0,0.0,0.0,0.0,0.0,0.0,0.0,0.0,0.0,0.0,0.0,0.0,0.0,0.0,0.0,0.0,0.0,0.0,0.0,0.0,0.0,0.0,0.0,0.0,0.0,0.0,0.0,0.0,0.0,0.0,0.0,0.0,0.0,0.0,0.0,0.0,0.0,0.0,0.0,0.0,0.0,0.0,0.0,0.0,0.0,0.0,-1.3741,-1.2939,-1.2908,-1.3669,-1.3561,-1.3508,0.0,0.0,0.0,0.0,0.0,0.0,0.0,0.0,0.0,0.0,0.0,0.0,0.0,0.0,0.0,0.0,0.0,0.0,0.0,0.0,0.0,0.0,0.0,0.0,0.0,0.0,0.0,0.0,0.0,0.0,0.0,0.0,0.0,0.0,0.0,0.0,0.0,0.0,0.0,0.0,0.0,0.0,0.0,0.0,0.0,0.0,0.0,0.0,0.0,0.0,0.0,0.0,0.0,0.0,0.0,0.0,0.0,0.0,0.0,0.0,0.0,0.0,0.0,0.0,0.0,0.0,0.0,0.0,0.0,0.0,0.0,0.0,0.0,0.0,0.0,0.0,0.0,0.0,0.0,0.0,0.0,0.0,0.0,0.0,0.0,0.0,0.0,0.0,0.0,0.0,0.0,0.0,0.0,0.0,0.0,0.0,0.0,0.0,0.0,0.0,0.0,0.0,0.0,0.0,0.0,0.0,0.0,0.0,0.0,-1.5488,-1.6006,-1.5634,-1.4354,-1.4379,-1.4297,0.0,0.0,0.0,0.0,0.0,0.0,0.0,0.0,0.0,0.0,0.0,0.0,0.0,0.0,0.0,0.0,0.0,0.0,0.0,0.0,0.0,0.0,0.0,0.0,0.0,0.0,0.0,0.0,0.0,0.0,0.0,0.0,0.0,0.0,0.0,0.0,0.0,0.0,0.0,0.0,0.0,0.0,0.0,0.0,0.0,0.0,0.0,0.0,0.0,0.0,0.0,0.0,0.0,0.0,0.0,0.0,0.0,0.0,0.0,0.0,0.0,0.0,0.0,0.0,0.0,0.0,0.0,0.0,0.0,0.0,0.0,0.0,0.0,0.0,0.0,0.0,0.0,0.0,0.0,0.0,0.0,0.0,0.0,0.0,0.0,0.0,0.0,0.0,0.0,0.0,0.0,0.0,0.0,0.0,0.0,0.0,0.0,0.0,0.0,0.0,0.0,0.0,0.0,0.0,0.0,0.0,0.0,0.0,-1.5668,-1.6551,-1.7729,-1.7795,-1.6551,-1.6044,-1.548,0.0,0.0,0.0,0.0,0.0,0.0,0.0,0.0,0.0,0.0,0.0,0.0,0.0,0.0,0.0,0.0,0.0,0.0,0.0,0.0,0.0,0.0,0.0,0.0,0.0,0.0,0.0,0.0,0.0,0.0,0.0,0.0,0.0,0.0,0.0,0.0,0.0,0.0,0.0,0.0,0.0,0.0,0.0,0.0,0.0,0.0,0.0,0.0,0.0,0.0,0.0,0.0,0.0,0.0,0.0,0.0,0.0,0.0,0.0,0.0,0.0,0.0,0.0,0.0,0.0,0.0,0.0,0.0,0.0,0.0,0.0,0.0,0.0,0.0,0.0,0.0,0.0,0.0,0.0,0.0,0.0,0.0,0.0,0.0,0.0,0.0,0.0,0.0,0.0,0.0,0.0,0.0,0.0,0.0,0.0,0.0,0.0,0.0,0.0,0.0,0.0,0.0,0.0,0.0,0.0,0.0,0.0,0.0,-1.6383,-1.7185,-1.8649,-1.9394,-1.9309,-1.8006,-1.6874,0.0,0.0,0.0,0.0,0.0,0.0,0.0,0.0,0.0,0.0,0.0,0.0,0.0,0.0,0.0,0.0,0.0,0.0,0.0,0.0,0.0,0.0,0.0,0.0,0.0,0.0,0.0,0.0,0.0,0.0,0.0,0.0,0.0,0.0,0.0,0.0,0.0,0.0,0.0,0.0,0.0,0.0,0.0,0.0,0.0,0.0,0.0,0.0,0.0,0.0,0.0,0.0,0.0,0.0,0.0,0.0,0.0,0.0,0.0,0.0,0.0,0.0,0.0,0.0,0.0,0.0,0.0,0.0,0.0,0.0,0.0,0.0,0.0,0.0,0.0,0.0,0.0,0.0,0.0,0.0,0.0,0.0,0.0,0.0,0.0,0.0,0.0,0.0,0.0,0.0,0.0,0.0,0.0,0.0,0.0,0.0,0.0,0.0,0.0,0.0,0.0,0.0,0.0,0.0,0.0,0.0,0.0,0.0,-1.7441,-1.7686,-1.9391,-2.0175,-1.9785,-1.8619,-1.7704,0.0,0.0,0.0,0.0,0.0,0.0,0.0,0.0,0.0,0.0,0.0,0.0,0.0,0.0,0.0,0.0,0.0,0.0,0.0,0.0,0.0,0.0,0.0,0.0,0.0,0.0,0.0,0.0,0.0,0.0,0.0,0.0,0.0,0.0,0.0,0.0,0.0,0.0,0.0,0.0,0.0,0.0,0.0,0.0,0.0,0.0,0.0,0.0,-1.3999,0.0,0.0,0.0,0.0,0.0,0.0,0.0,0.0,0.0,0.0,0.0,0.0,0.0,0.0,0.0,0.0,0.0,0.0,0.0,0.0,0.0,0.0,0.0,0.0,0.0,0.0,0.0,0.0,0.0,0.0,0.0,0.0,0.0,0.0,0.0,0.0,0.0,0.0,0.0,0.0,0.0,0.0,0.0,0.0,0.0,0.0,0.0,0.0,0.0,0.0,0.0,0.0,0.0,0.0,0.0,0.0,0.0,0.0,0.0,-1.7775,-1.8112,-1.9506,-2.0244,-2.0205,-1.9135,-1.8466,0.0,0.0,0.0,0.0,0.0,0.0,0.0,0.0,0.0,0.0,0.0,0.0,0.0,0.0,0.0,0.0,0.0,0.0,0.0,0.0,0.0,0.0,0.0,0.0,0.0,0.0,0.0,0.0,0.0,0.0,0.0,0.0,0.0,0.0,0.0,0.0,0.0,0.0,0.0,0.0,0.0,0.0,0.0,0.0,0.0,0.0,0.0,0.0,0.0,0.0,0.0,0.0,0.0,0.0,0.0,0.0,0.0,0.0,0.0,0.0,0.0,0.0,0.0,0.0,0.0,0.0,0.0,0.0,0.0,0.0,0.0,0.0,0.0,0.0,0.0,0.0,0.0,0.0,0.0,0.0,0.0,0.0,0.0,0.0,0.0,0.0,0.0,0.0,0.0,0.0,0.0,0.0,0.0,0.0,0.0,0.0,0.0,0.0,0.0,0.0,0.0,0.0,0.0,0.0,0.0,0.0,0.0,-1.6998,-1.772,-1.835,-1.936,-2.0059,-2.038,-1.9587,-1.9174,-1.9165,0.0,0.0,0.0,0.0,0.0,0.0,0.0,0.0,0.0,0.0,0.0,0.0,0.0,0.0,0.0,0.0,0.0,0.0,0.0,0.0,0.0,0.0,0.0,0.0,0.0,0.0,0.0,0.0,0.0,0.0,0.0,0.0,0.0,0.0,0.0,0.0,0.0,0.0,-1.3155,-1.3561,0.0,0.0,0.0,0.0,0.0,0.0,0.0,0.0,-1.4722,0.0,0.0,0.0,0.0,0.0,0.0,0.0,0.0,0.0,0.0,0.0,0.0,0.0,0.0,0.0,0.0,0.0,0.0,0.0,0.0,0.0,0.0,0.0,0.0,0.0,0.0,0.0,0.0,0.0,0.0,0.0,0.0,0.0,0.0,0.0,0.0,0.0,0.0,0.0,0.0,0.0,0.0,0.0,0.0,0.0,0.0,0.0,0.0,0.0,0.0,0.0,0.0,0.0,0.0,0.0,0.0,-1.6276,-1.7137,-1.773,-1.8047,-1.9251,-1.9775,-1.9521,-1.966,-1.9852,-1.9962,0.0,0.0,0.0,0.0,0.0,0.0,0.0,0.0,0.0,0.0,0.0,0.0,0.0,0.0,0.0,0.0,0.0,0.0,0.0,0.0,0.0,0.0,0.0,0.0,0.0,0.0,0.0,0.0,0.0,0.0,0.0,0.0,0.0,0.0,0.0,0.0,0.0,0.0,0.0,-1.4775,-1.4748,0.0,0.0,0.0,0.0,0.0,0.0,0.0,0.0,-1.5858,0.0,0.0,0.0,0.0,0.0,0.0,0.0,0.0,0.0,0.0,0.0,0.0,0.0,0.0,0.0,0.0,0.0,0.0,0.0,0.0,0.0,0.0,0.0,0.0,0.0,0.0,0.0,0.0,0.0,0.0,0.0,0.0,0.0,0.0,0.0,0.0,0.0,0.0,0.0,0.0,0.0,0.0,0.0,0.0,0.0,0.0,0.0,0.0,0.0,0.0,0.0,0.0,0.0,0.0,0.0,-1.6767,-1.732,-1.7833,-1.834,-1.959,-1.9951,-1.9326,-2.0025,-2.0412,0.0,0.0,0.0,0.0,0.0,0.0,0.0,0.0,0.0,0.0,0.0,0.0,0.0,0.0,0.0,0.0,0.0,0.0,0.0,0.0,0.0,0.0,0.0,0.0,0.0,0.0,0.0,0.0,0.0,0.0,0.0,0.0,0.0,0.0,0.0,0.0,0.0,0.0,0.0,0.0,-1.5845,-1.5981,-1.6643,0.0,0.0,0.0,0.0,0.0,0.0,-1.7261,-1.7499,0.0,0.0,0.0,0.0,0.0,0.0,0.0,0.0,0.0,0.0,0.0,0.0,0.0,0.0,0.0,0.0,0.0,0.0,0.0,0.0,0.0,0.0,0.0,0.0,0.0,0.0,0.0,0.0,0.0,0.0,0.0,0.0,0.0,0.0,0.0,0.0,0.0,0.0,0.0,0.0,0.0,0.0,0.0,0.0,0.0,0.0,0.0,0.0,0.0,0.0,0.0,0.0,0.0,0.0,0.0,-1.716,-1.7282,-1.7714,-1.8506,-1.9687,-1.9902,-1.9092,-2.0335,-2.0843,0.0,0.0,0.0,0.0,0.0,0.0,0.0,0.0,0.0,0.0,0.0,0.0,0.0,0.0,0.0,0.0,0.0,0.0,0.0,0.0,0.0,0.0,0.0,0.0,0.0,0.0,0.0,0.0,0.0,0.0,0.0,0.0,0.0,0.0,0.0,0.0,0.0,0.0,0.0,0.0,0.0,-1.7314,-1.7609,-1.7888,0.0,0.0,0.0,0.0,-1.8639,-1.8981,0.0,0.0,0.0,0.0,0.0,0.0,0.0,0.0,0.0,0.0,0.0,0.0,0.0,0.0,0.0,0.0,0.0,0.0,0.0,0.0,0.0,0.0,0.0,0.0,0.0,0.0,0.0,0.0,0.0,0.0,0.0,0.0,0.0,0.0,0.0,0.0,0.0,0.0,0.0,0.0,0.0,0.0,0.0,0.0,0.0,0.0,0.0,0.0,0.0,0.0,0.0,0.0,0.0,0.0,0.0,0.0,-1.712,-1.6705,-1.6975,-1.8047,-1.8975,-1.9033,-1.8223,-2.0353,-2.1031,0.0,0.0,0.0,0.0,0.0,0.0,0.0,0.0,0.0,0.0,0.0,0.0,0.0,0.0,0.0,0.0,0.0,0.0,0.0,0.0,0.0,0.0,0.0,0.0,0.0,0.0,0.0,0.0,0.0,0.0,0.0,0.0,0.0,0.0,0.0,0.0,0.0,0.0,0.0,0.0,0.0,-1.8429,-1.8228,-1.8839,-1.9007,0.0,0.0,-2.001,-1.9762,-2.1009,0.0,0.0,0.0,0.0,0.0,0.0,0.0,0.0,0.0,0.0,0.0,0.0,0.0,0.0,0.0,0.0,0.0,0.0,0.0,0.0,0.0,0.0,0.0,0.0,0.0,0.0,0.0,0.0,0.0,0.0,0.0,0.0,0.0,0.0,0.0,0.0,0.0,0.0,0.0,0.0,0.0,0.0,0.0,0.0,0.0,0.0,0.0,0.0,0.0,0.0,0.0,0.0,0.0,0.0,0.0,-1.5849,-1.7481,-1.6663,-1.6762,-1.7969,-1.8848,-1.8877,-1.8047,-2.0466,-2.1177,0.0,0.0,0.0,0.0,0.0,0.0,0.0,0.0,0.0,0.0,0.0,0.0,0.0,0.0,0.0,0.0,0.0,0.0,0.0,0.0,0.0,0.0,0.0,0.0,0.0,0.0,0.0,0.0,0.0,0.0,0.0,0.0,0.0,0.0,0.0,0.0,0.0,0.0,0.0,0.0,0.0,0.0,-1.9446,-2.0064,0.0,0.0,0.0,-2.1575,-2.0761,0.0,0.0,0.0,0.0,0.0,0.0,0.0,0.0,0.0,0.0,0.0,0.0,0.0,0.0,0.0,0.0,0.0,0.0,0.0,0.0,0.0,0.0,0.0,0.0,0.0,0.0,0.0,0.0,0.0,0.0,0.0,0.0,0.0,0.0,0.0,0.0,0.0,0.0,0.0,0.0,0.0,0.0,0.0,0.0,0.0,0.0,0.0,0.0,0.0,0.0,0.0,0.0,0.0,0.0,0.0,0.0,0.0,-1.7835,-1.67,-1.6731,-1.7969,-1.874,-1.8769,-1.8076,-2.0285,0.0,0.0,0.0,0.0,0.0,0.0,0.0,0.0,0.0,0.0,0.0,0.0,0.0,0.0,0.0,0.0,0.0,0.0,0.0,0.0,0.0,0.0,0.0,0.0,0.0,0.0,0.0,-1.488,0.0,0.0,0.0,0.0,0.0,0.0,0.0,0.0,0.0,0.0,0.0,0.0,0.0,0.0,-2.0527,-2.0867,-2.1646,-2.1975,0.0,0.0,-2.2782,-2.1679,-2.281,-2.3452,0.0,0.0,0.0,0.0,0.0,0.0,0.0,0.0,0.0,0.0,0.0,0.0,0.0,0.0,0.0,0.0,0.0,0.0,0.0,0.0,0.0,0.0,0.0,0.0,0.0,0.0,0.0,0.0,0.0,0.0,0.0,0.0,0.0,0.0,0.0,0.0,0.0,0.0,0.0,0.0,0.0,0.0,0.0,0.0,0.0,0.0,0.0,0.0,0.0,0.0,0.0,0.0,0.0,0.0,0.0,-1.7815,-1.6691,-1.6689,-1.7959,-1.8412,-1.8432,-1.8047,-1.9561,-2.0459,0.0,0.0,0.0,0.0,0.0,0.0,0.0,0.0,0.0,0.0,0.0,0.0,0.0,0.0,0.0,0.0,0.0,0.0,0.0,0.0,0.0,0.0,0.0,0.0,0.0,0.0,0.0,0.0,0.0,0.0,0.0,0.0,0.0,0.0,0.0,0.0,0.0,0.0,0.0,0.0,0.0,-2.2521,-2.2375,-2.3623,-2.4077,0.0,0.0,-2.3343,-2.2462,-2.3658,-2.4279,-2.3034,0.0,0.0,0.0,0.0,0.0,0.0,0.0,0.0,0.0,0.0,0.0,0.0,0.0,0.0,0.0,0.0,0.0,0.0,0.0,0.0,0.0,0.0,0.0,0.0,0.0,0.0,0.0,0.0,0.0,0.0,0.0,0.0,0.0,0.0,0.0,0.0,0.0,0.0,0.0,0.0,0.0,0.0,0.0,0.0,0.0,0.0,0.0,0.0,0.0,0.0,0.0,0.0,0.0,-1.684,-1.865,-1.6999,-1.6731,-1.7949,-1.8164,-1.8139,-1.8018,-1.9219,-2.0092,0.0,0.0,0.0,0.0,0.0,0.0,0.0,0.0,0.0,0.0,0.0,0.0,0.0,0.0,0.0,0.0,0.0,0.0,0.0,0.0,0.0,0.0,0.0,0.0,0.0,0.0,0.0,0.0,-1.6977,-1.7581,-1.8171,0.0,0.0,0.0,0.0,0.0,0.0,0.0,0.0,0.0,0.0,-2.3699,-2.4489,-2.4999,0.0,0.0,-2.4318,-2.4375,-2.3526,-2.4179,-2.4541,-2.3722,-2.3778,0.0,0.0,0.0,0.0,0.0,0.0,0.0,0.0,0.0,0.0,0.0,0.0,0.0,0.0,0.0,0.0,0.0,0.0,0.0,0.0,0.0,0.0,0.0,0.0,0.0,0.0,0.0,0.0,0.0,0.0,0.0,0.0,0.0,0.0,0.0,0.0,0.0,0.0,0.0,0.0,0.0,0.0,0.0,0.0,0.0,0.0,0.0,0.0,0.0,0.0,0.0,0.0,-1.7545,-1.9158,-1.7402,-1.6995,-1.7988,-1.8008,-1.8008,-1.8027,-1.8724,-1.9521,0.0,0.0,0.0,0.0,0.0,0.0,0.0,0.0,0.0,0.0,0.0,0.0,0.0,0.0,0.0,0.0,0.0,0.0,0.0,0.0,0.0,0.0,0.0,0.0,0.0,0.0,0.0,0.0,-1.8418,-1.9042,-1.972,0.0,0.0,0.0,0.0,0.0,0.0,0.0,0.0,0.0,0.0,-2.5237,-2.6331,-2.6353,-2.6049,-2.5509,-2.5647,-2.5438,-2.4447,-2.4653,-2.4718,-2.4026,0.0,0.0,0.0,0.0,0.0,0.0,0.0,0.0,0.0,0.0,0.0,0.0,0.0,0.0,0.0,0.0,0.0,0.0,0.0,0.0,0.0,0.0,0.0,0.0,0.0,0.0,0.0,0.0,0.0,0.0,-1.3814,0.0,0.0,0.0,0.0,0.0,0.0,0.0,0.0,0.0,0.0,0.0,0.0,0.0,0.0,0.0,0.0,0.0,0.0,0.0,0.0,0.0,0.0,-1.8744,-1.9223,-1.8014,-1.7568,-1.7998,-1.8008,-1.8018,-1.8008,-1.8037,-1.8552,-1.9624,0.0,0.0,0.0,0.0,0.0,0.0,0.0,0.0,0.0,0.0,0.0,0.0,0.0,0.0,0.0,0.0,0.0,0.0,0.0,0.0,0.0,0.0,0.0,0.0,0.0,0.0,-1.8293,-1.9411,-2.014,0.0,0.0,0.0,0.0,0.0,0.0,0.0,0.0,0.0,0.0,-2.638,-2.7315,-2.7806,-2.7804,-2.766,-2.7479,-2.7172,-2.6491,-2.5163,-2.5163,-2.495,0.0,0.0,0.0,0.0,0.0,0.0,0.0,0.0,0.0,0.0,0.0,0.0,0.0,0.0,0.0,0.0,0.0,0.0,0.0,0.0,0.0,0.0,0.0,0.0,0.0,0.0,0.0,-1.5536,-1.546,0.0,0.0,0.0,0.0,0.0,0.0,0.0,0.0,0.0,0.0,0.0,-1.7886,-1.8198,0.0,0.0,0.0,0.0,0.0,0.0,0.0,0.0,0.0,0.0,0.0,0.0,-1.9332,-2.0612,-1.8795,-1.8008,-1.8383,-1.8383,-1.8256,-1.8027,-1.8256,-1.9072,-2.0428,0.0,0.0,0.0,0.0,0.0,0.0,0.0,0.0,0.0,0.0,0.0,0.0,0.0,0.0,0.0,0.0,0.0,0.0,0.0,0.0,0.0,0.0,0.0,0.0,0.0,-1.9713,0.0,0.0,0.0,0.0,0.0,0.0,0.0,0.0,0.0,0.0,0.0,-2.701,-2.7778,-2.8166,-2.8611,-2.9201,-2.8884,-2.8102,0.0,0.0,0.0,0.0,0.0,0.0,0.0,0.0,0.0,0.0,0.0,0.0,0.0,0.0,-2.6237,-2.6253,-2.5887,-2.5616,-2.5681,0.0,0.0,0.0,0.0,0.0,0.0,0.0,0.0,0.0,0.0,0.0,0.0,0.0,0.0,0.0,0.0,-1.6867,0.0,0.0,0.0,0.0,0.0,0.0,0.0,0.0,-1.8189,-1.8695,-1.9078,-1.9399,-1.9703,0.0,-2.0139,-2.002,0.0,0.0,0.0,0.0,0.0,0.0,0.0,0.0,-2.021,-2.1456,-1.9531,-1.8594,-1.8838,-1.8676,-1.8539,-1.8467,-1.8721,-1.9294,-2.0315,-2.143,-2.214,0.0,0.0,0.0,0.0,0.0,0.0,0.0,0.0,0.0,0.0,0.0,0.0,0.0,0.0,0.0,0.0,0.0,0.0,0.0,0.0,0.0,0.0,0.0,-2.1158,0.0,0.0,0.0,0.0,0.0,0.0,0.0,0.0,0.0,-2.5352,-2.7288,-2.8898,-2.9062,-2.9072,-2.9333,-3.0139,0.0,0.0,0.0,0.0,0.0,0.0,0.0,-2.649,-2.6712,-2.6535,-2.6446,-2.6652,-2.6804,-2.715,-2.8048,0.0,0.0,-2.758,-2.6953,-2.6415,-2.6647,-2.7028,-2.7339,-2.7355,-2.759,-2.7823,0.0,0.0,0.0,0.0,0.0,0.0,0.0,0.0,-1.7929,-1.7687,0.0,-1.7521,0.0,0.0,0.0,0.0,0.0,0.0,0.0,0.0,-2.0169,-2.0553,-2.0509,-2.0708,-2.0631,-2.0313,-2.0843,-2.0928,-2.0487,-2.0066,0.0,0.0,0.0,0.0,0.0,0.0,-2.1349,-2.1568,-2.0071,-1.9307,-1.9297,-1.8887,-1.8812,-1.9248,-1.9268,-1.9307,-1.9402,-2.0374,-2.0925,-2.0984,-2.3201,0.0,0.0,0.0,0.0,0.0,0.0,0.0,0.0,0.0,0.0,0.0,0.0,0.0,0.0,0.0,0.0,0.0,0.0,0.0,0.0,-2.111,0.0,0.0,0.0,0.0,0.0,0.0,0.0,0.0,0.0,0.0,-2.7642,-2.921,-3.0169,-2.9329,0.0,0.0,0.0,0.0,-2.8756,-3.0636,-3.0589,-2.9844,-2.8566,-2.7794,-2.7054,-2.6156,0.0,0.0,-2.6905,-2.6094,-2.5823,-2.6628,-2.6464,-2.6268,-2.7261,-2.6524,-2.5662,-2.5397,-2.6308,-2.6837,-2.6766,-2.7611,-2.8095,-1.8043,0.0,0.0,0.0,0.0,-1.8826,-1.9275,-2.0024,-2.0014,-1.9698,-1.9212,-1.9411,0.0,0.0,0.0,0.0,0.0,0.0,-1.996,-2.0238,-2.0762,-2.1016,-2.0997,-2.1389,-2.1526,-2.1418,-2.1567,-2.144,-2.0987,-2.085,-2.1172,-2.1896,0.0,0.0,0.0,0.0,-2.1716,-2.1715,-2.0442,-1.9736,-1.9736,-1.9316,-1.916,-1.9277,-1.9277,-1.957,-2.0214,-2.0507,-2.0976,-2.1598,-2.2289,0.0,0.0,0.0,0.0,0.0,0.0,0.0,0.0,0.0,0.0,0.0,0.0,0.0,0.0,0.0,0.0,0.0,0.0,0.0,-2.287,-2.3235,-2.3652,0.0,0.0,0.0,0.0,0.0,0.0,0.0,0.0,0.0,-2.9531,-3.0842,-3.1812,0.0,0.0,-3.1213,-3.1187,-3.0241,-2.9339,-2.8798,0.0,0.0,0.0,-2.699,-2.7004,-2.7199,-2.7254,-2.7262,-2.7275,-2.7309,-2.7588,-2.8203,-2.7715,-2.7287,-2.7523,-2.7444,-2.7373,-2.7805,-2.8646,-2.9242,-2.9258,-2.987,-3.0236,-1.8909,-1.9448,-1.8643,-1.8412,-1.8593,-1.8642,-1.9401,-2.0529,-2.0529,-2.0561,-2.0625,-2.0844,-2.0399,-1.9478,-1.9647,0.0,0.0,0.0,-2.0879,-2.1143,-2.1543,-2.1697,-2.1726,-2.2187,-2.2295,-2.2148,-2.2305,-2.207,-2.1504,-2.1795,-2.2022,-2.2191,0.0,0.0,-2.3041,-2.222,-2.1839,-2.1848,-2.076,-2.0176,-2.0176,-1.9932,-1.9707,-1.9541,-1.9734,-2.0077,-2.0586,-2.0615,-2.084,-2.1371,-2.1699,-2.2347,0.0,0.0,0.0,0.0,0.0,0.0,0.0,0.0,0.0,0.0,0.0,-2.0794,-2.0486,0.0,0.0,0.0,-2.2742,-2.3697,-2.4627,-2.4688,0.0,0.0,0.0,0.0,0.0,0.0,0.0,-2.872,-2.9631,-3.0139,-3.0002,-3.0895,-3.1422,-3.1103,-3.0626,-3.0343,-3.0487,0.0,-2.8737,-2.8462,-2.8349,-2.8052,-2.733,-2.6986,-2.6828,-2.6918,-2.7018,-2.6945,-2.6734,-2.6966,-2.7258,-2.7487,-2.7216,-2.6945,-2.7178,-2.7131,-2.7248,-2.7885,-2.8971,-2.9659,-2.9348,-3.0208,-3.0763,-1.9854,-1.931,-1.7392,-1.6946,-1.7453,-1.7639,-1.8574,-1.9956,-2.0077,-2.0618,-2.147,-2.179,-2.1607,-2.0989,-2.0928,0.0,-2.1569,-2.1569,-2.1725,-2.2043,-2.2383,-2.2559,-2.2588,-2.2916,-2.2896,-2.2535,-2.2916,-2.2725,-2.2002,-2.2662,-2.2781,-2.2223,-2.1838,-2.212,-2.2869,-2.2151,-2.181,-2.1968,-2.1144,-2.0654,-2.0556,-2.0546,-2.0322,-1.9922,-2.0303,-2.0566,-2.0595,-2.0615,-2.0615,-2.0625,-2.1371,-2.1907,-2.2195,0.0,0.0,0.0,0.0,0.0,0.0,0.0,0.0,0.0,0.0,0.0,0.0,0.0,0.0,0.0,-2.4735,0.0,-2.5898,-2.5726,0.0,0.0,0.0,-2.7077,-2.8307,-2.8269,-2.8317,-2.8733,0.0,0.0,-2.9459,0.0,-2.9662,-2.8826,-2.8187,-2.8122,-2.9099,-2.8,-2.7556,-2.8933,-2.9015,-2.8702,-2.7977,-2.7334,-2.6559,-2.5782,-2.6009,-2.6143,-2.5715,-2.5589,-2.5556,-2.5824,-2.5707,-2.5833,-2.6348,-2.6026,-2.5737,-2.6312,-2.7703,-2.857,-2.7977,-2.9042,-2.9919,-1.7534,-1.7366,-1.6681,-1.7291,-1.8848,-1.8893,-1.9158,-1.9706,-2.0862,-2.1202,-2.0934,-2.1911,-2.2087,-2.1678,-2.1662,-2.1848,-2.2291,-2.2239,-2.2474,-2.2789,-2.2896,-2.2945,-2.2955,-2.3052,-2.3052,-2.2955,-2.3052,-2.2828,-2.2383,-2.2559,-2.2559,-2.2448,-2.234,-2.2665,-2.3391,-2.3163,-2.2826,-2.2433,-2.1896,-2.1074,-2.0107,-2.0068,-2.0019,-1.9912,-2.001,-2.0225,-2.0586,-2.0615,-2.0615,-2.0615,-2.0781,-2.1213,-2.1937,-2.2563,0.0,0.0,0.0,0.0,0.0,0.0,0.0,0.0,0.0,-2.3032,-2.3176,0.0,-2.4903,0.0,-2.6776,-2.7251,-2.6774,-2.6881,0.0,0.0,-2.7609,-2.7742,-2.8586,-2.861,-2.8824,-2.9479,-2.9548,-2.9321,-2.876,-2.8766,-2.8361,-2.7271,-2.8377,-2.9289,-2.9311,-2.8512,-2.7888,-2.8052,-2.7615,-2.7064,-2.6976,-2.6737,-2.6221,-2.5151,-2.5146,-2.5146,-2.5021,-2.4976,-2.5259,-2.6072,-2.6285,-2.6185,-2.5862,-2.5674,-2.5485,-2.5375,-2.6369,-2.7365,-2.7141,-2.8261,-2.9066,-1.6901,-1.6867,-1.6446,-1.7008,-1.8128,-1.7828,-1.8403,-1.9559,-2.0409,-2.1131,-2.1792,-2.2472,-2.2666,-2.2451,-2.2451,-2.2578,-2.2783,-2.275,-2.2877,-2.3091,-2.3101,-2.3101,-2.3101,-2.3101,-2.3101,-2.3101,-2.3101,-2.2974,-2.275,-2.274,-2.2652,-2.2519,-2.251,-2.2896,-2.3681,-2.3504,-2.3179,-2.2802,-2.2185,-2.1378,-2.0264,-2.04,-2.0664,-2.1085,-2.1174,-2.155,-2.223,-2.224,-2.2199,-2.2077,-2.2199,-2.2432,-2.2796,-2.3598,-2.4066,0.0,0.0,0.0,0.0,0.0,0.0,0.0,0.0,0.0,0.0,0.0,-2.6474,-2.7138,-2.7976,-2.82,-2.7631,-2.8039,-2.8396,-2.8484,-2.847,-2.867,-2.9184,-2.8762,-2.8566,-2.9001,-2.8805,-2.8431,-2.7972,-2.79,-2.765,-2.6939,-2.7718,-2.8273,-2.8113,-2.7661,-2.7346,-2.7214,-2.6819,-2.6487,-2.6487,-2.6487,-2.6197,-2.5398,-2.5385,-2.541,-2.4933,-2.5021,-2.5297,-2.5661,-2.5737,-2.5669,-2.531,-2.5247,-2.5114,-2.5028,-2.5613,-2.6259,-2.6343,-2.7232,-2.7865,-1.7253,-1.7199,-1.6616,-1.6473,-1.6667,-1.6079,-1.7023,-1.9039,-1.9225,-2.0673,-2.2862,-2.3047,-2.3101,-2.3091,-2.2906,-2.296,-2.3101,-2.295,-2.296,-2.3101,-2.3101,-2.3101,-2.3101,-2.3101,-2.3101,-2.3101,-2.3101,-2.3101,-2.3101,-2.3101,-2.2935,-2.2685,-2.2633,-2.3087,-2.3928,-2.3584,-2.332,-2.3247,-2.2474,-2.1633,-2.0918,-2.133,-2.1936,-2.2715,-2.3,-2.3476,-2.4209,-2.4323,-2.4194,-2.3874,-2.409,-2.4069,-2.3803,-2.5024,-2.5338,0.0,-2.5667,0.0,0.0,0.0,0.0,0.0,0.0,0.0,0.0,-2.6629,-2.7854,-2.7977,-2.8612,-2.8824,-2.8396,-2.9031,-2.9392,-2.9209,-2.9353,-2.956,-2.9715,-2.8863,-2.821,-2.8222,-2.772,-2.7429,-2.7467,-2.7331,-2.7329,-2.7253,-2.6914,-2.6713,-2.6549,-2.6587,-2.6575,-2.6487,-2.6487,-2.6487,-2.6487,-2.6487,-2.626,-2.5745,-2.5774,-2.5921,-2.4813,-2.5034,-2.5247,-2.4913,-2.4876,-2.4813,-2.4745,-2.4738,-2.4763,-2.4675,-2.5116,-2.5539,-2.5719,-2.6328,-2.6746,-1.7502,-1.7442,-1.6874,-1.6653,-1.6653,-1.6079,-1.6062,-1.6581,-1.7819,-1.9576,-2.1667,-2.2677,-2.3101,-2.3047,-2.2076,-2.2164,-2.3047,-2.2085,-2.2164,-2.3101,-2.3101,-2.3101,-2.3101,-2.3101,-2.3101,-2.3101,-2.3101,-2.3101,-2.3101,-2.3101,-2.3237,-2.3545,-2.3555,-2.3795,-2.4287,0.0,0.0,0.0,-2.3191,-2.2619,-2.247,-2.3058,-2.3488,-2.3675,-2.4055,0.0,-2.3991,-2.4358,-2.4257,-2.3644,-2.3831,0.0,0.0,0.0,0.0,0.0,0.0,0.0,0.0,0.0,0.0,0.0,-2.4643,-2.4709,-2.4796,-2.6605,-2.7695,-2.751,-2.8793,-2.9402,-2.8837,-2.9376,-2.9714,-2.9675,-2.9702,-2.974,-2.9767,-2.9176,-2.8737,-2.8725,-2.8273,-2.7946,-2.7934,-2.757,-2.7329,-2.7354,-2.6851,-2.6512,-2.6524,-2.6524,-2.6487,-2.6487,-2.6487,-2.6487,-2.6487,-2.6487,-2.616,-2.5297,-2.5021,-2.4908,-2.4356,-2.423,-2.4494,-2.4682,-2.48,-2.4644,-2.4268,-2.4494,-2.4662,-2.4255,-2.4619,-2.5096,-2.5511,-2.6097,-2.6565,-1.7427,0.0,-1.6734,-1.6573,0.0,-1.6031,-1.5825,-1.5886,-1.7297,-1.8838,-2.044,-2.1042,-2.1311,-2.1266,-2.0711,-2.1078,-2.2164,-2.1569,-2.1933,-2.3091,-2.3101,-2.3101,-2.3101,-2.3101,-2.3101,-2.3101,-2.3101,-2.3101,-2.3101,-2.3101,-2.3208,-2.3467,-2.3467,-2.3574,-2.3779,-2.3744,-2.3799,-2.3799,-2.3295,-2.286,-2.2456,-2.2948,-2.3438,-2.3864,0.0,0.0,0.0,0.0,0.0,0.0,0.0,0.0,0.0,0.0,0.0,-2.39,-2.4555,-2.4608,-2.3836,-2.3981,-2.4033,-2.3915,-2.3935,-2.4336,-2.5313,-2.649,-2.7319,-2.7688,-2.8985,-2.9666,-2.9402,-2.9616,-2.9779,-2.9779,-2.9779,-2.9779,-2.9729,-2.9277,-2.8888,-2.8875,-2.865,-2.8474,-2.8499,-2.8034,-2.7833,-2.7996,-2.7381,-2.7002,-2.7155,-2.6826,-2.6487,-2.6487,-2.6487,-2.6487,-2.6487,-2.6487,-2.6235,-2.5423,-2.5209,-2.487,-2.413,-2.3991,-2.4029,-2.3998,-2.396,-2.3923,-2.4079,-2.4443,-2.4788,-2.4845,-2.5247,-2.5674,-2.5975,-2.6059,-2.6172,-1.728,-1.7233,-1.6647,-1.656,-1.6734,-1.6152,-1.5879,-1.5872,0.0,0.0,0.0,-1.9405,-1.9497,-1.9497,-1.9268,-1.9943,-2.1248,-2.1069,-2.1756,-2.3091,-2.3101,-2.3101,-2.3101,-2.3101,-2.3101,-2.3101,-2.3101,-2.3101,-2.3101,-2.3101,-2.3101,-2.3101,-2.3101,-2.3101,-2.3101,-2.3101,-2.3144,-2.3208,-2.332,-2.3016,-2.235,-2.2765,-2.3365,-2.4139,-2.4381,-2.4832,-2.5502,-2.5604,-2.5478,-2.5178,-2.5396,-2.5356,-2.4977,-2.5184,-2.5117,-2.4666,-2.4923,-2.4705,-2.3774,-2.3874,-2.3734,-2.3135,-2.3101,-2.38,-2.5452,-2.5964,-2.6625,-2.7735,-2.8819,-2.9585,-2.9779,-2.9779,-2.9779,-2.9779,-2.9779,-2.9779,-2.9767,-2.9352,-2.9076,-2.9038,-2.9051,-2.9038,-2.9063,-2.8599,-2.8398,-2.8637,-2.8021,-2.7507,-2.7758,-2.7168,-2.6637,-2.6524,-2.6487,-2.6487,-2.6487,-2.6487,-2.626,-2.5674,-2.5561,-2.5234,-2.4443,-2.4142,-2.3941,-2.3672,-2.3409,-2.3672,-2.4092,-2.4632,-2.5084,-2.5511,-2.6084,-2.6487,-2.6449,-2.6122,-2.595,-1.7522,-1.7495,-1.7213,-1.7099,-1.7092,-1.6509,-1.6066,-1.5927,-1.7131,-1.7777,-1.801,-1.9039,-1.9497,-1.9451,-1.8411,-1.9177,-2.1203,-2.0215,-2.0944,0.0,-2.3101,-2.3101,-2.3101,-2.3101,-2.3101,-2.3101,-2.3101,-2.3101,-2.3101,-2.3101,-2.3101,-2.3101,-2.3101,-2.3101,-2.3101,-2.3101,-2.3101,-2.311,-2.3737,-2.4019,-2.39,-2.4486,-2.4882,-2.5007,-2.54,-2.55,-2.529,-2.5623,-2.5571,-2.4914,-2.5133,-2.4871,-2.4096,-2.4247,-2.4093,-2.3413,-2.3408,-2.3368,-2.3242,-2.3232,-2.3222,-2.3091,-2.3101,-2.3222,-2.3507,-2.4457,-2.5504,-2.6637,-2.7695,-2.8767,-2.9611,-2.974,-2.974,-2.9779,-2.9779,-2.9779,-2.9779,-2.9716,-2.9641,-2.9628,-2.9666,-2.9641,-2.9566,-2.9126,-2.8762,-2.8787,-2.8473,-2.7908,-2.7557,-2.7281,-2.7002,-2.6625,-2.6487,-2.6487,-2.6487,-2.6487,-2.6273,-2.5686,-2.5611,-2.541,-2.4833,-2.4657,-2.4594,-2.4537,-2.4437,-2.4525,-2.4707,-2.5134,-2.546,-2.5661,-2.6122,-2.6424,-2.6461,-2.6373,-2.6361,-1.7589,-1.7601,-1.732,-1.7199,-1.7166,-1.6693,-1.6433,-1.6355,-1.6933,-1.6978,-1.6716,-1.725,-1.7894,-1.8457,-1.7963,-1.8993,-2.1293,-2.0755,-2.14,-2.3047,-2.3101,-2.3101,-2.3101,-2.3101,-2.3101,-2.3101,-2.3101,-2.3101,-2.3101,-2.3101,-2.3101,-2.3101,-2.3101,-2.3101,-2.3101,-2.3101,-2.3101,-2.3101,-2.3428,-2.3614,-2.3624,-2.39,-2.4044,-2.4044,-2.4306,-2.4306,-2.4063,-2.4251,-2.4216,-2.3875,-2.3999,-2.3875,-2.3447,-2.3526,-2.3438,-2.311,-2.3101,-2.3101,-2.3101,-2.3101,-2.3101,-2.3101,-2.3101,-2.3101,-2.3101,-2.4125,-2.4999,-2.5557,-2.6573,-2.7695,-2.8727,-2.8858,-2.9106,-2.974,-2.9779,-2.9779,-2.9779,-2.9779,-2.9779,-2.9779,-2.9779,-2.9779,-2.9779,-2.9289,-2.9038,-2.9277,-2.9139,-2.8699,-2.7871,-2.772,-2.7419,-2.6688,-2.6487,-2.6487,-2.6499,-2.6487,-2.6373,-2.6122,-2.5799,-2.5536,-2.5247,-2.5059,-2.4858,-2.48,-2.48,-2.4913,-2.5126,-2.5423,-2.5686,-2.6059,-2.5937,-2.6135,-2.6373,-2.6487,-2.6386,-1.7622,-1.7662,-1.742,-1.7266,-1.7186,-1.6901,-1.6774,-1.6707,-1.67,-1.6594,-1.643,-1.6095,-1.6597,-1.7598,-1.7412,-1.858,-2.0657,-2.089,-2.1525,-2.2633,-2.2721,-2.2862,-2.3038,-2.2862,-2.2862,-2.3047,-2.3101,-2.3101,-2.3101,-2.3101,-2.3101,-2.3101,-2.3101,-2.3101,-2.3101,-2.3101,-2.3101,-2.3101,-2.3101,-2.3101,-2.3101,-2.3101,-2.3101,-2.3101,-2.3101,-2.3101,-2.3101,-2.3101,-2.3101,-2.3101,-2.3101,-2.3101,-2.3101,-2.3101,-2.3101,-2.3101,-2.3101,-2.3101,-2.3101,-2.3101,-2.3101,-2.3101,-2.3101,-2.3101,-2.3178,-2.3887,-2.4532,-2.483,-2.5641,-2.6584,-2.7533,-2.7735,-2.8108,-2.8961,-2.9287,-2.9353,-2.9404,-2.9624,-2.9779,-2.9779,-2.9779,-2.9779,-2.9704,-2.9402,-2.9327,-2.9666,-2.9779,-2.934,-2.8386,-2.8185,-2.7833,-2.7027,-2.66,-2.6587,-2.6612,-2.6549,-2.6499,-2.6487,-2.6147,-2.5921,-2.5737,-2.5448,-2.5247,-2.5285,-2.5247,-2.541,-2.5711,-2.5799,-2.5925,-2.6147,-2.5921,-2.5737,-2.5959,-2.6172,-2.6235,-1.7749,-1.7882,-1.7662,-1.744,-1.7219,-1.7172,-1.6967,-1.674,-1.6714,-1.7414,-1.8089,-1.687,-1.6847,-1.7481,-1.6636,-1.7512,-1.9741,-1.9679,-2.0367,-2.1454,-2.1471,-2.2031,-2.2955,-2.2006,-2.2031,-2.2989,-2.3096,-2.3081,-2.3169,-2.313,-2.311,-2.3101,-2.3101,-2.3101,-2.3101,-2.3101,-2.3101,-2.3101,-2.3101,-2.3101,-2.3101,-2.3101,-2.3101,-2.3101,-2.3101,-2.3101,-2.3101,-2.3101,-2.3101,-2.3101,-2.3101,-2.3101,-2.3101,-2.3101,-2.3101,-2.3101,-2.3101,-2.3101,-2.3101,-2.3101,-2.3101,-2.3101,-2.3101,-2.3101,-2.3101,-2.3222,-2.3714,-2.45,-2.4872,-2.5462,-2.6472,-2.6648,-2.6771,-2.7098,-2.7775,-2.8267,-2.8347,-2.9197,-2.9779,-2.9779,-2.974,-2.9779,-2.9767,-2.9691,-2.9704,-2.9767,-2.9779,-2.9338,-2.8275,-2.8313,-2.8176,-2.7313,-2.6794,-2.6728,-2.6979,-2.6788,-2.6549,-2.6487,-2.6449,-2.6348,-2.6273,-2.6285,-2.6311,-2.5988,-2.621,-2.6235,-2.6298,-2.6386,-2.621,-2.5837,-2.5636,-2.5473,-2.5184,-2.541,-2.5774,-1.7909,-1.8003,-1.7709,-1.7568,-1.746,-1.746,-1.7335,-1.7228,-1.7221,-1.748,-1.7707,-1.7086,-1.8223,-2.0384,-1.8389,-1.8712,-2.0867,-2.0314,-2.0623,-2.1571,-2.1096,-2.1867,-2.3515,-2.1719,-2.1812,-2.3651,-2.3106,-2.3096,-2.3712,-2.3643,-2.3525,-2.3442,-2.3227,-2.3101,-2.3101,-2.3101,-2.3101,-2.3101,-2.3101,-2.3101,-2.3101,-2.3101,-2.3101,-2.3101,-2.3101,-2.3101,-2.3101,-2.3101,-2.3101,-2.3101,-2.3101,-2.3101,-2.3101,-2.3101,-2.3101,-2.3101,-2.3101,-2.3101,-2.3101,-2.3101,-2.3101,-2.3101,-2.3101,-2.3101,-2.3101,-2.3101,-2.3353,-2.3671,-2.38,-2.4253,-2.5305,-2.5504,-2.5766,-2.6389,-2.6924,-2.7168,-2.7168,-2.8148,-2.8767,-2.8806,-2.9365,-2.9779,-2.9779,-2.9779,-2.9779,-2.9779,-2.9779,-2.9197,-2.7972,-2.7831,-2.7428,-2.6591,-2.6114,-2.6404,-2.7016,-2.6851,-2.6562,-2.6487,-2.6487,-2.6487,-2.6487,-2.6487,-2.6474,-2.6487,-2.6487,-2.6487,-2.6449,-2.6449,-2.6323,-2.5724,-2.5259,-2.5026,-2.4825,-2.5234,-2.5808,-1.8076,-1.8083,-1.7742,-1.7589,-1.7589,-1.7589,-1.7589,-1.7589,-1.7589,-1.7671,-1.7836,-1.7468,-1.9192,-2.1653,-1.9313,-1.9138,-2.0776,-2.0223,-2.0302,-2.09,-2.0223,-2.1097,-2.2924,-2.1002,-2.105,-2.2821,-2.2294,-2.2539,-2.3764,-2.403,-2.3906,-2.376,-2.3467,-2.3208,-2.311,-2.3101,-2.3101,-2.3101,-2.3101,-2.3101,-2.3101,-2.3101,-2.3101,-2.3101,-2.3101,-2.3101,-2.3101,-2.3101,-2.3101,-2.3101,-2.3101,-2.295,-2.2633,-2.2589,-2.2589,-2.2589,-2.2589,-2.2775,-2.3047,-2.3101,-2.3101,-2.3101,-2.3101,-2.3101,-2.3101,-2.3101,-2.3101,-2.3135,-2.3101,-2.3507,-2.4135,-2.4339,-2.4713,-2.5473,-2.5808,-2.6099,-2.6513,-2.7452,-2.8255,-2.8557,-2.9365,-2.9779,-2.9779,-2.9779,-2.9779,-2.9779,-2.9482,-2.8922,-2.7618,-2.7172,-2.6809,-2.616,-2.6088,-2.6366,-2.6906,-2.6422,-2.6228,-2.6383,-2.6349,-2.6094,-2.6383,-2.6487,-2.6487,-2.6487,-2.6487,-2.6461,-2.6436,-2.6411,-2.5984,-2.5347,-2.487,-2.4499,-2.4211,-2.4782,-2.531,-1.8155,-1.8357,-1.7829,-1.7595,-1.7589,-1.7589,-1.7589,-1.7615,-1.7589,-1.823,-1.9021,-1.8112,-1.9125,-2.1309,-1.8311,-1.7491,-1.8633,-1.8686,-1.8727,-1.8878,-1.8678,-1.9285,-2.0425,-1.9228,-1.9349,-2.0958,-2.0918,-2.1478,-2.2762,-2.3783,-2.418,-2.3809,-2.3769,-2.3545,-2.3159,-2.313,-2.3101,-2.3101,-2.3101,-2.3101,-2.3101,-2.3101,-2.3101,-2.3101,-2.3101,-2.3101,-2.3101,-2.3101,-2.3101,-2.3101,-2.3047,-2.2536,-2.1578,-2.1382,-2.1382,-2.1426,-2.1436,-2.1943,-2.2906,-2.3101,-2.3101,-2.3101,-2.3101,-2.3101,-2.3101,-2.3101,-2.3101,-2.3101,-2.3101,-2.3178,-2.3266,-2.3387,-2.3343,-2.3551,-2.4339,-2.5336,-2.6348,-2.7412,-2.8518,-2.9275,-2.9663,-2.9779,-2.9779,-2.9779,-2.9663,-2.9456,-2.8858,-2.789,-2.723,-2.6754,-2.6575,-2.669,-2.6788,-2.7035,-2.6574,-2.6421,-2.6121,-2.6317,-2.6454,-2.5631,-2.6072,-2.6487,-2.6512,-2.6487,-2.6487,-2.6461,-2.6386,-2.5984,-2.5285,-2.472,-2.428,-2.3929,-2.3847,-2.3904,-2.4494,-1.8163,-1.7889,-1.7675,-1.7695,-1.7856,-1.7669,-1.7695,-1.7856,-1.7662,-1.7838,-1.8199,-1.7793,-1.814,-1.8998,-1.7815,-1.7865,-1.8807,-1.8229,-1.8273,-1.8764,-1.8229,-1.9124,-2.0864,-1.9022,-1.9124,-2.0964,-2.1263,-2.236,-2.4334,-2.4791,-2.4609,-2.4258,-2.4189,-2.3857,-2.3266,-2.3428,-2.3383,-2.313,-2.3101,-2.3101,-2.3101,-2.3101,-2.3101,-2.3101,-2.3101,-2.3101,-2.3101,-2.3101,-2.3101,-2.3101,-2.2403,-2.1756,-2.1293,-2.0567,-2.0531,-2.1203,-2.1293,-2.1845,-2.2906,-2.3101,-2.3101,-2.3101,-2.3101,-2.3101,-2.3101,-2.3101,-2.3101,-2.3101,-2.3101,-2.3101,-2.3101,-2.3101,-2.3101,-2.3266,-2.4135,-2.4957,-2.5619,-2.6982,-2.8255,-2.8727,-2.9287,-2.9779,-2.9611,-2.9197,-2.8727,-2.8609,-2.7787,-2.681,-2.5931,-2.5491,-2.5292,-2.4829,-2.4945,-2.5355,-2.5966,-2.6765,-2.716,-2.7316,-2.7256,-2.6935,-2.7095,-2.6989,-2.6977,-2.6537,-2.6487,-2.6424,-2.6336,-2.577,-2.5021,-2.4695,-2.4217,-2.3916,-2.3647,-2.4079,-2.4619,-1.833,-1.7909,-1.7876,-1.7996,-1.815,-1.7969,-1.7996,-1.8095,-1.7869,-1.7736,-1.7722,-1.7635,-1.7589,-1.7589,-1.7589,-1.7939,-1.8577,-1.79,-1.7984,-1.8584,-1.7952,-1.8603,-1.9826,-1.8447,-1.8551,-2.0326,-2.1347,-2.2868,-2.4835,-2.5228,-2.4812,-2.3975,-2.4386,-2.4038,-2.3188,-2.3487,-2.3633,-2.3335,-2.3179,-2.3101,-2.3101,-2.3101,-2.3101,-2.3101,-2.3101,-2.3101,-2.3091,-2.2721,-2.2492,-2.2359,-2.1355,-2.0531,-2.0079,-1.8985,-1.9023,-2.0486,-2.0711,-2.1436,-2.2818,-2.3101,-2.3101,-2.3101,-2.3101,-2.3101,-2.3101,-2.3101,-2.3101,-2.3101,-2.3101,-2.3101,-2.3101,-2.3101,-2.3101,-2.3212,-2.4125,-2.4957,-2.542,-2.7012,-2.8136,-2.8767,-2.9365,-2.9611,-2.9236,-2.8557,-2.8056,-2.7643,-2.6637,-2.5588,-2.4999,-2.4414,-2.4243,-2.378,-2.4187,-2.5218,-2.6239,-2.7344,-2.7631,-2.7791,-2.7594,-2.753,-2.7437,-2.7322,-2.7034,-2.6618,-2.6414,-2.6352,-2.6038,-2.5511,-2.5146,-2.4825,-2.4525,-2.4211,-2.4274,-2.4487,-2.4958,-1.8738,-1.8464,-1.8484,-1.845,-1.8477,-1.843,-1.8464,-1.8437,-1.8176,-1.7989,-1.7962,-1.7762,-1.7689,-1.7635,-1.7662,-1.7648,-1.7753,-1.7641,-1.7681,-1.7759,-1.7621,-1.7635,-1.7943,-1.7793,-1.7891,-1.8551,-2.0531,-2.2466,-2.4038,-2.5061,-2.4851,-2.3673,-2.4555,-2.4306,-2.2521,-2.3486,-2.3838,-2.3682,-2.3379,-2.313,-2.3101,-2.3101,-2.3101,-2.3091,-2.3003,-2.295,-2.296,-2.1987,-2.1391,-2.1159,-2.0124,-1.8948,-1.7863,-1.6756,-1.7023,-1.9222,-1.9588,-2.0719,-2.2731,-2.3101,-2.3101,-2.3101,-2.3101,-2.3101,-2.3101,-2.3101,-2.3101,-2.3101,-2.3101,-2.3101,-2.3101,-2.3101,-2.3101,-2.3222,-2.4125,-2.5168,-2.6171,-2.736,-2.8466,-2.9275,-2.9573,-2.9236,-2.8478,-2.7976,-2.7522,-2.6554,-2.5504,-2.4755,-2.45,-2.3887,-2.3757,-2.4243,-2.4385,-2.4798,-2.6472,-2.8001,-2.7999,-2.7989,-2.7616,-2.7408,-2.7212,-2.7062,-2.6478,-2.6061,-2.5955,-2.5938,-2.6185,-2.5661,-2.536,-2.5039,-2.4775,-2.4575,-2.4637,-2.4788,-2.5109,-1.8751,-1.8504,-1.8497,-1.8611,-1.8744,-1.8577,-1.8597,-1.8758,-1.8477,-1.8357,-1.8337,-1.825,-1.8203,-1.815,-1.8003,-1.7903,-1.7836,-1.7695,-1.7589,-1.7602,-1.7595,-1.7589,-1.7589,-1.7589,-1.8603,-2.0274,-2.1245,-2.2868,-2.4766,-2.543,-2.5199,-2.4746,-2.5083,-2.4917,-2.3739,-2.4365,-2.4434,-2.3828,-2.3662,-2.3457,-2.313,-2.3101,-2.3101,-2.3003,-2.2315,-2.1845,-2.1854,-2.148,-2.089,-2.0124,-1.891,-1.7677,-1.6567,-1.6015,-1.6976,-1.9131,-1.9497,-2.0539,-2.2677,-2.3101,-2.3101,-2.3101,-2.3101,-2.3101,-2.3101,-2.3101,-2.3101,-2.3101,-2.3101,-2.3101,-2.3101,-2.3101,-2.3101,-2.3091,-2.4135,-2.4914,-2.5504,-2.6378,-2.7412,-2.8398,-2.8636,-2.8426,-2.8056,-2.7562,-2.6543,-2.5504,-2.4382,-2.3724,-2.3594,-2.342,-2.3135,-2.3594,-2.38,-2.4253,-2.5661,-2.6685,-2.6938,-2.7621,-2.7835,-2.7312,-2.7102,-2.6798,-2.6178,-2.5517,-2.5467,-2.5613,-2.5887,-2.5933,-2.5624,-2.5372,-2.5146,-2.4963,-2.4876,-2.5011,-2.5274,-1.8978,-1.8818,-1.8874,-1.8918,-1.9065,-1.8878,-1.8911,-1.9032,-1.8778,-1.8651,-1.8637,-1.8531,-1.8497,-1.8457,-1.829,-1.8217,-1.8176,-1.7896,-1.7816,-1.7849,-1.7642,-1.7589,-1.7589,-1.7589,-1.9065,-2.1237,-2.1693,-2.2826,-2.4864,-2.4903,-2.4321,-2.3354,-2.4282,-2.4375,-2.3623,-2.4325,-2.4512,-2.4043,-2.3711,-2.3418,-2.3159,-2.3101,-2.2862,-2.2394,-2.1702,-2.0881,-2.0124,-1.9997,-1.9633,-1.8772,-1.7677,-1.6622,-1.5879,-1.5872,-1.6929,-1.8902,-1.9679,-2.0539,-2.2721,-2.3101,-2.3101,-2.3101,-2.3101,-2.3101,-2.3101,-2.3101,-2.3101,-2.3101,-2.3101,-2.3101,-2.3101,-2.3101,-2.3101,-2.3101,-2.4125,-2.4914,-2.5378,-2.6058,-2.6678,-2.7371,-2.7522,-2.7319,-2.6819,-2.6408,-2.5389,-2.4339,-2.3551,-2.3101,-2.3101,-2.3135,-2.3101,-2.3101,-2.3266,-2.3887,-2.467,-2.5294,-2.5703,-2.6902,-2.8072,-2.7481,-2.7021,-2.6743,-2.6257,-2.5059,-2.46,-2.5182,-2.5469,-2.5993,-2.5963,-2.5724,-2.5494,-2.5661,-2.5632,-2.5185,-2.5259,-1.9417,-1.9424,-1.9417,-1.939,-1.9403,-1.9377,-1.937,-1.9363,-1.9072,-1.8945,-1.8891,-1.8724,-1.8597,-1.8564,-1.8544,-1.8517,-1.8464,-1.8155,-1.819,-1.8223,-1.7963,-1.7709,-1.7669,-1.7872,-1.9317,-2.1389,-2.1693,-2.2466,-2.389,-2.3692,-2.2316,-2.0821,-2.2541,-2.3026,-2.241,-2.3452,-2.402,-2.3669,-2.3204,-2.2805,-2.2671,-2.2731,-2.2262,-2.1248,-2.089,-1.9935,-1.8365,-1.7909,-1.7677,-1.7451,-1.6527,-1.5967,-1.5825,-1.5825,-1.7117,-1.936,-1.9542,-2.0854,-2.2545,-2.3101,-2.3101,-2.3101,-2.3101,-2.3101,-2.3101,-2.3101,-2.3101,-2.3101,-2.3101,-2.312,-2.3149,-2.3179,-2.3179,-2.3271,-2.396,-2.4893,-2.6005,-2.6099,-2.6099,-2.6318,-2.6359,-2.6099,-2.5252,-2.5041,-2.4382,-2.3551,-2.3178,-2.3135,-2.3101,-2.3101,-2.3101,-2.3101,-2.3101,-2.343,-2.4135,-2.4253,-2.4755,-2.5828,-2.696,-2.6702,-2.6066,-2.5724,-2.5739,-2.4611,-2.4009,-2.4587,-2.5346,-2.5958,-2.6118,-2.5787,-2.5893,-2.6346,-2.5963,-2.5226,-2.4897,-1.9424,-1.9424,-1.9424,-1.9424,-1.9424,-1.9424,-1.9424,-1.9417,-1.9285,-1.9232,-1.9219,-1.9178,-1.9098,-1.9162,-1.8891,-1.8811,-1.8744,-1.8504,-1.8397,-1.8457,-1.835,-1.8123,-1.8171,-1.8716,-1.9886,-2.1448,-2.1592,-2.2408,-2.3534,-2.2617,-2.1752,-2.1245,-2.1651,-2.2106,-2.1887,-2.2218,-2.2103,-2.1652,-2.1466,-2.1044,-2.06,-2.0539,-2.0305,-1.9988,-1.9185,-1.8457,-1.7598,-1.6756,-1.6292,-1.6292,-1.6015,-1.5825,-1.5872,-1.6622,-1.7816,-1.9222,-2.0395,-2.1436,-2.2677,-2.3101,-2.3101,-2.3101,-2.3101,-2.3101,-2.3101,-2.3101,-2.3101,-2.3101,-2.3101,-2.3247,-2.3535,-2.3613,-2.3623,-2.3619,-2.3682,-2.3831,-2.4059,-2.4016,-2.4264,-2.5052,-2.521,-2.4999,-2.484,-2.4628,-2.4253,-2.3387,-2.3101,-2.3101,-2.3101,-2.3101,-2.3101,-2.3101,-2.3135,-2.3222,-2.343,-2.3474,-2.3887,-2.4798,-2.5345,-2.5308,-2.4487,-2.3682,-2.385,-2.3666,-2.356,-2.3988,-2.5324,-2.6346,-2.6107,-2.5668,-2.5867,-2.6009,-2.5087,-2.4325,-2.4311,-1.9424,-1.9424,-1.9424,-1.9424,-1.9424,-1.9424,-1.9424,-1.9424,-1.9424,-1.9424,-1.9424,-1.9424,-1.9424,-1.9403,-1.9185,-1.9112,-1.9072,-1.8804,-1.8751,-1.8844,-1.8731,-1.8437,-1.8252,-1.8773,-1.9613,-2.0692,-2.0845,-2.1194,-2.171,-2.1143,-2.0582,-2.0076,-2.0531,-2.0786,-2.0778,-2.121,-2.1156,-2.0684,-2.0421,-2.005,-1.9538,-1.9497,-1.9131,-1.8818,-1.801,-1.7552,-1.6897,-1.615,-1.5825,-1.5825,-1.5825,-1.5825,-1.592,-1.6998,-1.8234,-1.9451,-2.0621,-2.18,-2.2818,-2.3101,-2.3101,-2.3101,-2.3101,-2.3101,-2.3101,-2.3101,-2.312,-2.3398,-2.3398,-2.3623,-2.3945,-2.4053,-2.3965,-2.3779,-2.3555,-2.3296,-2.313,-2.3178,-2.3377,-2.3877,-2.4082,-2.4082,-2.4082,-2.4082,-2.3757,-2.3299,-2.3101,-2.3101,-2.3101,-2.3101,-2.3101,-2.3101,-2.3101,-2.3178,-2.3222,-2.3266,-2.3309,-2.4092,-2.4308,-2.4174,-2.37,-2.2644,-2.2593,-2.2924,-2.3068,-2.3583,-2.4918,-2.5801,-2.5577,-2.5372,-2.5589,-2.5313,-2.4471,-2.3843,-2.3839,-1.9424,-1.9424,-1.9424,-1.9424,-1.9424,-1.9424,-1.9424,-1.9424,-1.9424,-1.9424,-1.9424,-1.9424,-1.9424,-1.9424,-1.9383,-1.941,-1.9332,-1.9078,-1.9138,-1.9165,-1.9052,-1.8711,-1.827,-1.8611,-1.9227,-1.9896,-1.9725,-1.9858,-2.0021,-1.9732,-1.8805,-1.8447,-1.9013,-1.9376,-1.9487,-2.012,-2.0408,-1.9965,-1.9541,-1.9154,-1.8855,-1.8807,-1.8388,-1.7584,-1.7404,-1.685,-1.6211,-1.5824,-1.5905,-1.5879,-1.5804,-1.5825,-1.5967,-1.7037,-1.8319,-1.9588,-2.0854,-2.2129,-2.2862,-2.3101,-2.3101,-2.3101,-2.3101,-2.3101,-2.3101,-2.3101,-2.3291,-2.3682,-2.3779,-2.3984,-2.4385,-2.4482,-2.4297,-2.4004,-2.3838,-2.3574,-2.3218,-2.3101,-2.3101,-2.3101,-2.3135,-2.3091,-2.3101,-2.3101,-2.3091,-2.3222,-2.3101,-2.3101,-2.3101,-2.3101,-2.3101,-2.3101,-2.3101,-2.3101,-2.3135,-2.3135,-2.3135,-2.3387,-2.3507,-2.3484,-2.363,-2.2894,-2.2205,-2.2151,-2.2972,-2.3585,-2.4258,-2.4714,-2.4748,-2.4668,-2.4616,-2.4434,-2.4133,-2.3679,-2.3513,-1.9424,-1.9424,-1.9424,-1.9424,-1.9424,-1.9424,-1.9424,-1.9424,-1.9424,-1.9424,-1.9424,-1.9424,-1.9424,-1.9424,-1.9424,-1.9424,-1.9424,-1.9279,-1.9325,-1.939,-1.9377,-1.9078,-1.8942,-1.9374,-1.9939,-2.0147,-2.0007,-1.9963,-1.9701,-1.8699,-1.795,-1.7806,-1.7991,-1.8048,-1.8192,-1.8428,-1.8201,-1.7985,-1.7902,-1.7662,-1.7348,-1.7405,-1.7112,-1.6435,-1.6319,-1.6157,-1.5974,-1.6052,-1.6172,-1.6126,-1.5992,-1.5899,-1.6191,-1.7777,-1.8993,-1.9807,-2.1454,-2.2731,-2.3047,-2.311,-2.311,-2.3179,-2.314,-2.3101,-2.3101,-2.313,-2.3325,-2.3682,-2.3809,-2.4199,-2.4805,-2.4932,-2.4668,-2.4307,-2.3955,-2.3623,-2.3208,-2.3101,-2.3101,-2.3101,-2.3101,-2.3101,-2.3101,-2.3101,-2.3101,-2.3101,-2.3101,-2.3101,-2.3101,-2.3101,-2.3101,-2.3101,-2.3101,-2.3101,-2.3101,-2.3101,-2.3101,-2.3101,-2.3101,-2.3125,-2.3239,-2.3168,-2.2537,-2.2663,-2.3275,-2.3763,-2.4073,-2.3963,-2.4039,-2.3852,-2.3722,-2.3488,-2.3349,-2.3182,-2.3429,-1.9424,-1.9424,-1.9424,-1.9424,-1.9424,-1.9424,-1.9424,-1.9424,-1.9424,-1.9424,-1.9424,-1.9424,-1.9424,-1.9424,-1.9424,-1.9424,-1.9424,-1.9424,-1.9424,-1.9424,-1.9417,-1.9279,-1.9223,-1.9533,-1.9814,-1.9431,-1.9332,-1.923,-1.8783,-1.8412,-1.8017,-1.7809,-1.7802,-1.7929,-1.7756,-1.7662,-1.7519,-1.7342,-1.7192,-1.6971,-1.6587,-1.6607,-1.6526,-1.6132,-1.6025,-1.5992,-1.5865,-1.6112,-1.6246,-1.6266,-1.6253,-1.6166,-1.6252,-1.7673,-1.878,-1.9761,-2.1123,-2.2713,-2.3119,-2.3237,-2.3276,-2.3647,-2.3354,-2.3403,-2.3491,-2.3539,-2.3779,-2.4199,-2.4453,-2.4687,-2.5273,-2.5184,-2.4873,-2.4463,-2.4033,-2.3623,-2.3218,-2.3101,-2.3101,-2.3101,-2.3101,-2.3101,-2.3101,-2.3101,-2.3101,-2.3101,-2.3101,-2.3101,-2.3101,-2.3101,-2.3101,-2.3101,-2.3101,-2.3101,-2.3101,-2.3101,-2.3101,-2.3101,-2.3101,-2.3101,-2.3158,-2.3054,-2.2896,-2.3082,-2.3206,-2.3556,-2.3811,-2.3605,-2.3591,-2.3953,-2.3819,-2.3074,-2.2775,-2.3108,-2.3585,-1.9424,-1.9424,-1.9424,-1.9424,-1.9424,-1.9424,-1.9424,-1.9424,-1.9424,-1.9424,-1.9424,-1.9424,-1.9424,-1.9424,-1.9424,-1.9424,-1.9424,-1.9424,-1.9424,-1.9424,-1.9424,-1.9403,-1.937,-1.9398,-1.9172,-1.827,-1.8541,-1.8441,-1.8286,-1.8196,-1.827,-1.8089,-1.8062,-1.8009,-1.7929,-1.7796,-1.7542,-1.7353,-1.7313,-1.7159,-1.686,-1.684,-1.6727,-1.64,-1.6621,-1.6615,-1.656,-1.6684,-1.6772,-1.675,-1.679,-1.6613,-1.6701,-1.7328,-1.8155,-1.9298,-2.0511,-2.1572,-2.2471,-2.2884,-2.3242,-2.4023,-2.3728,-2.3666,-2.4111,-2.4111,-2.4287,-2.4727,-2.5059,-2.5254,-2.5606,-2.5322,-2.4883,-2.4463,-2.4043,-2.3643,-2.3296,-2.3149,-2.3101,-2.3101,-2.3101,-2.3101,-2.3101,-2.3101,-2.3101,-2.3101,-2.3101,-2.3101,-2.3101,-2.3101,-2.3101,-2.3101,-2.3101,-2.3101,-2.3101,-2.3101,-2.3101,-2.3101,-2.3101,-2.3101,-2.3101,-2.3047,-2.2953,-2.2826,-2.2981,-2.3335,-2.3359,-2.3012,-2.3257,-2.4008,-2.3768,-2.2816,-2.2824,-2.3148,-2.3786,-1.9424,-1.9424,-1.9424,-1.9424,-1.9424,-1.9424,-1.9424,-1.9424,-1.9424,-1.9424,-1.9424,-1.9424,-1.9424,-1.9424,-1.9424,-1.9424,-1.9424,-1.9424,-1.9424,-1.9424,-1.9424,-1.9424,-1.9424,-1.9417,-1.9125,-1.8898,-1.8838,-1.8744,-1.8577,-1.8577,-1.8537,-1.8437,-1.8417,-1.833,-1.8102,-1.7922,-1.7816,-1.7555,-1.7561,-1.7361,-1.7233,-1.7221,-1.7268,-1.6916,-1.7435,-1.7741,-1.7912,-1.8062,-1.8306,-1.8562,-1.7703,-1.7187,-1.7187,-1.7825,-1.8282,-1.8703,-1.9692,-2.0656,-2.1112,-2.1897,-2.2414,-2.2935,-2.3464,-2.4052,-2.4339,-2.4394,-2.4609,-2.499,-2.54,-2.5644,-2.5664,-2.5264,-2.4873,-2.4453,-2.4062,-2.375,-2.3613,-2.3457,-2.3227,-2.3286,-2.3218,-2.3101,-2.3101,-2.3101,-2.3101,-2.3101,-2.3101,-2.3101,-2.3101,-2.3101,-2.3101,-2.3101,-2.3101,-2.3101,-2.3101,-2.3101,-2.3101,-2.3101,-2.3101,-2.3101,-2.3101,-2.3101,-2.3003,-2.2886,-2.2838,-2.3071,-2.2913,-2.2608,-2.2663,-2.321,-2.2906,-2.2526,-2.3117,-2.3733,-2.4479,-1.9424,-1.9424,-1.9424,-1.9424,-1.9424,-1.9424,-1.9424,-1.9424,-1.9424,-1.9424,-1.9424,-1.9424,-1.9424,-1.9424,-1.9424,-1.9424,-1.9424,-1.9424,-1.9424,-1.9424,-1.9424,-1.9424,-1.9424,-1.9424,-1.9292,-1.9178,-1.9145,-1.8971,-1.8758,-1.8905,-1.8824,-1.8738,-1.8718,-1.8637,-1.8435,-1.835,-1.8116,-1.7889,-1.7802,-1.7662,-1.7447,-1.7581,-1.7567,-1.8102,-1.8407,-1.8938,-1.9445,-1.8977,-1.897,-1.8882,-1.8042,-1.7556,-1.7522,-1.776,-1.8089,-1.8378,-1.9021,-1.9804,-2.024,-2.1182,-2.1778,-2.2985,-2.3427,-2.3975,-2.4647,-2.498,-2.4961,-2.5312,-2.5498,-2.5625,-2.5391,-2.5019,-2.456,-2.418,-2.3916,-2.3838,-2.3809,-2.3789,-2.3769,-2.3672,-2.3383,-2.3237,-2.3101,-2.3101,-2.3101,-2.3101,-2.312,-2.313,-2.3149,-2.3101,-2.3101,-2.3101,-2.3101,-2.3101,-2.3101,-2.3101,-2.3101,-2.3101,-2.3101,-2.3101,-2.3101,-2.3101,-2.3101,-2.3042,-2.3023,-2.2974,-2.2988,-2.2875,-2.2676,-2.2559,-2.2725,-2.2991,-2.3634,-2.4344,-2.4978,-1.9424,-1.9424,-1.9424,-1.9424,-1.9424,-1.9424,-1.9424,-1.9424,-1.9424,-1.9424,-1.9424,-1.9424,-1.9424,-1.9424,-1.9424,-1.9424,-1.9424,-1.9424,-1.9424,-1.9424,-1.9424,-1.9424,-1.9424,-1.9424,-1.9403,-1.9383,-1.9319,-1.9125,-1.8931,-1.9105,-1.9178,-1.9078,-1.9011,-1.8965,-1.8851,-1.8657,-1.8404,-1.8155,-1.8002,-1.7836,-1.7662,-1.7674,-1.7898,-1.8789,-1.9048,-1.9533,-1.9971,-1.951,-1.9207,-1.895,-1.8299,-1.7575,-1.7582,-1.7582,-1.7822,-1.8218,-1.8317,-1.907,-1.9724,-2.0901,-2.1599,-2.2775,-2.3136,-2.4142,-2.4929,-2.5391,-2.5342,-2.5606,-2.5674,-2.5547,-2.5185,-2.4785,-2.4414,-2.4102,-2.3984,-2.3965,-2.415,-2.4248,-2.4346,-2.4131,-2.3666,-2.3539,-2.3559,-2.3559,-2.3647,-2.3539,-2.3549,-2.3428,-2.3408,-2.314,-2.3101,-2.3101,-2.3101,-2.3101,-2.3101,-2.3101,-2.3101,-2.3101,-2.3101,-2.3101,-2.3101,-2.3101,-2.3101,-2.3101,-2.3091,-2.3052,-2.3091,-2.3101,-2.2925,-2.2867,-2.3023,-2.3236,-2.3547,-2.4236,-2.5009,-1.9424,-1.9424,-1.9424,-1.9424,-1.9424,-1.941,-1.9417,-1.941,-1.9397,-1.9424,-1.935,-1.941,-1.9397,-1.9403,-1.9424,-1.9424,-1.9424,-1.9424,-1.9424,-1.9424,-1.9424,-1.9424,-1.9424,-1.9424,-1.9424,-1.9424,-1.9424,-1.941,-1.9276,-1.9357,-1.941,-1.9285,-1.9245,-1.9199,-1.8985,-1.8918,-1.8724,-1.845,-1.8183,-1.7903,-1.7814,-1.7753,-1.778,-1.8058,-1.8673,-1.9459,-1.9783,-1.9439,-1.9233,-1.9376,-1.8314,-1.7687,-1.7589,-1.7589,-1.7621,-1.7698,-1.7716,-1.7739,-1.8396,-1.995,-2.1562,-2.2641,-2.3766,-2.512,-2.5557,-2.5635,-2.5567,-2.5645,-2.5684,-2.5527,-2.5176,-2.501,-2.4746,-2.4512,-2.4316,-2.4521,-2.4727,-2.4727,-2.4834,-2.4824,-2.4482,-2.4319,-2.429,-2.4307,-2.4277,-2.4141,-2.3984,-2.3809,-2.3662,-2.3477,-2.3364,-2.3422,-2.3305,-2.3276,-2.3198,-2.3179,-2.3101,-2.3101,-2.3101,-2.3101,-2.3101,-2.3101,-2.3101,-2.3101,-2.3101,-2.3101,-2.3101,-2.3101,-2.3101,-2.3101,-2.3101,-2.3101,-2.3125,-2.4006,-2.4988,-1.8487,-1.9424,-1.9424,-1.9424,-1.9403,-1.9192,-1.9118,-1.9118,-1.9118,-1.9018,-1.8931,-1.9058,-1.9118,-1.9165,-1.9272,-1.9424,-1.9424,-1.9424,-1.9424,-1.9424,-1.9424,-1.9424,-1.9424,-1.9424,-1.9424,-1.9424,-1.9424,-1.9424,-1.9424,-1.9424,-1.9424,-1.9424,-1.9424,-1.9319,-1.9152,-1.9165,-1.8998,-1.8691,-1.8372,-1.8413,-1.8759,-1.8852,-1.8999,-1.9615,-2.0116,-2.0304,-2.0253,-1.9674,-1.947,-1.9369,-1.8297,-1.7641,-1.7589,-1.7589,-1.7635,-1.7635,-1.7628,-1.7973,-1.8706,-1.9869,-2.1178,-2.2617,-2.3998,-2.4747,-2.5421,-2.5586,-2.5586,-2.5684,-2.5684,-2.5469,-2.5128,-2.5078,-2.4814,-2.4629,-2.4668,-2.4844,-2.5078,-2.5254,-2.5293,-2.5293,-2.5264,-2.504,-2.4836,-2.4687,-2.4521,-2.4287,-2.4189,-2.4082,-2.4004,-2.3945,-2.3916,-2.3965,-2.3769,-2.3555,-2.3447,-2.3369,-2.3149,-2.312,-2.313,-2.312,-2.3101,-2.3101,-2.3101,-2.3101,-2.3101,-2.3101,-2.3101,-2.3101,-2.3101,-2.3101,-2.3101,-2.3222,-2.3387,-2.3996,-2.4946,-1.6748,-1.8712,-1.9137,-1.9299,-1.9383,-1.8978,-1.8865,-1.8925,-1.8844,-1.8691,-1.8617,-1.8804,-1.8971,-1.9065,-1.9265,-1.9424,-1.9424,-1.9424,-1.9424,-1.9424,-1.9424,-1.9424,-1.9424,-1.9424,-1.9424,-1.9424,-1.9424,-1.9424,-1.9424,-1.9424,-1.9424,-1.9424,-1.9424,-1.9417,-1.9424,-1.9377,-1.9178,-1.8871,-1.843,-1.8625,-1.9135,-1.9067,-1.9561,-2.0164,-2.0684,-2.0684,-2.0538,-1.9716,-1.9057,-1.8805,-1.8192,-1.7582,-1.7589,-1.7589,-1.7655,-1.7695,-1.7749,-1.8351,-1.9256,-2.0315,-2.1473,-2.2826,-2.3741,-2.4254,-2.4815,-2.503,-2.4667,-2.4353,-2.4913,-2.4792,-2.4766,-2.4851,-2.5049,-2.4971,-2.499,-2.5127,-2.5264,-2.542,-2.5489,-2.5479,-2.5479,-2.5547,-2.5313,-2.4992,-2.4766,-2.4463,-2.4355,-2.4336,-2.4326,-2.4336,-2.4297,-2.4297,-2.415,-2.3887,-2.3682,-2.3545,-2.3305,-2.3218,-2.3237,-2.3188,-2.3188,-2.313,-2.3101,-2.3101,-2.312,-2.3101,-2.3101,-2.3101,-2.3101,-2.3101,-2.3178,-2.3507,-2.3844,-2.4286,-2.451,-1.3964,-1.7005,-1.8356,-1.9048,-1.9325,-1.8758,-1.8677,-1.8851,-1.8624,-1.851,-1.8537,-1.8771,-1.9025,-1.9225,-1.931,-1.9363,-1.9383,-1.9417,-1.9383,-1.939,-1.9424,-1.9424,-1.9424,-1.9424,-1.9424,-1.9424,-1.9424,-1.9424,-1.9424,-1.9424,-1.9424,-1.9424,-1.9424,-1.9424,-1.9424,-1.941,-1.9245,-1.8978,-1.8624,-1.8453,-1.859,-1.8369,-1.8328,-1.8233,-1.8108,-1.7891,-1.7937,-1.7989,-1.7989,-1.7989,-1.7733,-1.7635,-1.7589,-1.7642,-1.7749,-1.7889,-1.7996,-1.8675,-1.9744,-2.0928,-2.2198,-2.3194,-2.3592,-2.3484,-2.3741,-2.2667,-2.2206,-2.2567,-2.3583,-2.3883,-2.4029,-2.4456,-2.5333,-2.542,-2.5469,-2.5596,-2.5654,-2.5586,-2.5645,-2.5674,-2.5732,-2.582,-2.5927,-2.5693,-2.5225,-2.4922,-2.4736,-2.4707,-2.4687,-2.4621,-2.4543,-2.4495,-2.4426,-2.4248,-2.3955,-2.3828,-2.3809,-2.3711,-2.3652,-2.3452,-2.3315,-2.3247,-2.3247,-2.3179,-2.3252,-2.3149,-2.3101,-2.3101,-2.3101,-2.3101,-2.3222,-2.3387,-2.343,-2.3637,-2.3634,-1.3003,-1.5234,-1.6516,-1.7949,-1.9377,-1.8744,-1.8551,-1.8591,-1.835,-1.833,-1.8497,-1.8611,-1.8718,-1.8865,-1.9018,-1.8985,-1.8878,-1.9038,-1.9085,-1.9172,-1.9245,-1.9403,-1.9424,-1.9424,-1.9424,-1.9424,-1.9424,-1.9424,-1.9424,-1.9424,-1.9424,-1.9424,-1.9424,-1.9424,-1.9424,-1.9424,-1.9285,-1.9158,-1.9025,-1.8944,-1.9754,-1.9502,-1.9299,-1.9165,-1.9158,-1.8523,-1.7879,-1.7641,-1.7589,-1.7589,-1.7589,-1.7589,-1.7615,-1.7729,-1.7883,-1.8002,-1.8176,-1.8966,-2.0138,-2.1301,-2.2486,-2.3153,-2.3026,-2.2466,-2.2475,-2.1853,-2.1744,-2.2148,-2.2709,-2.3152,-2.3722,-2.4977,-2.6064,-2.5977,-2.5957,-2.6016,-2.6035,-2.5918,-2.5869,-2.5927,-2.6084,-2.6191,-2.6309,-2.6387,-2.5869,-2.54,-2.5234,-2.5135,-2.5059,-2.5021,-2.4962,-2.4904,-2.4893,-2.4756,-2.4473,-2.4385,-2.4316,-2.416,-2.4014,-2.3906,-2.375,-2.3613,-2.3594,-2.3477,-2.331,-2.3188,-2.313,-2.311,-2.3101,-2.3101,-2.3101,-2.3135,-2.3135,-2.312,-2.3257,-1.1737,-1.335,-1.4214,-1.5821,-1.769,-1.7618,-1.7653,-1.7673,-1.7312,-1.7803,-1.8477,-1.8417,-1.8537,-1.8711,-1.8724,-1.8798,-1.8744,-1.8858,-1.8918,-1.9045,-1.9212,-1.9397,-1.9424,-1.9424,-1.9424,-1.9424,-1.9424,-1.9424,-1.9424,-1.9424,-1.9424,-1.9424,-1.9424,-1.9424,-1.9424,-1.9424,-1.9424,-1.9299,-1.9206,-1.9251,-2.0109,-1.9893,-1.9671,-1.9456,-1.9334,-1.8856,-1.7996,-1.7762,-1.7675,-1.7629,-1.7589,-1.7589,-1.7655,-1.7769,-1.7936,-1.8116,-1.8413,-1.9023,-1.9917,-2.1413,-2.2411,-2.2868,-2.1908,-2.1331,-2.1081,-2.0786,-2.0076,-2.0333,-2.1499,-2.2676,-2.3035,-2.4339,-2.5582,-2.5575,-2.5859,-2.5977,-2.6162,-2.6152,-2.6201,-2.621,-2.6406,-2.6582,-2.6631,-2.6719,-2.6426,-2.5996,-2.583,-2.5635,-2.5459,-2.543,-2.5469,-2.5411,-2.5391,-2.5225,-2.5049,-2.5,-2.4873,-2.4414,-2.4316,-2.4394,-2.4277,-2.4111,-2.3867,-2.3672,-2.3496,-2.3257,-2.3227,-2.3266,-2.3198,-2.311,-2.3208,-2.3364,-2.3257,-2.3325,-2.3594,-1.0021,-1.1488,-1.1651,-1.2711,-1.4343,-1.517,-1.5779,-1.615,-1.5887,-1.67,-1.8085,-1.8044,-1.8295,-1.8774,-1.8543,-1.8552,-1.8443,-1.8668,-1.8868,-1.8998,-1.9219,-1.9403,-1.9424,-1.9424,-1.9424,-1.9424,-1.9424,-1.9424,-1.9424,-1.9424,-1.9424,-1.9424,-1.9424,-1.9424,-1.9424,-1.9424,-1.9424,-1.9383,-1.9072,-1.9105,-1.9138,-1.9061,-1.8987,-1.8871,-1.8851,-1.8543,-1.807,-1.7889,-1.7829,-1.7622,-1.7655,-1.7669,-1.7689,-1.7782,-1.7943,-1.8102,-1.841,-1.8648,-1.8843,-2.1102,-2.19,-2.1892,-2.0773,-2.0009,-1.9502,-1.876,-1.8244,-1.8812,-1.9576,-2.0692,-2.1718,-2.3088,-2.4492,-2.5554,-2.5907,-2.6162,-2.6367,-2.6465,-2.6523,-2.6611,-2.6826,-2.7012,-2.7021,-2.7002,-2.6846,-2.6602,-2.6435,-2.6191,-2.582,-2.5791,-2.5879,-2.5723,-2.5684,-2.5566,-2.5439,-2.5566,-2.54,-2.4893,-2.4687,-2.4824,-2.4756,-2.4541,-2.4268,-2.3955,-2.3809,-2.3676,-2.3603,-2.3516,-2.3545,-2.3569,-2.3682,-2.376,-2.3623,-2.3588,-2.3906,-0.9241,-0.9832,-1.0816,-1.1015,-1.1176,-1.4374,-1.5783,-1.5836,-1.5746,-1.6107,-1.6801,-1.6936,-1.6919,-1.7347,-1.8067,-1.7983,-1.7191,-1.8612,-1.8868,-1.8908,-1.911,-1.939,-1.9424,-1.9424,-1.9424,-1.9424,-1.9424,-1.9424,-1.9424,-1.9424,-1.9424,-1.9424,-1.9424,-1.9424,-1.9424,-1.9424,-1.9424,-1.9417,-1.9265,-1.9219,-1.9199,-1.9092,-1.8958,-1.8791,-1.8778,-1.8502,-1.8102,-1.8075,-1.7969,-1.7736,-1.7776,-1.7889,-1.7969,-1.809,-1.843,-1.8624,-1.8865,-1.9065,-1.9062,-1.9991,-2.0307,-2.016,-1.9696,-1.8791,-1.8202,-1.7943,-1.7687,-1.7859,-1.8757,-2.0122,-2.16,-2.3206,-2.4638,-2.59,-2.6426,-2.665,-2.6826,-2.6826,-2.6865,-2.6982,-2.7168,-2.7539,-2.7685,-2.7549,-2.7363,-2.7041,-2.6826,-2.6348,-2.5918,-2.6074,-2.6143,-2.5937,-2.583,-2.5762,-2.5732,-2.5762,-2.5693,-2.5352,-2.5273,-2.5372,-2.5264,-2.498,-2.4785,-2.4587,-2.4346,-2.416,-2.4102,-2.4053,-2.4082,-2.4141,-2.4268,-2.4209,-2.4043,-2.4121,-2.4355,-0.8781,-0.8893,-0.986,-0.9719,-0.9479,-1.2731,-1.4231,-1.44,-1.4713,-1.5066,-1.5328,-1.5433,-1.5484,-1.5771,-1.6298,-1.6782,-1.5468,-1.6511,-1.7869,-1.797,-1.8397,-1.8797,-1.9185,-1.9366,-1.9424,-1.9424,-1.9424,-1.9424,-1.9424,-1.9424,-1.9424,-1.9424,-1.9424,-1.9424,-1.9424,-1.9424,-1.9424,-1.9417,-1.9383,-1.939,-1.9397,-1.9363,-1.9252,-1.9125,-1.9018,-1.8858,-1.8448,-1.8249,-1.821,-1.8043,-1.805,-1.8196,-1.8288,-1.8504,-1.8731,-1.8744,-1.8758,-1.8971,-1.9082,-1.8941,-1.9327,-1.9571,-1.8571,-1.7956,-1.7662,-1.7641,-1.7728,-1.7974,-1.872,-1.9777,-2.1203,-2.2823,-2.3815,-2.5029,-2.5967,-2.6134,-2.7094,-2.7094,-2.7292,-2.7399,-2.7431,-2.7863,-2.797,-2.8125,-2.7949,-2.7568,-2.7187,-2.6629,-2.6171,-2.6328,-2.6455,-2.6348,-2.6182,-2.6113,-2.5986,-2.582,-2.5732,-2.5693,-2.5684,-2.5684,-2.5625,-2.5371,-2.5254,-2.5155,-2.4824,-2.4629,-2.4639,-2.4629,-2.4658,-2.4775,-2.4941,-2.4795,-2.4512,-2.4639,-2.4883,-0.8492,-0.8509,-0.8652,-0.8787,-0.9017,-1.0572,-1.127,-1.1535,-1.2841,-1.3572,-1.3813,-1.3617,-1.3783,-1.4104,-1.3964,-1.402,-1.4269,-1.4487,-1.5462,-1.627,-1.6827,-1.7781,-1.8648,-1.9062,-1.9127,-1.9307,-1.9424,-1.9424,-1.9424,-1.9424,-1.9424,-1.9424,-1.9424,-1.9424,-1.9424,-1.9424,-1.9424,-1.9424,-1.9424,-1.9424,-1.9424,-1.9417,-1.9397,-1.9285,-1.9252,-1.9098,-1.8871,-1.8708,-1.8637,-1.8524,-1.847,-1.8497,-1.8517,-1.8517,-1.8343,-1.8195,-1.8215,-1.8631,-1.8898,-1.8798,-1.8731,-1.9048,-1.846,-1.7976,-1.7949,-1.8095,-1.8104,-1.8205,-1.869,-1.9438,-2.044,-2.1255,-2.2073,-2.329,-2.456,-2.558,-2.6917,-2.7404,-2.7693,-2.7767,-2.7748,-2.777,-2.7257,-2.7346,-2.7441,-2.7246,-2.6965,-2.7133,-2.6768,-2.6699,-2.6797,-2.6807,-2.6641,-2.6465,-2.6279,-2.6035,-2.5781,-2.5742,-2.5693,-2.5684,-2.5664,-2.5645,-2.5518,-2.5332,-2.5185,-2.5088,-2.5098,-2.5156,-2.5225,-2.5352,-2.5391,-2.5226,-2.4961,-2.5215,-2.542,-0.8645,-0.8662,-0.8811,-0.8876,-0.8934,-0.9354,-1.0168,-1.1316,-1.1898,-1.2126,-1.2232,-1.2467,-1.2467,-1.2431,-1.3635,-1.3383,-1.3386,-1.3824,-1.4606,-1.5135,-1.5446,-1.6427,-1.7273,-1.7987,-1.8409,-1.9068,-1.9424,-1.9424,-1.9424,-1.9424,-1.9424,-1.9424,-1.9424,-1.9424,-1.9424,-1.9424,-1.9424,-1.9424,-1.9424,-1.9424,-1.9424,-1.9424,-1.9424,-1.9424,-1.9424,-1.9205,-1.9038,-1.8965,-1.8804,-1.8597,-1.8718,-1.8791,-1.8798,-1.8978,-1.9038,-1.9025,-1.9032,-1.9105,-1.9165,-1.8958,-1.8838,-1.8858,-1.8571,-1.9153,-1.9141,-1.8998,-1.8768,-1.8776,-1.868,-1.9291,-1.9871,-2.0607,-2.1371,-2.2533,-2.3567,-2.4452,-2.5711,-2.6393,-2.6721,-2.7173,-2.7222,-2.6834,-2.6391,-2.6218,-2.6299,-2.6378,-2.6642,-2.7098,-2.7313,-2.7201,-2.7207,-2.7226,-2.709,-2.6914,-2.6543,-2.6269,-2.6025,-2.5791,-2.5732,-2.5684,-2.5674,-2.5645,-2.5606,-2.5566,-2.543,-2.5469,-2.5547,-2.5576,-2.5508,-2.5596,-2.5577,-2.5499,-2.5469,-2.5615,-2.5752,-0.8482,-0.8554,-0.8696,-0.8825,-0.8875,-0.8937,-0.9484,-1.0301,-1.0511,-1.0612,-1.0701,-1.0868,-1.0876,-1.0863,-1.1745,-1.1892,-1.1197,-1.1877,-1.2795,-1.3687,-1.4187,-1.573,-1.6615,-1.7507,-1.8583,-1.9185,-1.9366,-1.9424,-1.9424,-1.9424,-1.9424,-1.9424,-1.9424,-1.9424,-1.9424,-1.9424,-1.9424,-1.9424,-1.9424,-1.9424,-1.9424,-1.9424,-1.9424,-1.9424,-1.9424,-1.9245,-1.9125,-1.9092,-1.8985,-1.8858,-1.9058,-1.9092,-1.9065,-1.9178,-1.9172,-1.9085,-1.8958,-1.8991,-1.9045,-1.8871,-1.8911,-1.8958,-1.8888,-1.9591,-1.975,-1.9569,-1.9348,-1.9251,-1.9028,-1.8977,-1.9591,-2.0192,-2.1073,-2.201,-2.2631,-2.3208,-2.4095,-2.4928,-2.5546,-2.6136,-2.61,-2.5772,-2.5489,-2.527,-2.5754,-2.6795,-2.7412,-2.7588,-2.7709,-2.7623,-2.7656,-2.7725,-2.7549,-2.7353,-2.6934,-2.6484,-2.6201,-2.5908,-2.5713,-2.5684,-2.5693,-2.5693,-2.5674,-2.5674,-2.5645,-2.5654,-2.5635,-2.5654,-2.5635,-2.5703,-2.5859,-2.5928,-2.584,-2.5713,-2.5889,-0.815,-0.835,-0.8438,-0.8693,-0.8916,-0.8937,-0.894,-0.8954,-0.9255,-0.9282,-0.9449,-0.938,-0.9503,-0.984,-1.0164,-1.0214,-1.0045,-1.0466,-1.1201,-1.2037,-1.2933,-1.4297,-1.5961,-1.7864,-1.739,-1.8409,-1.9127,-1.8946,-1.9366,-1.9424,-1.9424,-1.9424,-1.9424,-1.9424,-1.9424,-1.9424,-1.9424,-1.9424,-1.9424,-1.9424,-1.9424,-1.9424,-1.9424,-1.9424,-1.9424,-1.9403,-1.9403,-1.941,-1.9424,-1.9417,-1.9352,-1.9339,-1.9259,-1.9165,-1.9058,-1.8998,-1.8925,-1.8958,-1.9025,-1.8905,-1.9011,-1.9092,-1.9176,-1.9706,-1.9836,-1.9625,-1.9379,-1.9738,-1.9617,-1.9176,-1.9521,-1.972,-2.0345,-2.084,-2.135,-2.2127,-2.3055,-2.3725,-2.4297,-2.4654,-2.4425,-2.4203,-2.4314,-2.4147,-2.4986,-2.6879,-2.7653,-2.7624,-2.8048,-2.7949,-2.7978,-2.8076,-2.7939,-2.7656,-2.7139,-2.6719,-2.6377,-2.6113,-2.5908,-2.5947,-2.6142,-2.6005,-2.5771,-2.5801,-2.5879,-2.5713,-2.5674,-2.5684,-2.5703,-2.5752,-2.5957,-2.626,-2.624,-2.6094,-2.6191,-0.8235,-0.8347,-0.855,-0.8767,-0.8875,-0.8937,-0.8937,-0.8885,-0.8971,-0.914,-0.9357,-0.9449,-0.9486,-0.9496,-0.9585,-0.9625,-0.9622,-0.9717,-0.9983,-1.0482,-1.1318,-1.2689,-1.3343,-1.4772,-1.5133,-1.5902,-1.6856,-1.8467,-1.9185,-1.9424,-1.9424,-1.9424,-1.9424,-1.9424,-1.9424,-1.9424,-1.9424,-1.9424,-1.9424,-1.9424,-1.9424,-1.9424,-1.9424,-1.9424,-1.9424,-1.9444,-1.9444,-1.943,-1.943,-1.9424,-1.9424,-1.9424,-1.941,-1.9285,-1.9265,-1.9245,-1.9152,-1.9158,-1.9178,-1.9145,-1.9276,-1.9323,-1.9363,-1.9543,-1.956,-1.9307,-1.9445,-1.9995,-2.0094,-1.9639,-1.9397,-1.9468,-1.954,-1.9815,-2.0097,-2.1095,-2.204,-2.254,-2.3103,-2.287,-2.2645,-2.2983,-2.3207,-2.3869,-2.4544,-2.538,-2.6209,-2.6752,-2.777,-2.8048,-2.8019,-2.8096,-2.8223,-2.793,-2.7393,-2.7051,-2.6768,-2.6582,-2.6455,-2.6533,-2.659,-2.6435,-2.6211,-2.6103,-2.6055,-2.5908,-2.5742,-2.5684,-2.5713,-2.5762,-2.6133,-2.6475,-2.665,-2.6572,-2.6699,-0.8208,-0.8303,-0.8587,-0.8757,-0.8787,-0.8851,-0.8937,-0.8937,-0.8937,-0.9066,-0.9249,-0.9306,-0.9347,-0.9398,-0.9493,-0.9574,-0.953,-0.9663,-0.9811,-0.9859,-1.0479,-1.1559,-1.2097,-1.2697,-1.4718,-1.5725,-1.7267,-1.87,-1.9301,-1.9424,-1.9424,-1.9424,-1.9424,-1.9424,-1.9424,-1.9424,-1.9424,-1.9424,-1.9424,-1.9424,-1.9424,-1.9424,-1.9424,-1.9424,-1.943,-1.947,-1.9544,-1.9492,-1.9553,-1.9606,-1.9659,-1.9466,-1.9477,-1.9403,-1.941,-1.941,-1.941,-1.9419,-1.9466,-1.9511,-1.9484,-1.9452,-1.9392,-1.9546,-1.9526,-1.933,-1.933,-1.9818,-1.9761,-1.941,-1.941,-1.9424,-1.9424,-1.9649,-1.9707,-2.0213,-2.0981,-2.1593,-2.1487,-2.0988,-2.1737,-2.3657,-2.42,-2.5432,-2.5916,-2.569,-2.6207,-2.678,-2.7672,-2.813,-2.8067,-2.8121,-2.8237,-2.8096,-2.7598,-2.7373,-2.7246,-2.709,-2.6924,-2.6904,-2.6894,-2.6768,-2.6621,-2.6465,-2.626,-2.6006,-2.5898,-2.5849,-2.5713,-2.5713,-2.6211,-2.6709,-2.6865,-2.708,-2.7334,-0.8133,-0.8303,-0.8543,-0.8679,-0.8726,-0.8849,-0.8865,-0.8937,-0.894,-0.9005,-0.9103,-0.9011,-0.9032,-0.9169,-0.9245,-0.9323,-0.9384,-0.9568,-0.9686,-1.0059,-1.1008,-1.1193,-1.1796,-1.2933,-1.4237,-1.5542,-1.6915,-1.8286,-1.9366,-1.9062,-1.8881,-1.9243,-1.9424,-1.9424,-1.9424,-1.9424,-1.9424,-1.9424,-1.9424,-1.9424,-1.9424,-1.9424,-1.9424,-1.9424,-1.945,-1.9526,-1.9613,-1.9686,-1.9773,-1.978,-1.9793,-1.9579,-1.9439,-1.9424,-1.9424,-1.9424,-1.9424,-1.9479,-1.9566,-1.9524,-1.9533,-1.9573,-1.9466,-1.9491,-1.9484,-1.9537,-1.9537,-1.9537,-1.9537,-1.9477,-1.9477,-1.945,-1.945,-1.9564,-1.9564,-1.9564,-2.0229,-2.0953,-2.0621,-2.0062,-2.181,-2.3982,-2.4738,-2.6086,-2.6665,-2.645,-2.6765,-2.7337,-2.7789,-2.7906,-2.796,-2.8067,-2.8237,-2.8027,-2.7695,-2.7695,-2.7646,-2.7461,-2.7305,-2.7226,-2.7168,-2.7148,-2.7031,-2.6777,-2.6553,-2.6348,-2.6211,-2.6142,-2.5976,-2.5898,-2.6533,-2.7119,-2.7246,-2.751,-2.7959,-0.813,-0.8327,-0.8333,-0.8489,-0.8693,-0.8747,-0.8825,-0.8871,-0.8937,-0.8957,-0.8974,-0.8981,-0.9018,-0.9217,-0.935,-0.9337,-0.935,-0.9483,-0.9585,-0.9828,-1.0318,-1.035,-1.0717,-1.1736,-1.2749,-1.3999,-1.5187,-1.602,-1.7929,-1.7923,-1.8104,-1.8946,-1.9249,-1.9307,-1.9307,-1.9243,-1.901,-1.9185,-1.9243,-1.9185,-1.9424,-1.9424,-1.9424,-1.9424,-1.943,-1.9553,-1.9686,-1.974,-1.978,-1.976,-1.9666,-1.9499,-1.9464,-1.9424,-1.9424,-1.9424,-1.9424,-1.9479,-1.9533,-1.9452,-1.9519,-1.9619,-1.9573,-1.9666,-1.974,-1.99,-1.99,-1.9887,-1.9833,-1.9653,-1.9606,-1.9571,-1.9564,-1.984,-1.998,-1.9973,-2.0259,-2.1301,-2.1825,-2.2061,-2.2932,-2.3546,-2.3255,-2.4736,-2.6308,-2.6361,-2.6866,-2.7403,-2.7838,-2.786,-2.7828,-2.8106,-2.835,-2.8047,-2.7754,-2.8008,-2.7998,-2.7822,-2.7715,-2.7715,-2.7695,-2.7656,-2.749,-2.7187,-2.7012,-2.6846,-2.6719,-2.6454,-2.6602,-2.6631,-2.7129,-2.762,-2.7666,-2.7822,-2.8164]}]]